<?xml version='1.0' encoding='UTF-8'?><gpx version="1.1" creator="JPX - https://github.com/jenetics/jpx" xmlns="http://www.topografix.com/GPX/1/1"><trk><trkseg><trkpt lat="37.5371274451656" lon="14.976332059707694"><ele>256.0</ele><time>2026-04-06T10:39:15.999Z</time></trkpt><trkpt lat="37.5371571643386" lon="14.976140263679705"><ele>256.0</ele><time>2026-04-06T10:39:16.999Z</time></trkpt><trkpt lat="37.53718832891048" lon="14.975946042106756"><ele>256.0</ele><time>2026-04-06T10:39:17.999Z</time></trkpt><trkpt lat="37.53721810740734" lon="14.975748876951233"><ele>255.33333333333331</ele><time>2026-04-06T10:39:18.999Z</time></trkpt><trkpt lat="37.537248521161736" lon="14.975550349726602"><ele>254.66666666666669</ele><time>2026-04-06T10:39:19.999Z</time></trkpt><trkpt lat="37.53727987133059" lon="14.97534779181191"><ele>254.0</ele><time>2026-04-06T10:39:20.999Z</time></trkpt><trkpt lat="37.53731006785784" lon="14.975145563580341"><ele>254.66666666666669</ele><time>2026-04-06T10:39:21.999Z</time></trkpt><trkpt lat="37.53734106489278" lon="14.974941636218311"><ele>255.33333333333331</ele><time>2026-04-06T10:39:22.999Z</time></trkpt><trkpt lat="37.53737101321083" lon="14.974736420830439"><ele>256.0</ele><time>2026-04-06T10:39:23.999Z</time></trkpt><trkpt lat="37.53740056654136" lon="14.974527041862006"><ele>256.0</ele><time>2026-04-06T10:39:24.999Z</time></trkpt><trkpt lat="37.53743208851049" lon="14.974317939397928"><ele>256.0</ele><time>2026-04-06T10:39:25.999Z</time></trkpt><trkpt lat="37.53746247485107" lon="14.974108016415874"><ele>256.0</ele><time>2026-04-06T10:39:26.999Z</time></trkpt><trkpt lat="37.537494958591566" lon="14.973896900977694"><ele>256.0</ele><time>2026-04-06T10:39:27.999Z</time></trkpt><trkpt lat="37.53752501604576" lon="14.973687068957622"><ele>256.0</ele><time>2026-04-06T10:39:28.998Z</time></trkpt><trkpt lat="37.537556911422634" lon="14.973474685762168"><ele>256.0</ele><time>2026-04-06T10:39:29.998Z</time></trkpt><trkpt lat="37.53758881000045" lon="14.973260839548608"><ele>256.0</ele><time>2026-04-06T10:39:30.998Z</time></trkpt><trkpt lat="37.53762237605971" lon="14.9730468721528"><ele>256.0</ele><time>2026-04-06T10:39:31.998Z</time></trkpt><trkpt lat="37.537653954027896" lon="14.972832376781003"><ele>256.0</ele><time>2026-04-06T10:39:32.998Z</time></trkpt><trkpt lat="37.53768527833432" lon="14.972618077832673"><ele>255.66666666666666</ele><time>2026-04-06T10:39:33.998Z</time></trkpt><trkpt lat="37.53771503809988" lon="14.972404584206847"><ele>255.33333333333331</ele><time>2026-04-06T10:39:34.998Z</time></trkpt><trkpt lat="37.5377466676429" lon="14.97218876995365"><ele>255.0</ele><time>2026-04-06T10:39:35.998Z</time></trkpt><trkpt lat="37.537779955077454" lon="14.971967809657857"><ele>255.0</ele><time>2026-04-06T10:39:36.998Z</time></trkpt><trkpt lat="37.537812439118746" lon="14.971738674417281"><ele>255.0</ele><time>2026-04-06T10:39:37.998Z</time></trkpt><trkpt lat="37.53784708563595" lon="14.9715120309964"><ele>255.0</ele><time>2026-04-06T10:39:38.998Z</time></trkpt><trkpt lat="37.5378829509677" lon="14.971284370787014"><ele>255.0</ele><time>2026-04-06T10:39:39.998Z</time></trkpt><trkpt lat="37.53791844178373" lon="14.971053936844122"><ele>255.0</ele><time>2026-04-06T10:39:40.998Z</time></trkpt><trkpt lat="37.53795729736614" lon="14.970822298977788"><ele>255.0</ele><time>2026-04-06T10:39:41.998Z</time></trkpt><trkpt lat="37.53799528085544" lon="14.97058705523712"><ele>255.0</ele><time>2026-04-06T10:39:42.998Z</time></trkpt><trkpt lat="37.538029924740826" lon="14.970350622761341"><ele>255.0</ele><time>2026-04-06T10:39:43.998Z</time></trkpt><trkpt lat="37.53806409353986" lon="14.970111325495015"><ele>255.0</ele><time>2026-04-06T10:39:44.998Z</time></trkpt><trkpt lat="37.53810046365586" lon="14.969866879902305"><ele>254.33333333333331</ele><time>2026-04-06T10:39:45.998Z</time></trkpt><trkpt lat="37.53814057169824" lon="14.969608981459457"><ele>253.66666666666666</ele><time>2026-04-06T10:39:46.998Z</time></trkpt><trkpt lat="37.53817550482518" lon="14.969344412914031"><ele>253.0</ele><time>2026-04-06T10:39:47.998Z</time></trkpt><trkpt lat="37.53821438600582" lon="14.969072256210143"><ele>252.0</ele><time>2026-04-06T10:39:48.998Z</time></trkpt><trkpt lat="37.538256219126744" lon="14.968794527447098"><ele>251.0</ele><time>2026-04-06T10:39:49.998Z</time></trkpt><trkpt lat="37.53829979080293" lon="14.968509379631929"><ele>250.33333333333334</ele><time>2026-04-06T10:39:50.998Z</time></trkpt><trkpt lat="37.53834408152746" lon="14.968259618185364"><ele>249.66666666666669</ele><time>2026-04-06T10:39:51.998Z</time></trkpt><trkpt lat="37.538385083765775" lon="14.967982793668206"><ele>249.0</ele><time>2026-04-06T10:39:52.998Z</time></trkpt><trkpt lat="37.53842337749674" lon="14.967709931128365"><ele>248.33333333333331</ele><time>2026-04-06T10:39:53.998Z</time></trkpt><trkpt lat="37.53846344525938" lon="14.967437044071994"><ele>247.66666666666666</ele><time>2026-04-06T10:39:54.998Z</time></trkpt><trkpt lat="37.53849898549223" lon="14.967172585637297"><ele>247.0</ele><time>2026-04-06T10:39:55.998Z</time></trkpt><trkpt lat="37.538538075353074" lon="14.966922834941794"><ele>246.66666666666666</ele><time>2026-04-06T10:39:56.998Z</time></trkpt><trkpt lat="37.538573499448816" lon="14.966674353553946"><ele>246.33333333333331</ele><time>2026-04-06T10:39:57.998Z</time></trkpt><trkpt lat="37.538603531012185" lon="14.9664034334272"><ele>246.0</ele><time>2026-04-06T10:39:58.998Z</time></trkpt><trkpt lat="37.538640037786514" lon="14.966128677047914"><ele>245.33333333333331</ele><time>2026-04-06T10:39:59.998Z</time></trkpt><trkpt lat="37.538686152219626" lon="14.965856831947333"><ele>244.66666666666666</ele><time>2026-04-06T10:40:00.998Z</time></trkpt><trkpt lat="37.53872514296985" lon="14.965580517752453"><ele>244.0</ele><time>2026-04-06T10:40:01.998Z</time></trkpt><trkpt lat="37.53876046766141" lon="14.965304459555716"><ele>243.66666666666666</ele><time>2026-04-06T10:40:02.998Z</time></trkpt><trkpt lat="37.53879939999229" lon="14.965034281493276"><ele>243.33333333333331</ele><time>2026-04-06T10:40:03.998Z</time></trkpt><trkpt lat="37.53884123118028" lon="14.964758075273231"><ele>243.0</ele><time>2026-04-06T10:40:04.998Z</time></trkpt><trkpt lat="37.53888188590903" lon="14.964490957641921"><ele>242.66666666666669</ele><time>2026-04-06T10:40:05.998Z</time></trkpt><trkpt lat="37.53892406122183" lon="14.964224834682843"><ele>242.33333333333334</ele><time>2026-04-06T10:40:06.998Z</time></trkpt><trkpt lat="37.53896589161704" lon="14.96395757020763"><ele>242.0</ele><time>2026-04-06T10:40:07.998Z</time></trkpt><trkpt lat="37.5390112069541" lon="14.963692369078595"><ele>242.0</ele><time>2026-04-06T10:40:08.998Z</time></trkpt><trkpt lat="37.53906172613729" lon="14.963430704799565"><ele>242.0</ele><time>2026-04-06T10:40:09.998Z</time></trkpt><trkpt lat="37.53910697819792" lon="14.963172047049092"><ele>242.0</ele><time>2026-04-06T10:40:10.998Z</time></trkpt><trkpt lat="37.53914211996704" lon="14.962916482103884"><ele>242.0</ele><time>2026-04-06T10:40:11.998Z</time></trkpt><trkpt lat="37.539175067091556" lon="14.962658596822378"><ele>242.0</ele><time>2026-04-06T10:40:12.998Z</time></trkpt><trkpt lat="37.53920627669903" lon="14.962407614316163"><ele>242.0</ele><time>2026-04-06T10:40:13.998Z</time></trkpt><trkpt lat="37.53923976987149" lon="14.962152759195037"><ele>243.33333333333334</ele><time>2026-04-06T10:40:14.998Z</time></trkpt><trkpt lat="37.53927498482751" lon="14.961898076839812"><ele>244.66666666666669</ele><time>2026-04-06T10:40:15.997Z</time></trkpt><trkpt lat="37.539310240746026" lon="14.961642436723228"><ele>246.0</ele><time>2026-04-06T10:40:16.997Z</time></trkpt><trkpt lat="37.53934772900738" lon="14.961386411570988"><ele>246.66666666666669</ele><time>2026-04-06T10:40:17.997Z</time></trkpt><trkpt lat="37.539387820157366" lon="14.9611367597068"><ele>247.33333333333334</ele><time>2026-04-06T10:40:18.997Z</time></trkpt><trkpt lat="37.53942507496789" lon="14.960882600782483"><ele>248.0</ele><time>2026-04-06T10:40:19.997Z</time></trkpt><trkpt lat="37.5394629814117" lon="14.960624304858"><ele>248.0</ele><time>2026-04-06T10:40:20.997Z</time></trkpt><trkpt lat="37.53949927515367" lon="14.96037374039304"><ele>248.0</ele><time>2026-04-06T10:40:21.997Z</time></trkpt><trkpt lat="37.5395389416128" lon="14.960121008433953"><ele>248.0</ele><time>2026-04-06T10:40:22.997Z</time></trkpt><trkpt lat="37.53957729640528" lon="14.959867922234276"><ele>248.33333333333334</ele><time>2026-04-06T10:40:23.997Z</time></trkpt><trkpt lat="37.53961342698313" lon="14.9596131226949"><ele>248.66666666666669</ele><time>2026-04-06T10:40:24.997Z</time></trkpt><trkpt lat="37.53965102373217" lon="14.959358213577415"><ele>249.0</ele><time>2026-04-06T10:40:25.997Z</time></trkpt><trkpt lat="37.539692778685776" lon="14.959104306530882"><ele>249.0</ele><time>2026-04-06T10:40:26.997Z</time></trkpt><trkpt lat="37.53973951690868" lon="14.958851648253216"><ele>249.0</ele><time>2026-04-06T10:40:27.997Z</time></trkpt><trkpt lat="37.53979488839408" lon="14.958604478904673"><ele>249.0</ele><time>2026-04-06T10:40:28.997Z</time></trkpt><trkpt lat="37.53985785751825" lon="14.958356046676096"><ele>249.0</ele><time>2026-04-06T10:40:29.997Z</time></trkpt><trkpt lat="37.53992343553601" lon="14.95810563046096"><ele>249.0</ele><time>2026-04-06T10:40:30.997Z</time></trkpt><trkpt lat="37.53998698372605" lon="14.957849665304632"><ele>249.0</ele><time>2026-04-06T10:40:31.997Z</time></trkpt><trkpt lat="37.54005736141542" lon="14.957595819592205"><ele>249.33333333333331</ele><time>2026-04-06T10:40:32.997Z</time></trkpt><trkpt lat="37.54013569593235" lon="14.957353021433489"><ele>249.66666666666666</ele><time>2026-04-06T10:40:33.997Z</time></trkpt><trkpt lat="37.54022147380165" lon="14.957103753298629"><ele>250.0</ele><time>2026-04-06T10:40:34.997Z</time></trkpt><trkpt lat="37.54030919997298" lon="14.956851356442053"><ele>249.66666666666666</ele><time>2026-04-06T10:40:35.997Z</time></trkpt><trkpt lat="37.540409275417694" lon="14.956605156866454"><ele>249.33333333333331</ele><time>2026-04-06T10:40:36.997Z</time></trkpt><trkpt lat="37.540513986584514" lon="14.95636600350348"><ele>249.0</ele><time>2026-04-06T10:40:37.997Z</time></trkpt><trkpt lat="37.54063068782253" lon="14.956126207794922"><ele>249.0</ele><time>2026-04-06T10:40:38.997Z</time></trkpt><trkpt lat="37.54075337087518" lon="14.955880918753019"><ele>249.0</ele><time>2026-04-06T10:40:39.997Z</time></trkpt><trkpt lat="37.54087370211479" lon="14.95562934158156"><ele>248.5</ele><time>2026-04-06T10:40:40.997Z</time></trkpt><trkpt lat="37.54100417000801" lon="14.955387524870492"><ele>248.0</ele><time>2026-04-06T10:40:41.998Z</time></trkpt><trkpt lat="37.54114024602196" lon="14.95515168002446"><ele>248.5</ele><time>2026-04-06T10:40:42.998Z</time></trkpt><trkpt lat="37.54127811126598" lon="14.954906565128569"><ele>249.0</ele><time>2026-04-06T10:40:43.998Z</time></trkpt><trkpt lat="37.541419080724395" lon="14.95466155073414"><ele>249.0</ele><time>2026-04-06T10:40:44.998Z</time></trkpt><trkpt lat="37.54157317580733" lon="14.954421350659276"><ele>249.0</ele><time>2026-04-06T10:40:45.998Z</time></trkpt><trkpt lat="37.54171937184024" lon="14.954166723289326"><ele>249.0</ele><time>2026-04-06T10:40:46.998Z</time></trkpt><trkpt lat="37.5418686297357" lon="14.953920664126976"><ele>249.0</ele><time>2026-04-06T10:40:47.999Z</time></trkpt><trkpt lat="37.54201607917133" lon="14.953665201288377"><ele>249.0</ele><time>2026-04-06T10:40:48.999Z</time></trkpt><trkpt lat="37.54216494541419" lon="14.953412355959314"><ele>249.0</ele><time>2026-04-06T10:40:49.999Z</time></trkpt><trkpt lat="37.54231581482761" lon="14.953165840538515"><ele>247.5</ele><time>2026-04-06T10:40:50.999Z</time></trkpt><trkpt lat="37.54245968999173" lon="14.952915655146828"><ele>246.0</ele><time>2026-04-06T10:40:51.999Z</time></trkpt><trkpt lat="37.54260335326803" lon="14.952664386661064"><ele>246.0</ele><time>2026-04-06T10:40:52.999Z</time></trkpt><trkpt lat="37.54274799347166" lon="14.952418739227543"><ele>246.0</ele><time>2026-04-06T10:40:53.999Z</time></trkpt><trkpt lat="37.542894042149186" lon="14.952172093435895"><ele>246.0</ele><time>2026-04-06T10:40:54.999Z</time></trkpt><trkpt lat="37.54305071245038" lon="14.951919887235873"><ele>246.0</ele><time>2026-04-06T10:40:55.999Z</time></trkpt><trkpt lat="37.54320204024883" lon="14.951667410996086"><ele>247.0</ele><time>2026-04-06T10:40:56.999Z</time></trkpt><trkpt lat="37.54334985788675" lon="14.95141631224789"><ele>248.0</ele><time>2026-04-06T10:40:57.999Z</time></trkpt><trkpt lat="37.543494384226875" lon="14.951165232709993"><ele>248.0</ele><time>2026-04-06T10:40:58.999Z</time></trkpt><trkpt lat="37.54364064963649" lon="14.95091681423851"><ele>248.0</ele><time>2026-04-06T10:40:59.999Z</time></trkpt><trkpt lat="37.54378623704645" lon="14.950667933345603"><ele>248.0</ele><time>2026-04-06T10:41:00.999Z</time></trkpt><trkpt lat="37.54393197600913" lon="14.950421014673317"><ele>248.0</ele><time>2026-04-06T10:41:01.999Z</time></trkpt><trkpt lat="37.5440725398166" lon="14.950170090652312"><ele>249.5</ele><time>2026-04-06T10:41:02.999Z</time></trkpt><trkpt lat="37.544213450562275" lon="14.949918725239906"><ele>251.0</ele><time>2026-04-06T10:41:03.999Z</time></trkpt><trkpt lat="37.544358431033295" lon="14.949669823605081"><ele>251.0</ele><time>2026-04-06T10:41:04.999Z</time></trkpt><trkpt lat="37.54450513081527" lon="14.949422278980055"><ele>251.0</ele><time>2026-04-06T10:41:05.999Z</time></trkpt><trkpt lat="37.544653380201694" lon="14.949175542935862"><ele>250.5</ele><time>2026-04-06T10:41:06.999Z</time></trkpt><trkpt lat="37.54480262054232" lon="14.948928622651662"><ele>250.0</ele><time>2026-04-06T10:41:07.999Z</time></trkpt><trkpt lat="37.54495187676413" lon="14.948680868650369"><ele>250.0</ele><time>2026-04-06T10:41:08.999Z</time></trkpt><trkpt lat="37.54510209456364" lon="14.948431638245827"><ele>250.0</ele><time>2026-04-06T10:41:09.999Z</time></trkpt><trkpt lat="37.545251221300866" lon="14.948184483446404"><ele>249.5</ele><time>2026-04-06T10:41:10.999Z</time></trkpt><trkpt lat="37.54539930487032" lon="14.94793760909984"><ele>249.0</ele><time>2026-04-06T10:41:11.999Z</time></trkpt><trkpt lat="37.54554283517861" lon="14.947693606598314"><ele>250.0</ele><time>2026-04-06T10:41:12.999Z</time></trkpt><trkpt lat="37.545681841028454" lon="14.947456575408237"><ele>251.0</ele><time>2026-04-06T10:41:13.999Z</time></trkpt><trkpt lat="37.54582397438352" lon="14.947222911942895"><ele>251.0</ele><time>2026-04-06T10:41:14.999Z</time></trkpt><trkpt lat="37.54596449006329" lon="14.94698542297465"><ele>251.0</ele><time>2026-04-06T10:41:15.999Z</time></trkpt><trkpt lat="37.54610304051391" lon="14.946748969897268"><ele>249.0</ele><time>2026-04-06T10:41:16.999Z</time></trkpt><trkpt lat="37.546242864191356" lon="14.946514485808555"><ele>247.0</ele><time>2026-04-06T10:41:17.999Z</time></trkpt><trkpt lat="37.54638274513224" lon="14.946280624497351"><ele>247.0</ele><time>2026-04-06T10:41:18.999Z</time></trkpt><trkpt lat="37.54652392378787" lon="14.946044842151284"><ele>247.0</ele><time>2026-04-06T10:41:19.999Z</time></trkpt><trkpt lat="37.546669891955915" lon="14.945809468351452"><ele>247.5</ele><time>2026-04-06T10:41:20.999Z</time></trkpt><trkpt lat="37.54680703754695" lon="14.945566072522125"><ele>248.0</ele><time>2026-04-06T10:41:21.999Z</time></trkpt><trkpt lat="37.54695023216437" lon="14.945314091612754"><ele>249.0</ele><time>2026-04-06T10:41:22.999Z</time></trkpt><trkpt lat="37.54709311165994" lon="14.94507015475962"><ele>250.0</ele><time>2026-04-06T10:41:23.999Z</time></trkpt><trkpt lat="37.54723974381836" lon="14.944820152179522"><ele>250.0</ele><time>2026-04-06T10:41:24.999Z</time></trkpt><trkpt lat="37.54738475248561" lon="14.944573798833437"><ele>250.0</ele><time>2026-04-06T10:41:25.998Z</time></trkpt><trkpt lat="37.54753775939157" lon="14.94432758716116"><ele>250.0</ele><time>2026-04-06T10:41:26.998Z</time></trkpt><trkpt lat="37.547686852612465" lon="14.94407642898685"><ele>250.0</ele><time>2026-04-06T10:41:27.998Z</time></trkpt><trkpt lat="37.547836155994666" lon="14.943824992378794"><ele>252.5</ele><time>2026-04-06T10:41:28.998Z</time></trkpt><trkpt lat="37.5479857527109" lon="14.943572522313929"><ele>255.0</ele><time>2026-04-06T10:41:29.998Z</time></trkpt><trkpt lat="37.54813348311383" lon="14.943318486299475"><ele>255.0</ele><time>2026-04-06T10:41:30.998Z</time></trkpt><trkpt lat="37.548279840935145" lon="14.943066445126558"><ele>255.0</ele><time>2026-04-06T10:41:31.998Z</time></trkpt><trkpt lat="37.5484310347912" lon="14.942808626143"><ele>255.0</ele><time>2026-04-06T10:41:32.998Z</time></trkpt><trkpt lat="37.54857690184334" lon="14.942553911899338"><ele>255.0</ele><time>2026-04-06T10:41:33.998Z</time></trkpt><trkpt lat="37.548726160419015" lon="14.942300729360054"><ele>256.5</ele><time>2026-04-06T10:41:34.998Z</time></trkpt><trkpt lat="37.54887715968203" lon="14.942048951421407"><ele>258.0</ele><time>2026-04-06T10:41:35.998Z</time></trkpt><trkpt lat="37.54902796015193" lon="14.941798435532347"><ele>258.0</ele><time>2026-04-06T10:41:36.998Z</time></trkpt><trkpt lat="37.5491831803415" lon="14.941546498604225"><ele>258.0</ele><time>2026-04-06T10:41:37.998Z</time></trkpt><trkpt lat="37.54934380403851" lon="14.94129228090317"><ele>258.0</ele><time>2026-04-06T10:41:38.998Z</time></trkpt><trkpt lat="37.549474011345765" lon="14.94106216658606"><ele>258.0</ele><time>2026-04-06T10:41:39.998Z</time></trkpt><trkpt lat="37.549609289180715" lon="14.940843718266843"><ele>258.0</ele><time>2026-04-06T10:41:40.998Z</time></trkpt><trkpt lat="37.54973184357344" lon="14.940642850789503"><ele>260.3333333333333</ele><time>2026-04-06T10:41:41.998Z</time></trkpt><trkpt lat="37.54984582967054" lon="14.94045186611093"><ele>262.66666666666663</ele><time>2026-04-06T10:41:42.998Z</time></trkpt><trkpt lat="37.549958925598126" lon="14.940268432619874"><ele>265.0</ele><time>2026-04-06T10:41:43.998Z</time></trkpt><trkpt lat="37.55006360310378" lon="14.940103818085866"><ele>264.75</ele><time>2026-04-06T10:41:44.998Z</time></trkpt><trkpt lat="37.550161087593516" lon="14.93995142904628"><ele>264.5</ele><time>2026-04-06T10:41:45.998Z</time></trkpt><trkpt lat="37.55025030900932" lon="14.939809719005314"><ele>264.25</ele><time>2026-04-06T10:41:46.998Z</time></trkpt><trkpt lat="37.550338754986285" lon="14.9396808482722"><ele>264.0</ele><time>2026-04-06T10:41:47.998Z</time></trkpt><trkpt lat="37.550421331532036" lon="14.939564562665348"><ele>265.3333333333333</ele><time>2026-04-06T10:41:48.998Z</time></trkpt><trkpt lat="37.55050621837864" lon="14.939469964141137"><ele>266.6666666666667</ele><time>2026-04-06T10:41:49.998Z</time></trkpt><trkpt lat="37.55058727527117" lon="14.93939754741977"><ele>268.0</ele><time>2026-04-06T10:41:50.998Z</time></trkpt><trkpt lat="37.55065895638069" lon="14.939361405711432"><ele>269.33333333333337</ele><time>2026-04-06T10:41:51.998Z</time></trkpt><trkpt lat="37.55071340182745" lon="14.939287343712488"><ele>270.6666666666667</ele><time>2026-04-06T10:41:53.998Z</time></trkpt><trkpt lat="37.55076480652797" lon="14.939232442633982"><ele>272.0</ele><time>2026-04-06T10:41:56.998Z</time></trkpt><trkpt lat="37.55092334986808" lon="14.939364676523873"><ele>272.0</ele><time>2026-04-06T10:41:58.998Z</time></trkpt><trkpt lat="37.550979248972084" lon="14.939316543227527"><ele>272.0</ele><time>2026-04-06T10:42:00.998Z</time></trkpt><trkpt lat="37.55100026766654" lon="14.939226778064246"><ele>272.0</ele><time>2026-04-06T10:45:16.999Z</time></trkpt><trkpt lat="37.551055585250054" lon="14.939125815766564"><ele>272.0</ele><time>2026-04-06T10:45:18.999Z</time></trkpt><trkpt lat="37.55105201169542" lon="14.93901886901865"><ele>272.0</ele><time>2026-04-06T10:45:20.999Z</time></trkpt><trkpt lat="37.550963230816336" lon="14.938857913585267"><ele>272.0</ele><time>2026-04-06T10:45:22.999Z</time></trkpt><trkpt lat="37.55099297728667" lon="14.9387815256916"><ele>272.0</ele><time>2026-04-06T10:45:23.999Z</time></trkpt><trkpt lat="37.551002697698316" lon="14.938692341315372"><ele>272.0</ele><time>2026-04-06T10:45:24.999Z</time></trkpt><trkpt lat="37.55102422074583" lon="14.93859490048139"><ele>272.0</ele><time>2026-04-06T10:45:25.999Z</time></trkpt><trkpt lat="37.55105981204103" lon="14.938488316267126"><ele>272.0</ele><time>2026-04-06T10:45:26.999Z</time></trkpt><trkpt lat="37.551112926684205" lon="14.938369524948088"><ele>272.0</ele><time>2026-04-06T10:45:27.999Z</time></trkpt><trkpt lat="37.55114424365141" lon="14.938233461419877"><ele>273.0</ele><time>2026-04-06T10:45:28.999Z</time></trkpt><trkpt lat="37.55124515807966" lon="14.938129460727346"><ele>274.0</ele><time>2026-04-06T10:45:29.999Z</time></trkpt><trkpt lat="37.55131175349659" lon="14.938003668229765"><ele>275.0</ele><time>2026-04-06T10:45:30.999Z</time></trkpt><trkpt lat="37.55137445697666" lon="14.937879173860654"><ele>276.0</ele><time>2026-04-06T10:45:31.999Z</time></trkpt><trkpt lat="37.55143580951512" lon="14.937755322984033"><ele>276.0</ele><time>2026-04-06T10:45:32.999Z</time></trkpt><trkpt lat="37.55149760163597" lon="14.937637388331643"><ele>276.0</ele><time>2026-04-06T10:45:33.999Z</time></trkpt><trkpt lat="37.55156012032099" lon="14.937525046640642"><ele>276.0</ele><time>2026-04-06T10:45:34.999Z</time></trkpt><trkpt lat="37.55162562502347" lon="14.937412515853955"><ele>276.0</ele><time>2026-04-06T10:45:35.999Z</time></trkpt><trkpt lat="37.5516931297058" lon="14.937299828935169"><ele>276.0</ele><time>2026-04-06T10:45:36.999Z</time></trkpt><trkpt lat="37.55176327273081" lon="14.93718485864579"><ele>276.5</ele><time>2026-04-06T10:45:37.999Z</time></trkpt><trkpt lat="37.55183405707534" lon="14.937067228627203"><ele>277.0</ele><time>2026-04-06T10:45:38.999Z</time></trkpt><trkpt lat="37.55190215467451" lon="14.936950065776632"><ele>277.5</ele><time>2026-04-06T10:45:39.999Z</time></trkpt><trkpt lat="37.55197294922247" lon="14.936829007086304"><ele>278.0</ele><time>2026-04-06T10:45:40.999Z</time></trkpt><trkpt lat="37.55204701226812" lon="14.936702880978308"><ele>278.0</ele><time>2026-04-06T10:45:41.999Z</time></trkpt><trkpt lat="37.5521259506899" lon="14.936573193234553"><ele>278.0</ele><time>2026-04-06T10:45:42.999Z</time></trkpt><trkpt lat="37.55220493367762" lon="14.93643991031249"><ele>278.0</ele><time>2026-04-06T10:45:43.999Z</time></trkpt><trkpt lat="37.55228621836432" lon="14.93630305446434"><ele>278.0</ele><time>2026-04-06T10:45:44.999Z</time></trkpt><trkpt lat="37.55236818369606" lon="14.936165139369015"><ele>278.0</ele><time>2026-04-06T10:45:45.999Z</time></trkpt><trkpt lat="37.552450559685035" lon="14.93602521584795"><ele>278.0</ele><time>2026-04-06T10:45:46.999Z</time></trkpt><trkpt lat="37.55253391602695" lon="14.935881898653067"><ele>278.0</ele><time>2026-04-06T10:45:47.999Z</time></trkpt><trkpt lat="37.5526181262328" lon="14.935738815632032"><ele>278.0</ele><time>2026-04-06T10:45:48.999Z</time></trkpt><trkpt lat="37.55270287872362" lon="14.93559414177613"><ele>277.75</ele><time>2026-04-06T10:45:49.999Z</time></trkpt><trkpt lat="37.552789238420225" lon="14.93545081459528"><ele>277.5</ele><time>2026-04-06T10:45:50.999Z</time></trkpt><trkpt lat="37.55287597771978" lon="14.935308713585433"><ele>277.25</ele><time>2026-04-06T10:45:51.999Z</time></trkpt><trkpt lat="37.552961346255245" lon="14.935166135997154"><ele>277.0</ele><time>2026-04-06T10:45:52.999Z</time></trkpt><trkpt lat="37.5530467723033" lon="14.935021560985682"><ele>278.75</ele><time>2026-04-06T10:45:53.999Z</time></trkpt><trkpt lat="37.553134660877085" lon="14.934875325705267"><ele>280.5</ele><time>2026-04-06T10:45:54.999Z</time></trkpt><trkpt lat="37.55322116642406" lon="14.934729399103235"><ele>282.25</ele><time>2026-04-06T10:45:55.999Z</time></trkpt><trkpt lat="37.553302965293824" lon="14.934580050095672"><ele>284.0</ele><time>2026-04-06T10:45:56.999Z</time></trkpt><trkpt lat="37.55338634019217" lon="14.934430842921582"><ele>284.0</ele><time>2026-04-06T10:45:57.999Z</time></trkpt><trkpt lat="37.553470618932366" lon="14.934283200773162"><ele>284.0</ele><time>2026-04-06T10:45:58.999Z</time></trkpt><trkpt lat="37.55355625710677" lon="14.934133833578963"><ele>284.0</ele><time>2026-04-06T10:45:59.999Z</time></trkpt><trkpt lat="37.553641368034725" lon="14.933985633801596"><ele>284.0</ele><time>2026-04-06T10:46:00.999Z</time></trkpt><trkpt lat="37.55372941581877" lon="14.93383482486959"><ele>285.25</ele><time>2026-04-06T10:46:01.999Z</time></trkpt><trkpt lat="37.55381783101162" lon="14.933684324959497"><ele>286.5</ele><time>2026-04-06T10:46:02.999Z</time></trkpt><trkpt lat="37.55390544033151" lon="14.933534575895916"><ele>287.75</ele><time>2026-04-06T10:46:03.999Z</time></trkpt><trkpt lat="37.55399478056657" lon="14.933387045295948"><ele>289.0</ele><time>2026-04-06T10:46:04.999Z</time></trkpt><trkpt lat="37.55408204852553" lon="14.933238735648025"><ele>289.0</ele><time>2026-04-06T10:46:05.999Z</time></trkpt><trkpt lat="37.55416841304153" lon="14.933089427671915"><ele>289.0</ele><time>2026-04-06T10:46:06.999Z</time></trkpt><trkpt lat="37.55425338362158" lon="14.932942091680337"><ele>289.0</ele><time>2026-04-06T10:46:07.999Z</time></trkpt><trkpt lat="37.55434040784725" lon="14.932796116621056"><ele>289.0</ele><time>2026-04-06T10:46:08.999Z</time></trkpt><trkpt lat="37.55442975774555" lon="14.932649520835186"><ele>290.0</ele><time>2026-04-06T10:46:09.999Z</time></trkpt><trkpt lat="37.55451947337498" lon="14.932504281997051"><ele>291.0</ele><time>2026-04-06T10:46:10.999Z</time></trkpt><trkpt lat="37.55460917804474" lon="14.932358501259102"><ele>292.0</ele><time>2026-04-06T10:46:11.999Z</time></trkpt><trkpt lat="37.554698880256915" lon="14.932209095451386"><ele>293.0</ele><time>2026-04-06T10:46:12.999Z</time></trkpt><trkpt lat="37.55478891412179" lon="14.93205686323662"><ele>293.0</ele><time>2026-04-06T10:46:13.998Z</time></trkpt><trkpt lat="37.55487771111588" lon="14.93190425890755"><ele>293.0</ele><time>2026-04-06T10:46:14.998Z</time></trkpt><trkpt lat="37.55496846894506" lon="14.931750312421633"><ele>293.0</ele><time>2026-04-06T10:46:15.998Z</time></trkpt><trkpt lat="37.55506174941407" lon="14.9315921692144"><ele>293.0</ele><time>2026-04-06T10:46:16.998Z</time></trkpt><trkpt lat="37.55515615280218" lon="14.931430253096044"><ele>293.0</ele><time>2026-04-06T10:46:17.998Z</time></trkpt><trkpt lat="37.555250047954125" lon="14.931263757023839"><ele>293.0</ele><time>2026-04-06T10:46:18.998Z</time></trkpt><trkpt lat="37.55534895744875" lon="14.93109356181712"><ele>297.0</ele><time>2026-04-06T10:46:19.998Z</time></trkpt><trkpt lat="37.55544649311219" lon="14.930924117886889"><ele>301.0</ele><time>2026-04-06T10:46:20.998Z</time></trkpt><trkpt lat="37.55554561811126" lon="14.930755050613062"><ele>305.0</ele><time>2026-04-06T10:46:21.998Z</time></trkpt><trkpt lat="37.55564687392607" lon="14.930583213066111"><ele>305.0</ele><time>2026-04-06T10:46:22.998Z</time></trkpt><trkpt lat="37.555748736688976" lon="14.930412900310088"><ele>305.0</ele><time>2026-04-06T10:46:23.998Z</time></trkpt><trkpt lat="37.55585265840755" lon="14.930233865056966"><ele>305.0</ele><time>2026-04-06T10:46:24.998Z</time></trkpt><trkpt lat="37.555960120051964" lon="14.930055870235414"><ele>304.6666666666667</ele><time>2026-04-06T10:46:25.998Z</time></trkpt><trkpt lat="37.55606802280685" lon="14.929874027539375"><ele>304.3333333333333</ele><time>2026-04-06T10:46:26.998Z</time></trkpt><trkpt lat="37.55617513498931" lon="14.929688307815667"><ele>304.0</ele><time>2026-04-06T10:46:27.998Z</time></trkpt><trkpt lat="37.556283216288215" lon="14.9295020803486"><ele>305.0</ele><time>2026-04-06T10:46:28.998Z</time></trkpt><trkpt lat="37.55639243459625" lon="14.929317297779413"><ele>306.0</ele><time>2026-04-06T10:46:29.998Z</time></trkpt><trkpt lat="37.55650001032983" lon="14.929130364881242"><ele>307.0</ele><time>2026-04-06T10:46:30.998Z</time></trkpt><trkpt lat="37.55660979287136" lon="14.928943808575655"><ele>307.0</ele><time>2026-04-06T10:46:31.998Z</time></trkpt><trkpt lat="37.55672121516928" lon="14.92875634363713"><ele>307.0</ele><time>2026-04-06T10:46:32.998Z</time></trkpt><trkpt lat="37.55683324573169" lon="14.92856784334292"><ele>307.0</ele><time>2026-04-06T10:46:33.998Z</time></trkpt><trkpt lat="37.55694504015887" lon="14.92837867308559"><ele>307.66666666666663</ele><time>2026-04-06T10:46:34.998Z</time></trkpt><trkpt lat="37.55705793330823" lon="14.928185354140416"><ele>308.3333333333333</ele><time>2026-04-06T10:46:35.998Z</time></trkpt><trkpt lat="37.557174805916404" lon="14.927986587235786"><ele>309.0</ele><time>2026-04-06T10:46:36.998Z</time></trkpt><trkpt lat="37.557285310667794" lon="14.927802551661022"><ele>309.0</ele><time>2026-04-06T10:46:37.998Z</time></trkpt><trkpt lat="37.55738866978164" lon="14.927628470311207"><ele>309.0</ele><time>2026-04-06T10:46:38.998Z</time></trkpt><trkpt lat="37.557487096181084" lon="14.927467370014902"><ele>309.0</ele><time>2026-04-06T10:46:39.998Z</time></trkpt><trkpt lat="37.55758232969949" lon="14.927315629800777"><ele>309.0</ele><time>2026-04-06T10:46:40.998Z</time></trkpt><trkpt lat="37.557672973631284" lon="14.927173476945248"><ele>309.0</ele><time>2026-04-06T10:46:41.998Z</time></trkpt><trkpt lat="37.55775802260401" lon="14.927039165330763"><ele>309.0</ele><time>2026-04-06T10:46:42.998Z</time></trkpt><trkpt lat="37.55783861565748" lon="14.926903544777854"><ele>309.0</ele><time>2026-04-06T10:46:43.998Z</time></trkpt><trkpt lat="37.55792372654148" lon="14.926751176594516"><ele>309.3333333333333</ele><time>2026-04-06T10:46:44.998Z</time></trkpt><trkpt lat="37.558018142762386" lon="14.926581417030654"><ele>309.66666666666663</ele><time>2026-04-06T10:46:45.998Z</time></trkpt><trkpt lat="37.5581215474568" lon="14.926400469850394"><ele>310.0</ele><time>2026-04-06T10:46:46.998Z</time></trkpt><trkpt lat="37.558231515248636" lon="14.926207243952474"><ele>310.0</ele><time>2026-04-06T10:46:47.998Z</time></trkpt><trkpt lat="37.55833466104" lon="14.926025137950743"><ele>310.0</ele><time>2026-04-06T10:46:48.998Z</time></trkpt><trkpt lat="37.55843484914478" lon="14.925852872586745"><ele>310.0</ele><time>2026-04-06T10:46:49.998Z</time></trkpt><trkpt lat="37.558532809816086" lon="14.925685707204622"><ele>309.75</ele><time>2026-04-06T10:46:50.998Z</time></trkpt><trkpt lat="37.55862718177847" lon="14.925529116366686"><ele>309.5</ele><time>2026-04-06T10:46:51.998Z</time></trkpt><trkpt lat="37.5587170532925" lon="14.925381855756337"><ele>309.25</ele><time>2026-04-06T10:46:52.998Z</time></trkpt><trkpt lat="37.558801836471794" lon="14.925242319409488"><ele>309.0</ele><time>2026-04-06T10:46:53.998Z</time></trkpt><trkpt lat="37.55888362718752" lon="14.925107981981185"><ele>308.75</ele><time>2026-04-06T10:46:54.998Z</time></trkpt><trkpt lat="37.55897046277013" lon="14.924965532950033"><ele>308.5</ele><time>2026-04-06T10:46:55.998Z</time></trkpt><trkpt lat="37.559059624795005" lon="14.924815060602219"><ele>308.25</ele><time>2026-04-06T10:46:56.998Z</time></trkpt><trkpt lat="37.55915148841688" lon="14.924656497192581"><ele>308.0</ele><time>2026-04-06T10:46:57.998Z</time></trkpt><trkpt lat="37.55924909277736" lon="14.92449309421444"><ele>308.0</ele><time>2026-04-06T10:46:58.998Z</time></trkpt><trkpt lat="37.55935052884259" lon="14.924322859773865"><ele>308.0</ele><time>2026-04-06T10:46:59.999Z</time></trkpt><trkpt lat="37.55945413002248" lon="14.924145364328679"><ele>308.0</ele><time>2026-04-06T10:47:00.999Z</time></trkpt><trkpt lat="37.55955931211108" lon="14.923962925949642"><ele>307.33333333333337</ele><time>2026-04-06T10:47:01.999Z</time></trkpt><trkpt lat="37.559668534401396" lon="14.923775454825888"><ele>306.6666666666667</ele><time>2026-04-06T10:47:02.999Z</time></trkpt><trkpt lat="37.55978094197108" lon="14.923583350695209"><ele>306.0</ele><time>2026-04-06T10:47:03.999Z</time></trkpt><trkpt lat="37.559895512119745" lon="14.923390372237822"><ele>305.3333333333333</ele><time>2026-04-06T10:47:04.999Z</time></trkpt><trkpt lat="37.56001070085947" lon="14.923196204492477"><ele>304.66666666666663</ele><time>2026-04-06T10:47:05.999Z</time></trkpt><trkpt lat="37.560125961930304" lon="14.923002497439128"><ele>304.0</ele><time>2026-04-06T10:47:06.999Z</time></trkpt><trkpt lat="37.56024124569962" lon="14.922809406127554"><ele>304.0</ele><time>2026-04-06T10:47:07.999Z</time></trkpt><trkpt lat="37.56035965462501" lon="14.922616900416259"><ele>304.0</ele><time>2026-04-06T10:47:08.999Z</time></trkpt><trkpt lat="37.56047726991854" lon="14.922423814769806"><ele>304.0</ele><time>2026-04-06T10:47:09.999Z</time></trkpt><trkpt lat="37.56059885703077" lon="14.922229129332997"><ele>305.0</ele><time>2026-04-06T10:47:10.999Z</time></trkpt><trkpt lat="37.56072210907333" lon="14.922043929866938"><ele>306.0</ele><time>2026-04-06T10:47:11.999Z</time></trkpt><trkpt lat="37.560852685225086" lon="14.921859565712174"><ele>307.0</ele><time>2026-04-06T10:47:12.999Z</time></trkpt><trkpt lat="37.560988540728275" lon="14.921678233148048"><ele>307.0</ele><time>2026-04-06T10:47:13.999Z</time></trkpt><trkpt lat="37.561132302273855" lon="14.921505685954646"><ele>307.0</ele><time>2026-04-06T10:47:14.999Z</time></trkpt><trkpt lat="37.561277297464194" lon="14.921342445116819"><ele>307.0</ele><time>2026-04-06T10:47:15.999Z</time></trkpt><trkpt lat="37.56142998473638" lon="14.921180379084973"><ele>306.3333333333333</ele><time>2026-04-06T10:47:16.999Z</time></trkpt><trkpt lat="37.5615849051818" lon="14.921029904872793"><ele>305.6666666666667</ele><time>2026-04-06T10:47:17.999Z</time></trkpt><trkpt lat="37.56174466021769" lon="14.920888417216993"><ele>305.0</ele><time>2026-04-06T10:47:18.999Z</time></trkpt><trkpt lat="37.56191186831095" lon="14.920750637708318"><ele>304.0</ele><time>2026-04-06T10:47:19.999Z</time></trkpt><trkpt lat="37.56208260466588" lon="14.920616823174154"><ele>303.0</ele><time>2026-04-06T10:47:20.999Z</time></trkpt><trkpt lat="37.562252190437974" lon="14.920483831053282"><ele>302.0</ele><time>2026-04-06T10:47:21.999Z</time></trkpt><trkpt lat="37.562420778380414" lon="14.920348677604997"><ele>302.0</ele><time>2026-04-06T10:47:22.999Z</time></trkpt><trkpt lat="37.56258964484193" lon="14.920208415069993"><ele>302.0</ele><time>2026-04-06T10:47:23.999Z</time></trkpt><trkpt lat="37.56276197732569" lon="14.920070692922492"><ele>302.0</ele><time>2026-04-06T10:47:24.999Z</time></trkpt><trkpt lat="37.56293573203281" lon="14.919931393771783"><ele>301.6666666666667</ele><time>2026-04-06T10:47:25.999Z</time></trkpt><trkpt lat="37.56311298186093" lon="14.919792572607754"><ele>301.3333333333333</ele><time>2026-04-06T10:47:26.999Z</time></trkpt><trkpt lat="37.56329053170695" lon="14.919653251443199"><ele>301.0</ele><time>2026-04-06T10:47:27.999Z</time></trkpt><trkpt lat="37.563468290347" lon="14.91951346784709"><ele>301.0</ele><time>2026-04-06T10:47:28.999Z</time></trkpt><trkpt lat="37.56364681164568" lon="14.91937087162602"><ele>301.0</ele><time>2026-04-06T10:47:29.999Z</time></trkpt><trkpt lat="37.563825809181026" lon="14.919230169284008"><ele>301.0</ele><time>2026-04-06T10:47:30.999Z</time></trkpt><trkpt lat="37.56400663272929" lon="14.919086948906418"><ele>299.0</ele><time>2026-04-06T10:47:31.999Z</time></trkpt><trkpt lat="37.564186088058875" lon="14.918942278924648"><ele>297.0</ele><time>2026-04-06T10:47:32.999Z</time></trkpt><trkpt lat="37.564365033365846" lon="14.918796687336176"><ele>295.0</ele><time>2026-04-06T10:47:33.999Z</time></trkpt><trkpt lat="37.56454547807191" lon="14.918648011833392"><ele>294.0</ele><time>2026-04-06T10:47:34.999Z</time></trkpt><trkpt lat="37.56472244089533" lon="14.918504186287628"><ele>293.0</ele><time>2026-04-06T10:47:35.999Z</time></trkpt><trkpt lat="37.56490110222765" lon="14.918353107060268"><ele>292.0</ele><time>2026-04-06T10:47:36.999Z</time></trkpt><trkpt lat="37.56506776983106" lon="14.918216596120535"><ele>288.0</ele><time>2026-04-06T10:47:37.999Z</time></trkpt><trkpt lat="37.56523906667835" lon="14.918076963149854"><ele>284.0</ele><time>2026-04-06T10:47:38.999Z</time></trkpt><trkpt lat="37.56541486748786" lon="14.917939685923432"><ele>280.0</ele><time>2026-04-06T10:47:39.999Z</time></trkpt><trkpt lat="37.56558982142279" lon="14.917802275752322"><ele>279.66666666666663</ele><time>2026-04-06T10:47:40.999Z</time></trkpt><trkpt lat="37.56576354445261" lon="14.917667206325644"><ele>279.3333333333333</ele><time>2026-04-06T10:47:41.999Z</time></trkpt><trkpt lat="37.56593806367834" lon="14.917533799588096"><ele>279.0</ele><time>2026-04-06T10:47:42.999Z</time></trkpt><trkpt lat="37.56611230386979" lon="14.91740567825604"><ele>278.6666666666667</ele><time>2026-04-06T10:47:43.999Z</time></trkpt><trkpt lat="37.56629643469902" lon="14.917293722513019"><ele>278.33333333333337</ele><time>2026-04-06T10:47:44.999Z</time></trkpt><trkpt lat="37.566489386915" lon="14.917198241815257"><ele>278.0</ele><time>2026-04-06T10:47:45.999Z</time></trkpt><trkpt lat="37.56668351389627" lon="14.917116017417449"><ele>278.0</ele><time>2026-04-06T10:47:46.999Z</time></trkpt><trkpt lat="37.56687885067825" lon="14.917042929526488"><ele>278.0</ele><time>2026-04-06T10:47:47.999Z</time></trkpt><trkpt lat="37.567076830467016" lon="14.916981433337904"><ele>278.0</ele><time>2026-04-06T10:47:48.999Z</time></trkpt><trkpt lat="37.567272959633435" lon="14.916922197779503"><ele>278.33333333333337</ele><time>2026-04-06T10:47:49.999Z</time></trkpt><trkpt lat="37.56747032828399" lon="14.916864567083614"><ele>278.6666666666667</ele><time>2026-04-06T10:47:50.999Z</time></trkpt><trkpt lat="37.56767115770364" lon="14.916811558154373"><ele>279.0</ele><time>2026-04-06T10:47:51.999Z</time></trkpt><trkpt lat="37.56787148622092" lon="14.916756272466221"><ele>278.6666666666667</ele><time>2026-04-06T10:47:52.999Z</time></trkpt><trkpt lat="37.568072341955244" lon="14.916699285774719"><ele>278.33333333333337</ele><time>2026-04-06T10:47:53.999Z</time></trkpt><trkpt lat="37.56827414370646" lon="14.916640674761272"><ele>278.0</ele><time>2026-04-06T10:47:54.999Z</time></trkpt><trkpt lat="37.56847607579857" lon="14.916584619710424"><ele>278.0</ele><time>2026-04-06T10:47:55.999Z</time></trkpt><trkpt lat="37.5686800897832" lon="14.916528423900784"><ele>278.0</ele><time>2026-04-06T10:47:56.999Z</time></trkpt><trkpt lat="37.56888077184383" lon="14.916473142228796"><ele>278.0</ele><time>2026-04-06T10:47:57.999Z</time></trkpt><trkpt lat="37.56908252892189" lon="14.916419126206005"><ele>280.6666666666667</ele><time>2026-04-06T10:47:58.999Z</time></trkpt><trkpt lat="37.569284374087715" lon="14.9163611169855"><ele>283.3333333333333</ele><time>2026-04-06T10:47:59.999Z</time></trkpt><trkpt lat="37.569484124558876" lon="14.916300655821178"><ele>286.0</ele><time>2026-04-06T10:48:00.999Z</time></trkpt><trkpt lat="37.56968425312912" lon="14.916239059049728"><ele>286.0</ele><time>2026-04-06T10:48:01.999Z</time></trkpt><trkpt lat="37.569883001420884" lon="14.916178916166063"><ele>286.0</ele><time>2026-04-06T10:48:02.999Z</time></trkpt><trkpt lat="37.57008020879747" lon="14.916121171475865"><ele>286.0</ele><time>2026-04-06T10:48:03.999Z</time></trkpt><trkpt lat="37.57027730705975" lon="14.916072946806604"><ele>285.0</ele><time>2026-04-06T10:48:04.999Z</time></trkpt><trkpt lat="37.570476105432405" lon="14.916040859470215"><ele>284.0</ele><time>2026-04-06T10:48:05.999Z</time></trkpt><trkpt lat="37.570674186757245" lon="14.916023239773141"><ele>283.0</ele><time>2026-04-06T10:48:06.999Z</time></trkpt><trkpt lat="37.57086926868672" lon="14.916025799103872"><ele>283.0</ele><time>2026-04-06T10:48:07.999Z</time></trkpt><trkpt lat="37.57106793069193" lon="14.916048844639594"><ele>283.0</ele><time>2026-04-06T10:48:08.999Z</time></trkpt><trkpt lat="37.571265478694066" lon="14.916092587958675"><ele>283.0</ele><time>2026-04-06T10:48:09.999Z</time></trkpt><trkpt lat="37.571456055386136" lon="14.916150696609034"><ele>282.66666666666663</ele><time>2026-04-06T10:48:10.999Z</time></trkpt><trkpt lat="37.571639200385434" lon="14.916205704926611"><ele>282.3333333333333</ele><time>2026-04-06T10:48:11.999Z</time></trkpt><trkpt lat="37.5718092958367" lon="14.916260380494691"><ele>282.0</ele><time>2026-04-06T10:48:12.999Z</time></trkpt><trkpt lat="37.57197222206799" lon="14.916316247030982"><ele>281.6666666666667</ele><time>2026-04-06T10:48:13.999Z</time></trkpt><trkpt lat="37.57213362587405" lon="14.916360690141726"><ele>281.33333333333337</ele><time>2026-04-06T10:48:14.998Z</time></trkpt><trkpt lat="37.57229261281478" lon="14.91643291608743"><ele>281.0</ele><time>2026-04-06T10:48:15.998Z</time></trkpt><trkpt lat="37.572455176386406" lon="14.916485145061351"><ele>281.0</ele><time>2026-04-06T10:48:16.998Z</time></trkpt><trkpt lat="37.572618063967965" lon="14.916537478132671"><ele>281.0</ele><time>2026-04-06T10:48:17.998Z</time></trkpt><trkpt lat="37.57278006110608" lon="14.916589409794927"><ele>281.0</ele><time>2026-04-06T10:48:18.998Z</time></trkpt><trkpt lat="37.57294347172209" lon="14.916641594207073"><ele>280.33333333333337</ele><time>2026-04-06T10:48:19.998Z</time></trkpt><trkpt lat="37.5731058801261" lon="14.916693816905795"><ele>279.6666666666667</ele><time>2026-04-06T10:48:20.998Z</time></trkpt><trkpt lat="37.57327126339637" lon="14.916747815872757"><ele>279.0</ele><time>2026-04-06T10:48:21.998Z</time></trkpt><trkpt lat="37.573438632308935" lon="14.91680267359657"><ele>285.0</ele><time>2026-04-06T10:48:22.998Z</time></trkpt><trkpt lat="37.573608153824736" lon="14.916860073970927"><ele>291.0</ele><time>2026-04-06T10:48:23.998Z</time></trkpt><trkpt lat="37.57377732415757" lon="14.916922621269906"><ele>297.0</ele><time>2026-04-06T10:48:24.998Z</time></trkpt><trkpt lat="37.57394774971135" lon="14.916974504727264"><ele>297.0</ele><time>2026-04-06T10:48:25.998Z</time></trkpt><trkpt lat="37.57410763611202" lon="14.917059918419804"><ele>297.0</ele><time>2026-04-06T10:48:26.998Z</time></trkpt><trkpt lat="37.57426918392838" lon="14.917143204190989"><ele>297.0</ele><time>2026-04-06T10:48:27.998Z</time></trkpt><trkpt lat="37.574430939458814" lon="14.917228567077156"><ele>296.3333333333333</ele><time>2026-04-06T10:48:28.998Z</time></trkpt><trkpt lat="37.57459143326169" lon="14.917315384456014"><ele>295.66666666666663</ele><time>2026-04-06T10:48:29.998Z</time></trkpt><trkpt lat="37.57475120321716" lon="14.917403534893632"><ele>295.0</ele><time>2026-04-06T10:48:30.998Z</time></trkpt><trkpt lat="37.57491120672586" lon="14.91749159078357"><ele>296.0</ele><time>2026-04-06T10:48:31.998Z</time></trkpt><trkpt lat="37.5750701963602" lon="14.917576939365864"><ele>297.0</ele><time>2026-04-06T10:48:32.998Z</time></trkpt><trkpt lat="37.575225193815" lon="14.917660048301679"><ele>298.0</ele><time>2026-04-06T10:48:33.998Z</time></trkpt><trkpt lat="37.575372744120116" lon="14.917761126247767"><ele>299.0</ele><time>2026-04-06T10:48:34.998Z</time></trkpt><trkpt lat="37.57552626799646" lon="14.917846866183236"><ele>300.0</ele><time>2026-04-06T10:48:35.998Z</time></trkpt><trkpt lat="37.57567999295228" lon="14.917933092344613"><ele>301.0</ele><time>2026-04-06T10:48:36.998Z</time></trkpt><trkpt lat="37.57583729451997" lon="14.918021202236858"><ele>301.0</ele><time>2026-04-06T10:48:37.998Z</time></trkpt><trkpt lat="37.57599777830337" lon="14.91811135644462"><ele>301.0</ele><time>2026-04-06T10:48:38.998Z</time></trkpt><trkpt lat="37.57615769682045" lon="14.9182006621714"><ele>301.0</ele><time>2026-04-06T10:48:39.998Z</time></trkpt><trkpt lat="37.57631921918354" lon="14.918290863548922"><ele>300.66666666666663</ele><time>2026-04-06T10:48:40.998Z</time></trkpt><trkpt lat="37.576482078070626" lon="14.918381811300582"><ele>300.3333333333333</ele><time>2026-04-06T10:48:41.998Z</time></trkpt><trkpt lat="37.576646868004175" lon="14.918473837434814"><ele>300.0</ele><time>2026-04-06T10:48:42.998Z</time></trkpt><trkpt lat="37.57680719203866" lon="14.918562691674966"><ele>301.0</ele><time>2026-04-06T10:48:43.998Z</time></trkpt><trkpt lat="37.57696223716653" lon="14.918641018751105"><ele>302.0</ele><time>2026-04-06T10:48:44.998Z</time></trkpt><trkpt lat="37.577119897601314" lon="14.918691549936447"><ele>303.0</ele><time>2026-04-06T10:48:45.998Z</time></trkpt><trkpt lat="37.57727786041906" lon="14.91874616888551"><ele>303.6666666666667</ele><time>2026-04-06T10:48:46.998Z</time></trkpt><trkpt lat="37.57744377614124" lon="14.918789340908141"><ele>304.33333333333337</ele><time>2026-04-06T10:48:47.998Z</time></trkpt><trkpt lat="37.57760970132059" lon="14.918837623170777"><ele>305.0</ele><time>2026-04-06T10:48:48.998Z</time></trkpt><trkpt lat="37.577779170671754" lon="14.918855240853295"><ele>306.33333333333337</ele><time>2026-04-06T10:48:49.998Z</time></trkpt><trkpt lat="37.57794905707254" lon="14.918860341539995"><ele>307.6666666666667</ele><time>2026-04-06T10:48:50.998Z</time></trkpt><trkpt lat="37.57812000065076" lon="14.918852200493118"><ele>309.0</ele><time>2026-04-06T10:48:51.998Z</time></trkpt><trkpt lat="37.57829126626664" lon="14.91883242820401"><ele>309.0</ele><time>2026-04-06T10:48:52.998Z</time></trkpt><trkpt lat="37.578464957019534" lon="14.918793217997676"><ele>309.0</ele><time>2026-04-06T10:48:53.998Z</time></trkpt><trkpt lat="37.578641544869654" lon="14.918735967055543"><ele>309.0</ele><time>2026-04-06T10:48:54.998Z</time></trkpt><trkpt lat="37.57881534745717" lon="14.918656849815692"><ele>309.6666666666667</ele><time>2026-04-06T10:48:55.998Z</time></trkpt><trkpt lat="37.57899649837001" lon="14.918595945956392"><ele>310.33333333333337</ele><time>2026-04-06T10:48:56.998Z</time></trkpt><trkpt lat="37.579178470749895" lon="14.918531258445805"><ele>311.0</ele><time>2026-04-06T10:48:57.998Z</time></trkpt><trkpt lat="37.57936106593434" lon="14.918465182109058"><ele>312.33333333333337</ele><time>2026-04-06T10:48:58.998Z</time></trkpt><trkpt lat="37.579550885347224" lon="14.918419342341203"><ele>313.6666666666667</ele><time>2026-04-06T10:48:59.998Z</time></trkpt><trkpt lat="37.5797384745871" lon="14.918353180691845"><ele>315.0</ele><time>2026-04-06T10:49:00.998Z</time></trkpt><trkpt lat="37.57992690756151" lon="14.918286720154473"><ele>315.0</ele><time>2026-04-06T10:49:01.998Z</time></trkpt><trkpt lat="37.58011977152116" lon="14.918218696785944"><ele>315.0</ele><time>2026-04-06T10:49:02.998Z</time></trkpt><trkpt lat="37.58031421337107" lon="14.918150116914507"><ele>315.0</ele><time>2026-04-06T10:49:03.998Z</time></trkpt><trkpt lat="37.580506052266" lon="14.918060912667343"><ele>315.6666666666667</ele><time>2026-04-06T10:49:04.999Z</time></trkpt><trkpt lat="37.580705292895054" lon="14.91799207956947"><ele>316.33333333333337</ele><time>2026-04-06T10:49:05.999Z</time></trkpt><trkpt lat="37.58090471602314" lon="14.917921085565144"><ele>317.0</ele><time>2026-04-06T10:49:06.999Z</time></trkpt><trkpt lat="37.58110760149648" lon="14.917870287917854"><ele>318.6666666666667</ele><time>2026-04-06T10:49:07.999Z</time></trkpt><trkpt lat="37.58130679103621" lon="14.917800033535295"><ele>320.3333333333333</ele><time>2026-04-06T10:49:08.999Z</time></trkpt><trkpt lat="37.58150618190179" lon="14.917729708112807"><ele>322.0</ele><time>2026-04-06T10:49:09.999Z</time></trkpt><trkpt lat="37.58170580830514" lon="14.917659299648994"><ele>322.0</ele><time>2026-04-06T10:49:10.999Z</time></trkpt><trkpt lat="37.581905865026485" lon="14.917588280642175"><ele>322.0</ele><time>2026-04-06T10:49:11.999Z</time></trkpt><trkpt lat="37.58210118247019" lon="14.91750057925968"><ele>322.0</ele><time>2026-04-06T10:49:12.999Z</time></trkpt><trkpt lat="37.582302805110245" lon="14.91743689873924"><ele>321.3333333333333</ele><time>2026-04-06T10:49:13.999Z</time></trkpt><trkpt lat="37.58249721026292" lon="14.917370447101407"><ele>320.6666666666667</ele><time>2026-04-06T10:49:14.999Z</time></trkpt><trkpt lat="37.58267840619031" lon="14.917305355385619"><ele>320.0</ele><time>2026-04-06T10:49:15.999Z</time></trkpt><trkpt lat="37.582858902602325" lon="14.917246006328167"><ele>322.6666666666667</ele><time>2026-04-06T10:49:16.999Z</time></trkpt><trkpt lat="37.58303748866269" lon="14.917183853308796"><ele>325.3333333333333</ele><time>2026-04-06T10:49:17.999Z</time></trkpt><trkpt lat="37.58321274205453" lon="14.917118198563328"><ele>328.0</ele><time>2026-04-06T10:49:18.999Z</time></trkpt><trkpt lat="37.583387959341245" lon="14.917053973053935"><ele>328.0</ele><time>2026-04-06T10:49:19.999Z</time></trkpt><trkpt lat="37.58356418252031" lon="14.916990258671676"><ele>328.0</ele><time>2026-04-06T10:49:20.999Z</time></trkpt><trkpt lat="37.583739729173814" lon="14.91692622245484"><ele>328.0</ele><time>2026-04-06T10:49:21.999Z</time></trkpt><trkpt lat="37.58391723064609" lon="14.916871900904239"><ele>328.0</ele><time>2026-04-06T10:49:22.999Z</time></trkpt><trkpt lat="37.58409837393114" lon="14.916818275786751"><ele>328.0</ele><time>2026-04-06T10:49:23.999Z</time></trkpt><trkpt lat="37.58427647845952" lon="14.916759856166768"><ele>328.0</ele><time>2026-04-06T10:49:24.999Z</time></trkpt><trkpt lat="37.58445303916346" lon="14.916699779838057"><ele>328.66666666666663</ele><time>2026-04-06T10:49:25.999Z</time></trkpt><trkpt lat="37.58463213495722" lon="14.916643502939406"><ele>329.3333333333333</ele><time>2026-04-06T10:49:26.999Z</time></trkpt><trkpt lat="37.58481233441642" lon="14.916597171312297"><ele>330.0</ele><time>2026-04-06T10:49:27.999Z</time></trkpt><trkpt lat="37.58499566491654" lon="14.916556835423684"><ele>330.0</ele><time>2026-04-06T10:49:28.999Z</time></trkpt><trkpt lat="37.58518084470772" lon="14.916522024486895"><ele>330.0</ele><time>2026-04-06T10:49:29.999Z</time></trkpt><trkpt lat="37.58536630635389" lon="14.91648802161781"><ele>330.0</ele><time>2026-04-06T10:49:30.999Z</time></trkpt><trkpt lat="37.58555126860813" lon="14.916455340121715"><ele>330.0</ele><time>2026-04-06T10:49:31.999Z</time></trkpt><trkpt lat="37.58573773246156" lon="14.916425537832522"><ele>330.0</ele><time>2026-04-06T10:49:32.999Z</time></trkpt><trkpt lat="37.585922836303865" lon="14.9164042040478"><ele>330.0</ele><time>2026-04-06T10:49:33.999Z</time></trkpt><trkpt lat="37.58610852311329" lon="14.916385813433"><ele>332.0</ele><time>2026-04-06T10:49:34.999Z</time></trkpt><trkpt lat="37.586289430264934" lon="14.916370999447256"><ele>334.0</ele><time>2026-04-06T10:49:35.999Z</time></trkpt><trkpt lat="37.586452703149725" lon="14.916353051372912"><ele>336.0</ele><time>2026-04-06T10:49:36.999Z</time></trkpt><trkpt lat="37.586602731648895" lon="14.916332825967784"><ele>336.0</ele><time>2026-04-06T10:49:37.999Z</time></trkpt><trkpt lat="37.58674546503953" lon="14.91631720123732"><ele>336.0</ele><time>2026-04-06T10:49:38.999Z</time></trkpt><trkpt lat="37.58689286567954" lon="14.916303513726323"><ele>336.0</ele><time>2026-04-06T10:49:39.999Z</time></trkpt><trkpt lat="37.58704036748242" lon="14.916292870138976"><ele>336.0</ele><time>2026-04-06T10:49:40.999Z</time></trkpt><trkpt lat="37.587191280444124" lon="14.916279219856262"><ele>337.3333333333333</ele><time>2026-04-06T10:49:41.999Z</time></trkpt><trkpt lat="37.58734530190754" lon="14.91626378131902"><ele>338.66666666666663</ele><time>2026-04-06T10:49:42.999Z</time></trkpt><trkpt lat="37.58750188701066" lon="14.916248039631256"><ele>340.0</ele><time>2026-04-06T10:49:43.999Z</time></trkpt><trkpt lat="37.587663445760306" lon="14.91623008197757"><ele>340.0</ele><time>2026-04-06T10:49:44.999Z</time></trkpt><trkpt lat="37.58782671320387" lon="14.916211172646404"><ele>340.0</ele><time>2026-04-06T10:49:45.999Z</time></trkpt><trkpt lat="37.58799500346819" lon="14.916198790531435"><ele>340.0</ele><time>2026-04-06T10:49:46.999Z</time></trkpt><trkpt lat="37.588165738694066" lon="14.91618841287297"><ele>343.3333333333333</ele><time>2026-04-06T10:49:47.999Z</time></trkpt><trkpt lat="37.5883397051234" lon="14.916172252696633"><ele>346.6666666666667</ele><time>2026-04-06T10:49:48.999Z</time></trkpt><trkpt lat="37.58851377645157" lon="14.91615465955406"><ele>350.0</ele><time>2026-04-06T10:49:49.999Z</time></trkpt><trkpt lat="37.588691713584474" lon="14.916134071065391"><ele>350.0</ele><time>2026-04-06T10:49:50.999Z</time></trkpt><trkpt lat="37.588866846082986" lon="14.9161118446396"><ele>350.0</ele><time>2026-04-06T10:49:51.999Z</time></trkpt><trkpt lat="37.58904538840252" lon="14.916086912441555"><ele>350.0</ele><time>2026-04-06T10:49:52.999Z</time></trkpt><trkpt lat="37.58922318336236" lon="14.916063027738238"><ele>350.0</ele><time>2026-04-06T10:49:53.999Z</time></trkpt><trkpt lat="37.58940030073207" lon="14.916035339419018"><ele>350.0</ele><time>2026-04-06T10:49:54.999Z</time></trkpt><trkpt lat="37.58957814242065" lon="14.916005125806109"><ele>350.0</ele><time>2026-04-06T10:49:55.999Z</time></trkpt><trkpt lat="37.58975642287469" lon="14.91597424216663"><ele>350.6666666666667</ele><time>2026-04-06T10:49:56.999Z</time></trkpt><trkpt lat="37.58993310016149" lon="14.915934447065125"><ele>351.3333333333333</ele><time>2026-04-06T10:49:57.999Z</time></trkpt><trkpt lat="37.59010856371814" lon="14.91588235279935"><ele>352.0</ele><time>2026-04-06T10:49:58.999Z</time></trkpt><trkpt lat="37.59028172035804" lon="14.915819758231368"><ele>353.3333333333333</ele><time>2026-04-06T10:49:59.999Z</time></trkpt><trkpt lat="37.59045450330186" lon="14.91574855210516"><ele>354.6666666666667</ele><time>2026-04-06T10:50:00.999Z</time></trkpt><trkpt lat="37.59062785075044" lon="14.91567028203396"><ele>356.0</ele><time>2026-04-06T10:50:01.999Z</time></trkpt><trkpt lat="37.59079851961206" lon="14.91558625160077"><ele>356.0</ele><time>2026-04-06T10:50:02.999Z</time></trkpt><trkpt lat="37.59097136621719" lon="14.915498620900953"><ele>356.0</ele><time>2026-04-06T10:50:03.999Z</time></trkpt><trkpt lat="37.59114477719108" lon="14.915407094777782"><ele>356.0</ele><time>2026-04-06T10:50:04.999Z</time></trkpt><trkpt lat="37.59131645956526" lon="14.915312948908031"><ele>356.33333333333337</ele><time>2026-04-06T10:50:05.999Z</time></trkpt><trkpt lat="37.591486801587166" lon="14.915218504179764"><ele>356.6666666666667</ele><time>2026-04-06T10:50:06.999Z</time></trkpt><trkpt lat="37.59165773236922" lon="14.915124378136886"><ele>357.0</ele><time>2026-04-06T10:50:07.999Z</time></trkpt><trkpt lat="37.59182822827953" lon="14.9150274707774"><ele>357.0</ele><time>2026-04-06T10:50:08.999Z</time></trkpt><trkpt lat="37.591999846430745" lon="14.91493037189231"><ele>357.0</ele><time>2026-04-06T10:50:09.999Z</time></trkpt><trkpt lat="37.59217097407879" lon="14.914831918462017"><ele>357.0</ele><time>2026-04-06T10:50:10.999Z</time></trkpt><trkpt lat="37.59234520487376" lon="14.914733703112336"><ele>357.6666666666667</ele><time>2026-04-06T10:50:11.999Z</time></trkpt><trkpt lat="37.592519298123236" lon="14.914637557444118"><ele>358.33333333333337</ele><time>2026-04-06T10:50:12.999Z</time></trkpt><trkpt lat="37.59269715486615" lon="14.914541264346678"><ele>359.0</ele><time>2026-04-06T10:50:13.999Z</time></trkpt><trkpt lat="37.59287254140049" lon="14.914446674558112"><ele>360.0</ele><time>2026-04-06T10:50:14.999Z</time></trkpt><trkpt lat="37.59304845754276" lon="14.914349848078064"><ele>361.0</ele><time>2026-04-06T10:50:15.999Z</time></trkpt><trkpt lat="37.59322079730996" lon="14.914254412130973"><ele>362.0</ele><time>2026-04-06T10:50:16.999Z</time></trkpt><trkpt lat="37.59339406946121" lon="14.914159213818417"><ele>362.0</ele><time>2026-04-06T10:50:17.999Z</time></trkpt><trkpt lat="37.59356609291439" lon="14.914065776548815"><ele>362.0</ele><time>2026-04-06T10:50:18.999Z</time></trkpt><trkpt lat="37.593736768841126" lon="14.913971488772654"><ele>362.0</ele><time>2026-04-06T10:50:19.999Z</time></trkpt><trkpt lat="37.593904995205385" lon="14.91387672635351"><ele>363.33333333333337</ele><time>2026-04-06T10:50:20.999Z</time></trkpt><trkpt lat="37.594070769796765" lon="14.913779550830037"><ele>364.6666666666667</ele><time>2026-04-06T10:50:21.999Z</time></trkpt><trkpt lat="37.59423568125209" lon="14.913681697657346"><ele>366.0</ele><time>2026-04-06T10:50:22.998Z</time></trkpt><trkpt lat="37.59440074159443" lon="14.91358705856846"><ele>367.0</ele><time>2026-04-06T10:50:23.998Z</time></trkpt><trkpt lat="37.59456606993897" lon="14.913496421779135"><ele>368.0</ele><time>2026-04-06T10:50:24.998Z</time></trkpt><trkpt lat="37.594734873195755" lon="14.913403767192376"><ele>369.0</ele><time>2026-04-06T10:50:25.998Z</time></trkpt><trkpt lat="37.594906010551206" lon="14.91330634319971"><ele>368.3333333333333</ele><time>2026-04-06T10:50:26.998Z</time></trkpt><trkpt lat="37.59507588976802" lon="14.913209658313733"><ele>367.66666666666663</ele><time>2026-04-06T10:50:27.998Z</time></trkpt><trkpt lat="37.59524722192197" lon="14.913116183641083"><ele>367.0</ele><time>2026-04-06T10:50:28.998Z</time></trkpt><trkpt lat="37.59541831548871" lon="14.913027046990184"><ele>367.0</ele><time>2026-04-06T10:50:29.998Z</time></trkpt><trkpt lat="37.59559002096692" lon="14.912938407165575"><ele>367.0</ele><time>2026-04-06T10:50:30.998Z</time></trkpt><trkpt lat="37.59576107410969" lon="14.912847601651254"><ele>367.0</ele><time>2026-04-06T10:50:31.998Z</time></trkpt><trkpt lat="37.5959305600259" lon="14.912754447927732"><ele>367.0</ele><time>2026-04-06T10:50:32.998Z</time></trkpt><trkpt lat="37.59610504380018" lon="14.912657009117895"><ele>367.0</ele><time>2026-04-06T10:50:33.998Z</time></trkpt><trkpt lat="37.59627778131433" lon="14.912561800678848"><ele>367.0</ele><time>2026-04-06T10:50:34.998Z</time></trkpt><trkpt lat="37.596448824248434" lon="14.912466621364754"><ele>365.66666666666663</ele><time>2026-04-06T10:50:35.998Z</time></trkpt><trkpt lat="37.59661782697077" lon="14.912371457740875"><ele>364.3333333333333</ele><time>2026-04-06T10:50:36.998Z</time></trkpt><trkpt lat="37.59678613792999" lon="14.912277950576485"><ele>363.0</ele><time>2026-04-06T10:50:37.998Z</time></trkpt><trkpt lat="37.59695037395857" lon="14.912186007282617"><ele>364.6666666666667</ele><time>2026-04-06T10:50:38.998Z</time></trkpt><trkpt lat="37.597117799381536" lon="14.912091599428743"><ele>366.33333333333337</ele><time>2026-04-06T10:50:39.998Z</time></trkpt><trkpt lat="37.597283613734604" lon="14.911999737749243"><ele>368.0</ele><time>2026-04-06T10:50:40.998Z</time></trkpt><trkpt lat="37.59745025267345" lon="14.911907743328713"><ele>368.0</ele><time>2026-04-06T10:50:41.998Z</time></trkpt><trkpt lat="37.597617337432354" lon="14.911818062795401"><ele>368.0</ele><time>2026-04-06T10:50:42.998Z</time></trkpt><trkpt lat="37.59778416038582" lon="14.911733429278335"><ele>368.0</ele><time>2026-04-06T10:50:43.998Z</time></trkpt><trkpt lat="37.59795211242968" lon="14.911656199116583"><ele>368.6666666666667</ele><time>2026-04-06T10:50:44.998Z</time></trkpt><trkpt lat="37.59812221525133" lon="14.911590912438564"><ele>369.3333333333333</ele><time>2026-04-06T10:50:45.998Z</time></trkpt><trkpt lat="37.59829381897329" lon="14.911530575822471"><ele>370.0</ele><time>2026-04-06T10:50:46.998Z</time></trkpt><trkpt lat="37.598467699168864" lon="14.911479519562315"><ele>370.0</ele><time>2026-04-06T10:50:47.998Z</time></trkpt><trkpt lat="37.59864444680218" lon="14.911442219212718"><ele>370.0</ele><time>2026-04-06T10:50:48.998Z</time></trkpt><trkpt lat="37.59882177336825" lon="14.911410806688325"><ele>370.0</ele><time>2026-04-06T10:50:49.998Z</time></trkpt><trkpt lat="37.59899813454413" lon="14.91138831311824"><ele>372.3333333333333</ele><time>2026-04-06T10:50:50.998Z</time></trkpt><trkpt lat="37.59917476558467" lon="14.911374628779601"><ele>374.6666666666667</ele><time>2026-04-06T10:50:51.998Z</time></trkpt><trkpt lat="37.599352090674124" lon="14.911372349313423"><ele>377.0</ele><time>2026-04-06T10:50:52.998Z</time></trkpt><trkpt lat="37.59953024952532" lon="14.911373803284807"><ele>379.33333333333337</ele><time>2026-04-06T10:50:53.998Z</time></trkpt><trkpt lat="37.59970888128414" lon="14.911387009409415"><ele>381.6666666666667</ele><time>2026-04-06T10:50:54.998Z</time></trkpt><trkpt lat="37.59988844776451" lon="14.911404180749503"><ele>384.0</ele><time>2026-04-06T10:50:55.998Z</time></trkpt><trkpt lat="37.60006803121344" lon="14.91140893956464"><ele>384.0</ele><time>2026-04-06T10:50:56.998Z</time></trkpt><trkpt lat="37.600248413459454" lon="14.911412255255737"><ele>384.0</ele><time>2026-04-06T10:50:57.998Z</time></trkpt><trkpt lat="37.600426539124875" lon="14.91142318716318"><ele>384.0</ele><time>2026-04-06T10:50:58.998Z</time></trkpt><trkpt lat="37.60060489586851" lon="14.911433033185073"><ele>385.0</ele><time>2026-04-06T10:50:59.998Z</time></trkpt><trkpt lat="37.60078027297911" lon="14.911436780952721"><ele>386.0</ele><time>2026-04-06T10:51:00.998Z</time></trkpt><trkpt lat="37.60095641232181" lon="14.911439233304577"><ele>387.0</ele><time>2026-04-06T10:51:01.998Z</time></trkpt><trkpt lat="37.601133550327916" lon="14.911447114499321"><ele>387.66666666666663</ele><time>2026-04-06T10:51:02.998Z</time></trkpt><trkpt lat="37.60130980237606" lon="14.911451130383542"><ele>388.3333333333333</ele><time>2026-04-06T10:51:03.998Z</time></trkpt><trkpt lat="37.60148442417396" lon="14.911457222300232"><ele>389.0</ele><time>2026-04-06T10:51:04.998Z</time></trkpt><trkpt lat="37.60166093460791" lon="14.91146403044006"><ele>389.0</ele><time>2026-04-06T10:51:05.998Z</time></trkpt><trkpt lat="37.60183655140735" lon="14.91147489059916"><ele>389.0</ele><time>2026-04-06T10:51:06.998Z</time></trkpt><trkpt lat="37.602015913938374" lon="14.911484548882612"><ele>389.0</ele><time>2026-04-06T10:51:07.998Z</time></trkpt><trkpt lat="37.60219565103437" lon="14.911491026082775"><ele>390.3333333333333</ele><time>2026-04-06T10:51:08.998Z</time></trkpt><trkpt lat="37.60237415935465" lon="14.911493904353646"><ele>391.66666666666663</ele><time>2026-04-06T10:51:09.998Z</time></trkpt><trkpt lat="37.60255553536455" lon="14.911499597186308"><ele>393.0</ele><time>2026-04-06T10:51:10.999Z</time></trkpt><trkpt lat="37.60273687069749" lon="14.911506210708904"><ele>394.0</ele><time>2026-04-06T10:51:11.999Z</time></trkpt><trkpt lat="37.60291639849945" lon="14.91150884184448"><ele>395.0</ele><time>2026-04-06T10:51:12.999Z</time></trkpt><trkpt lat="37.6030977909127" lon="14.911512552997964"><ele>396.0</ele><time>2026-04-06T10:51:13.999Z</time></trkpt><trkpt lat="37.60328044720621" lon="14.911518271334929"><ele>396.0</ele><time>2026-04-06T10:51:14.999Z</time></trkpt><trkpt lat="37.603463082361436" lon="14.911520830046896"><ele>396.0</ele><time>2026-04-06T10:51:15.999Z</time></trkpt><trkpt lat="37.60364736011036" lon="14.911513096872916"><ele>396.0</ele><time>2026-04-06T10:51:16.999Z</time></trkpt><trkpt lat="37.60382949311687" lon="14.911483730326056"><ele>397.0</ele><time>2026-04-06T10:51:17.999Z</time></trkpt><trkpt lat="37.604011778003496" lon="14.911436100607661"><ele>398.0</ele><time>2026-04-06T10:51:18.999Z</time></trkpt><trkpt lat="37.604189013616526" lon="14.911363688647361"><ele>399.0</ele><time>2026-04-06T10:51:19.999Z</time></trkpt><trkpt lat="37.60436396266952" lon="14.91127586038501"><ele>400.33333333333337</ele><time>2026-04-06T10:51:20.999Z</time></trkpt><trkpt lat="37.60453541557649" lon="14.911173537986997"><ele>401.6666666666667</ele><time>2026-04-06T10:51:21.999Z</time></trkpt><trkpt lat="37.604701563595164" lon="14.911060835977935"><ele>403.0</ele><time>2026-04-06T10:51:22.999Z</time></trkpt><trkpt lat="37.604861848472375" lon="14.910936328725272"><ele>404.0</ele><time>2026-04-06T10:51:23.999Z</time></trkpt><trkpt lat="37.60501913812435" lon="14.910799198822321"><ele>405.0</ele><time>2026-04-06T10:51:24.999Z</time></trkpt><trkpt lat="37.60517431519898" lon="14.910659123363645"><ele>406.0</ele><time>2026-04-06T10:51:25.999Z</time></trkpt><trkpt lat="37.605332402078126" lon="14.910520230410206"><ele>409.0</ele><time>2026-04-06T10:51:26.999Z</time></trkpt><trkpt lat="37.60549245955047" lon="14.910385147968716"><ele>412.0</ele><time>2026-04-06T10:51:27.999Z</time></trkpt><trkpt lat="37.60565445854495" lon="14.910249569947991"><ele>415.0</ele><time>2026-04-06T10:51:28.999Z</time></trkpt><trkpt lat="37.605814647182726" lon="14.910114937473328"><ele>414.33333333333337</ele><time>2026-04-06T10:51:29.999Z</time></trkpt><trkpt lat="37.605973531183785" lon="14.909980470505905"><ele>413.66666666666663</ele><time>2026-04-06T10:51:30.999Z</time></trkpt><trkpt lat="37.60613420401145" lon="14.909843501120731"><ele>413.0</ele><time>2026-04-06T10:51:31.999Z</time></trkpt><trkpt lat="37.60629431620757" lon="14.909708354730169"><ele>414.66666666666663</ele><time>2026-04-06T10:51:32.999Z</time></trkpt><trkpt lat="37.60645680723126" lon="14.909572125140109"><ele>416.33333333333337</ele><time>2026-04-06T10:51:33.999Z</time></trkpt><trkpt lat="37.60661842403587" lon="14.909435460101308"><ele>418.0</ele><time>2026-04-06T10:51:34.999Z</time></trkpt><trkpt lat="37.60677987695695" lon="14.909295910517045"><ele>416.6666666666667</ele><time>2026-04-06T10:51:35.999Z</time></trkpt><trkpt lat="37.606940746855834" lon="14.909154973700941"><ele>415.33333333333337</ele><time>2026-04-06T10:51:36.999Z</time></trkpt><trkpt lat="37.607103747185434" lon="14.909013120506982"><ele>414.0</ele><time>2026-04-06T10:51:37.999Z</time></trkpt><trkpt lat="37.60726728295592" lon="14.908873648813557"><ele>417.33333333333337</ele><time>2026-04-06T10:51:38.999Z</time></trkpt><trkpt lat="37.60743101969097" lon="14.908733855147227"><ele>420.6666666666667</ele><time>2026-04-06T10:51:39.999Z</time></trkpt><trkpt lat="37.607595288021635" lon="14.908593207199596"><ele>424.0</ele><time>2026-04-06T10:51:40.999Z</time></trkpt><trkpt lat="37.60775860695494" lon="14.908451593172712"><ele>425.0</ele><time>2026-04-06T10:51:41.999Z</time></trkpt><trkpt lat="37.60792180894496" lon="14.90831218335919"><ele>426.0</ele><time>2026-04-06T10:51:42.999Z</time></trkpt><trkpt lat="37.60808412644304" lon="14.908171346466125"><ele>427.0</ele><time>2026-04-06T10:51:43.999Z</time></trkpt><trkpt lat="37.60824725923563" lon="14.90803081205216"><ele>427.0</ele><time>2026-04-06T10:51:44.999Z</time></trkpt><trkpt lat="37.60840810376432" lon="14.907892718493908"><ele>427.0</ele><time>2026-04-06T10:51:45.999Z</time></trkpt><trkpt lat="37.60856650829642" lon="14.907755244898883"><ele>427.0</ele><time>2026-04-06T10:51:46.999Z</time></trkpt><trkpt lat="37.60872460367003" lon="14.90761821368758"><ele>428.33333333333337</ele><time>2026-04-06T10:51:47.999Z</time></trkpt><trkpt lat="37.60888246830898" lon="14.907479342671273"><ele>429.66666666666663</ele><time>2026-04-06T10:51:48.999Z</time></trkpt><trkpt lat="37.609039478034816" lon="14.907339142216715"><ele>431.0</ele><time>2026-04-06T10:51:49.999Z</time></trkpt><trkpt lat="37.6092005264234" lon="14.907201063092911"><ele>431.0</ele><time>2026-04-06T10:51:50.999Z</time></trkpt><trkpt lat="37.609358525359625" lon="14.907063548097307"><ele>431.0</ele><time>2026-04-06T10:51:51.999Z</time></trkpt><trkpt lat="37.60951369136728" lon="14.906926113963529"><ele>431.0</ele><time>2026-04-06T10:51:52.999Z</time></trkpt><trkpt lat="37.60966714190337" lon="14.906795044273112"><ele>432.0</ele><time>2026-04-06T10:51:53.999Z</time></trkpt><trkpt lat="37.60981944780265" lon="14.906660726218353"><ele>433.0</ele><time>2026-04-06T10:51:54.999Z</time></trkpt><trkpt lat="37.609969968415356" lon="14.906529338369042"><ele>434.0</ele><time>2026-04-06T10:51:55.999Z</time></trkpt><trkpt lat="37.61012123753207" lon="14.906399915024851"><ele>434.0</ele><time>2026-04-06T10:51:56.999Z</time></trkpt><trkpt lat="37.61027069759562" lon="14.906274751769114"><ele>434.0</ele><time>2026-04-06T10:51:57.999Z</time></trkpt><trkpt lat="37.61041853628234" lon="14.906149560799435"><ele>434.0</ele><time>2026-04-06T10:51:58.999Z</time></trkpt><trkpt lat="37.61056138168922" lon="14.906022531536925"><ele>436.3333333333333</ele><time>2026-04-06T10:51:59.999Z</time></trkpt><trkpt lat="37.61070090442474" lon="14.905898733922617"><ele>438.66666666666663</ele><time>2026-04-06T10:52:00.999Z</time></trkpt><trkpt lat="37.61084792096215" lon="14.905777611108013"><ele>441.0</ele><time>2026-04-06T10:52:01.999Z</time></trkpt><trkpt lat="37.61100021350272" lon="14.905651948183618"><ele>441.0</ele><time>2026-04-06T10:52:02.999Z</time></trkpt><trkpt lat="37.611147738759826" lon="14.905517224374435"><ele>441.0</ele><time>2026-04-06T10:52:03.999Z</time></trkpt><trkpt lat="37.61129506685977" lon="14.905381956892846"><ele>441.0</ele><time>2026-04-06T10:52:04.999Z</time></trkpt><trkpt lat="37.61145336565843" lon="14.905264182456904"><ele>441.0</ele><time>2026-04-06T10:52:05.999Z</time></trkpt><trkpt lat="37.61160554327375" lon="14.905133047622774"><ele>441.0</ele><time>2026-04-06T10:52:06.999Z</time></trkpt><trkpt lat="37.61175850556383" lon="14.905001908621022"><ele>441.0</ele><time>2026-04-06T10:52:07.999Z</time></trkpt><trkpt lat="37.611910629040516" lon="14.904861541927778"><ele>441.0</ele><time>2026-04-06T10:52:08.999Z</time></trkpt><trkpt lat="37.612069553955784" lon="14.904737662072716"><ele>441.0</ele><time>2026-04-06T10:52:09.999Z</time></trkpt><trkpt lat="37.612223928863806" lon="14.904607296684816"><ele>441.0</ele><time>2026-04-06T10:52:10.999Z</time></trkpt><trkpt lat="37.61237370327989" lon="14.904473717257826"><ele>441.0</ele><time>2026-04-06T10:52:11.999Z</time></trkpt><trkpt lat="37.612521492892704" lon="14.904341730411089"><ele>441.0</ele><time>2026-04-06T10:52:12.999Z</time></trkpt><trkpt lat="37.612671315438234" lon="14.904210926344886"><ele>441.0</ele><time>2026-04-06T10:52:13.999Z</time></trkpt><trkpt lat="37.61282513212586" lon="14.904082602134054"><ele>443.66666666666663</ele><time>2026-04-06T10:52:14.999Z</time></trkpt><trkpt lat="37.61297984410258" lon="14.903953254435592"><ele>446.3333333333333</ele><time>2026-04-06T10:52:15.999Z</time></trkpt><trkpt lat="37.61313422318197" lon="14.903816701831774"><ele>449.0</ele><time>2026-04-06T10:52:16.999Z</time></trkpt><trkpt lat="37.613286393937585" lon="14.903683856651718"><ele>449.0</ele><time>2026-04-06T10:52:17.999Z</time></trkpt><trkpt lat="37.613440449235355" lon="14.903555785137973"><ele>449.0</ele><time>2026-04-06T10:52:18.999Z</time></trkpt><trkpt lat="37.61359614837588" lon="14.903428374335453"><ele>449.0</ele><time>2026-04-06T10:52:19.999Z</time></trkpt><trkpt lat="37.61374861482742" lon="14.903298942394745"><ele>452.3333333333333</ele><time>2026-04-06T10:52:20.999Z</time></trkpt><trkpt lat="37.61390263283857" lon="14.903167237391022"><ele>455.66666666666663</ele><time>2026-04-06T10:52:21.999Z</time></trkpt><trkpt lat="37.61405895985112" lon="14.903035293713385"><ele>459.0</ele><time>2026-04-06T10:52:22.999Z</time></trkpt><trkpt lat="37.614216860664285" lon="14.902905190487761"><ele>459.0</ele><time>2026-04-06T10:52:23.999Z</time></trkpt><trkpt lat="37.61437423607738" lon="14.902777685526587"><ele>459.0</ele><time>2026-04-06T10:52:24.999Z</time></trkpt><trkpt lat="37.614530169578856" lon="14.902647137329422"><ele>459.0</ele><time>2026-04-06T10:52:25.999Z</time></trkpt><trkpt lat="37.61468463607246" lon="14.902517150224524"><ele>458.66666666666663</ele><time>2026-04-06T10:52:26.999Z</time></trkpt><trkpt lat="37.614840116547754" lon="14.902390228804112"><ele>458.3333333333333</ele><time>2026-04-06T10:52:27.999Z</time></trkpt><trkpt lat="37.61500058564197" lon="14.902275829942841"><ele>458.0</ele><time>2026-04-06T10:52:28.999Z</time></trkpt><trkpt lat="37.61516616676549" lon="14.902176485057568"><ele>460.66666666666663</ele><time>2026-04-06T10:52:29.999Z</time></trkpt><trkpt lat="37.61533444977746" lon="14.902086535087932"><ele>463.33333333333337</ele><time>2026-04-06T10:52:30.999Z</time></trkpt><trkpt lat="37.6155070835267" lon="14.902002644123254"><ele>466.0</ele><time>2026-04-06T10:52:31.999Z</time></trkpt><trkpt lat="37.615678934156705" lon="14.901925009787673"><ele>466.0</ele><time>2026-04-06T10:52:32.999Z</time></trkpt><trkpt lat="37.61585404791464" lon="14.901852895123714"><ele>466.0</ele><time>2026-04-06T10:52:33.999Z</time></trkpt><trkpt lat="37.616032058871376" lon="14.901784103880848"><ele>466.0</ele><time>2026-04-06T10:52:34.999Z</time></trkpt><trkpt lat="37.61621467311986" lon="14.901721247465716"><ele>465.6666666666667</ele><time>2026-04-06T10:52:35.999Z</time></trkpt><trkpt lat="37.61639892427017" lon="14.90166262908921"><ele>465.33333333333337</ele><time>2026-04-06T10:52:36.998Z</time></trkpt><trkpt lat="37.616584738980215" lon="14.901598642131068"><ele>465.0</ele><time>2026-04-06T10:52:37.998Z</time></trkpt><trkpt lat="37.6167757591904" lon="14.901556071370909"><ele>465.0</ele><time>2026-04-06T10:52:38.998Z</time></trkpt><trkpt lat="37.61696300499415" lon="14.901495699222856"><ele>465.0</ele><time>2026-04-06T10:52:39.998Z</time></trkpt><trkpt lat="37.617149668273065" lon="14.901435536644872"><ele>465.0</ele><time>2026-04-06T10:52:40.998Z</time></trkpt><trkpt lat="37.61733319108991" lon="14.901356295826115"><ele>466.66666666666663</ele><time>2026-04-06T10:52:41.998Z</time></trkpt><trkpt lat="37.617520953482874" lon="14.90130460032755"><ele>468.3333333333333</ele><time>2026-04-06T10:52:42.998Z</time></trkpt><trkpt lat="37.61770756212274" lon="14.901253431443903"><ele>470.0</ele><time>2026-04-06T10:52:43.998Z</time></trkpt><trkpt lat="37.617892214809764" lon="14.901196171028442"><ele>471.3333333333333</ele><time>2026-04-06T10:52:44.998Z</time></trkpt><trkpt lat="37.618075476064305" lon="14.90113362480974"><ele>472.66666666666663</ele><time>2026-04-06T10:52:45.998Z</time></trkpt><trkpt lat="37.61825952290356" lon="14.90106840368539"><ele>474.0</ele><time>2026-04-06T10:52:46.998Z</time></trkpt><trkpt lat="37.61844100442641" lon="14.901002140921085"><ele>474.0</ele><time>2026-04-06T10:52:47.998Z</time></trkpt><trkpt lat="37.618624383150916" lon="14.900939017202568"><ele>474.0</ele><time>2026-04-06T10:52:48.998Z</time></trkpt><trkpt lat="37.61880807603917" lon="14.900880186037105"><ele>474.0</ele><time>2026-04-06T10:52:49.998Z</time></trkpt><trkpt lat="37.61899173627814" lon="14.900825114843876"><ele>475.0</ele><time>2026-04-06T10:52:50.998Z</time></trkpt><trkpt lat="37.619172944584164" lon="14.900764142631601"><ele>476.0</ele><time>2026-04-06T10:52:51.998Z</time></trkpt><trkpt lat="37.61935959757953" lon="14.900721122000679"><ele>477.0</ele><time>2026-04-06T10:52:52.998Z</time></trkpt><trkpt lat="37.619547722172975" lon="14.900660491924134"><ele>478.0</ele><time>2026-04-06T10:52:53.998Z</time></trkpt><trkpt lat="37.61974083699811" lon="14.900598253580812"><ele>479.0</ele><time>2026-04-06T10:52:54.998Z</time></trkpt><trkpt lat="37.61994038154712" lon="14.900533943015215"><ele>480.0</ele><time>2026-04-06T10:52:55.998Z</time></trkpt><trkpt lat="37.620141536945994" lon="14.900469113280021"><ele>482.0</ele><time>2026-04-06T10:52:56.998Z</time></trkpt><trkpt lat="37.62033734030494" lon="14.90039458764026"><ele>484.0</ele><time>2026-04-06T10:52:57.998Z</time></trkpt><trkpt lat="37.62053005988626" lon="14.900332000718848"><ele>486.0</ele><time>2026-04-06T10:52:58.998Z</time></trkpt><trkpt lat="37.62071961714943" lon="14.90026568018081"><ele>486.0</ele><time>2026-04-06T10:52:59.998Z</time></trkpt><trkpt lat="37.62091249261197" lon="14.90020139773406"><ele>486.0</ele><time>2026-04-06T10:53:00.998Z</time></trkpt><trkpt lat="37.62110993639564" lon="14.900139600527238"><ele>486.0</ele><time>2026-04-06T10:53:01.998Z</time></trkpt><trkpt lat="37.6213062517902" lon="14.90007767268654"><ele>488.33333333333337</ele><time>2026-04-06T10:53:02.998Z</time></trkpt><trkpt lat="37.62150263511073" lon="14.900022967954936"><ele>490.6666666666667</ele><time>2026-04-06T10:53:03.998Z</time></trkpt><trkpt lat="37.621688315356764" lon="14.899969129572442"><ele>493.0</ele><time>2026-04-06T10:53:04.998Z</time></trkpt><trkpt lat="37.62185867140171" lon="14.899901189507894"><ele>495.0</ele><time>2026-04-06T10:53:05.998Z</time></trkpt><trkpt lat="37.622021445693974" lon="14.899811524272982"><ele>497.0</ele><time>2026-04-06T10:53:06.998Z</time></trkpt><trkpt lat="37.62217458930724" lon="14.89970989163813"><ele>499.0</ele><time>2026-04-06T10:53:07.998Z</time></trkpt><trkpt lat="37.622312788161985" lon="14.899592740660891"><ele>499.0</ele><time>2026-04-06T10:53:08.998Z</time></trkpt><trkpt lat="37.622442541078385" lon="14.899463055045526"><ele>499.0</ele><time>2026-04-06T10:53:09.998Z</time></trkpt><trkpt lat="37.62257488584503" lon="14.899321380046901"><ele>499.0</ele><time>2026-04-06T10:53:10.998Z</time></trkpt><trkpt lat="37.62270168631495" lon="14.89917010850328"><ele>499.33333333333337</ele><time>2026-04-06T10:53:11.998Z</time></trkpt><trkpt lat="37.622822042028716" lon="14.899000656210752"><ele>499.66666666666663</ele><time>2026-04-06T10:53:12.998Z</time></trkpt><trkpt lat="37.62293692689687" lon="14.898824567027456"><ele>500.0</ele><time>2026-04-06T10:53:13.998Z</time></trkpt><trkpt lat="37.62303643790052" lon="14.89863799167951"><ele>500.0</ele><time>2026-04-06T10:53:14.998Z</time></trkpt><trkpt lat="37.623131130883095" lon="14.898448676553423"><ele>500.0</ele><time>2026-04-06T10:53:15.998Z</time></trkpt><trkpt lat="37.623224516114426" lon="14.898267844430825"><ele>500.0</ele><time>2026-04-06T10:53:16.999Z</time></trkpt><trkpt lat="37.623317143680424" lon="14.89809622974717"><ele>500.0</ele><time>2026-04-06T10:53:17.999Z</time></trkpt><trkpt lat="37.62340590048519" lon="14.897929403017747"><ele>500.0</ele><time>2026-04-06T10:53:18.999Z</time></trkpt><trkpt lat="37.623491418878515" lon="14.897755860112484"><ele>500.0</ele><time>2026-04-06T10:53:19.999Z</time></trkpt><trkpt lat="37.62357900801568" lon="14.897575867166058"><ele>504.66666666666663</ele><time>2026-04-06T10:53:20.999Z</time></trkpt><trkpt lat="37.623672113555614" lon="14.897396914392575"><ele>509.33333333333337</ele><time>2026-04-06T10:53:21.999Z</time></trkpt><trkpt lat="37.623770435936535" lon="14.897225360973186"><ele>514.0</ele><time>2026-04-06T10:53:22.999Z</time></trkpt><trkpt lat="37.623863391017416" lon="14.897048636265755"><ele>514.0</ele><time>2026-04-06T10:53:23.999Z</time></trkpt><trkpt lat="37.62395395457693" lon="14.896862468071465"><ele>514.0</ele><time>2026-04-06T10:53:24.999Z</time></trkpt><trkpt lat="37.62404955584511" lon="14.89668070067044"><ele>514.0</ele><time>2026-04-06T10:53:26Z</time></trkpt><trkpt lat="37.6241537424253" lon="14.896506634341407"><ele>513.3333333333334</ele><time>2026-04-06T10:53:27Z</time></trkpt><trkpt lat="37.62426321834994" lon="14.896346218883213"><ele>512.6666666666666</ele><time>2026-04-06T10:53:28Z</time></trkpt><trkpt lat="37.62437643606098" lon="14.89620202692081"><ele>512.0</ele><time>2026-04-06T10:53:29Z</time></trkpt><trkpt lat="37.62449460817659" lon="14.896064870848694"><ele>513.3333333333333</ele><time>2026-04-06T10:53:30Z</time></trkpt><trkpt lat="37.62462006329164" lon="14.895934214454249"><ele>514.6666666666666</ele><time>2026-04-06T10:53:31Z</time></trkpt><trkpt lat="37.624761681771574" lon="14.895817446503191"><ele>516.0</ele><time>2026-04-06T10:53:32Z</time></trkpt><trkpt lat="37.62490869595515" lon="14.895711161191178"><ele>516.0</ele><time>2026-04-06T10:53:33Z</time></trkpt><trkpt lat="37.625064753360505" lon="14.895620977299076"><ele>516.0</ele><time>2026-04-06T10:53:33.999Z</time></trkpt><trkpt lat="37.6252272277336" lon="14.895548384068732"><ele>516.0</ele><time>2026-04-06T10:53:34.999Z</time></trkpt><trkpt lat="37.625394786434285" lon="14.895493170008018"><ele>516.6666666666666</ele><time>2026-04-06T10:53:35.999Z</time></trkpt><trkpt lat="37.62556957986748" lon="14.895466909671535"><ele>517.3333333333333</ele><time>2026-04-06T10:53:36.999Z</time></trkpt><trkpt lat="37.625745180739635" lon="14.895468899813707"><ele>518.0</ele><time>2026-04-06T10:53:37.999Z</time></trkpt><trkpt lat="37.625925587858916" lon="14.89547687478375"><ele>518.0</ele><time>2026-04-06T10:53:38.999Z</time></trkpt><trkpt lat="37.62610693708727" lon="14.8954984676348"><ele>518.0</ele><time>2026-04-06T10:53:39.999Z</time></trkpt><trkpt lat="37.62628941464267" lon="14.895528025218393"><ele>518.0</ele><time>2026-04-06T10:53:40.999Z</time></trkpt><trkpt lat="37.62647359290716" lon="14.895560086915383"><ele>520.3333333333333</ele><time>2026-04-06T10:53:41.999Z</time></trkpt><trkpt lat="37.62665750461719" lon="14.895589986328963"><ele>522.6666666666666</ele><time>2026-04-06T10:53:42.999Z</time></trkpt><trkpt lat="37.62684270735806" lon="14.895620440411616"><ele>525.0</ele><time>2026-04-06T10:53:43.999Z</time></trkpt><trkpt lat="37.62702528224241" lon="14.895650306156288"><ele>525.6666666666666</ele><time>2026-04-06T10:53:44.999Z</time></trkpt><trkpt lat="37.627210071114426" lon="14.895682034159998"><ele>526.3333333333333</ele><time>2026-04-06T10:53:45.999Z</time></trkpt><trkpt lat="37.627396693183535" lon="14.895713486145949"><ele>527.0</ele><time>2026-04-06T10:53:46.999Z</time></trkpt><trkpt lat="37.62758704999819" lon="14.895746374135829"><ele>527.0</ele><time>2026-04-06T10:53:47.999Z</time></trkpt><trkpt lat="37.627777997437896" lon="14.895779448511822"><ele>527.0</ele><time>2026-04-06T10:53:48.999Z</time></trkpt><trkpt lat="37.62797061213899" lon="14.895814651797807"><ele>527.0</ele><time>2026-04-06T10:53:49.999Z</time></trkpt><trkpt lat="37.62816190611457" lon="14.895846065618448"><ele>527.3333333333333</ele><time>2026-04-06T10:53:50.999Z</time></trkpt><trkpt lat="37.62835770167287" lon="14.895877602353591"><ele>527.6666666666666</ele><time>2026-04-06T10:53:51.999Z</time></trkpt><trkpt lat="37.628554958915586" lon="14.895906575971297"><ele>528.0</ele><time>2026-04-06T10:53:52.999Z</time></trkpt><trkpt lat="37.62875276861902" lon="14.895932003835544"><ele>528.0</ele><time>2026-04-06T10:53:53.999Z</time></trkpt><trkpt lat="37.628944284270474" lon="14.895981558135192"><ele>528.0</ele><time>2026-04-06T10:53:54.999Z</time></trkpt><trkpt lat="37.629140523213636" lon="14.896013546405372"><ele>528.0</ele><time>2026-04-06T10:53:55.999Z</time></trkpt><trkpt lat="37.62933570411525" lon="14.896044738747129"><ele>528.3333333333334</ele><time>2026-04-06T10:53:56.999Z</time></trkpt><trkpt lat="37.62953249099937" lon="14.896064507144722"><ele>528.6666666666667</ele><time>2026-04-06T10:53:57.999Z</time></trkpt><trkpt lat="37.6297266786846" lon="14.896052193146618"><ele>529.0</ele><time>2026-04-06T10:53:58.999Z</time></trkpt><trkpt lat="37.62991575186915" lon="14.896033155792875"><ele>529.0</ele><time>2026-04-06T10:53:59.999Z</time></trkpt><trkpt lat="37.630096081327174" lon="14.895986314297621"><ele>529.0</ele><time>2026-04-06T10:54:00.999Z</time></trkpt><trkpt lat="37.63027206226254" lon="14.895921409198985"><ele>529.0</ele><time>2026-04-06T10:54:01.999Z</time></trkpt><trkpt lat="37.63044850303589" lon="14.89583354031693"><ele>529.3333333333334</ele><time>2026-04-06T10:54:02.999Z</time></trkpt><trkpt lat="37.63062147136549" lon="14.895727766898874"><ele>529.6666666666666</ele><time>2026-04-06T10:54:03.999Z</time></trkpt><trkpt lat="37.63079070829629" lon="14.895613219293011"><ele>530.0</ele><time>2026-04-06T10:54:04.999Z</time></trkpt><trkpt lat="37.630956060932114" lon="14.895483133075311"><ele>530.0</ele><time>2026-04-06T10:54:05.999Z</time></trkpt><trkpt lat="37.63111818135548" lon="14.895348718452654"><ele>530.0</ele><time>2026-04-06T10:54:06.999Z</time></trkpt><trkpt lat="37.63128187557546" lon="14.89521120693204"><ele>530.0</ele><time>2026-04-06T10:54:07.999Z</time></trkpt><trkpt lat="37.63144636771348" lon="14.895073648093096"><ele>529.0</ele><time>2026-04-06T10:54:08.999Z</time></trkpt><trkpt lat="37.63161090873662" lon="14.89493584173662"><ele>528.0</ele><time>2026-04-06T10:54:09.999Z</time></trkpt><trkpt lat="37.631775492769464" lon="14.894796380893041"><ele>527.0</ele><time>2026-04-06T10:54:10.999Z</time></trkpt><trkpt lat="37.63194152230067" lon="14.894658247098926"><ele>527.3333333333333</ele><time>2026-04-06T10:54:11.999Z</time></trkpt><trkpt lat="37.632109584704146" lon="14.894520427397856"><ele>527.6666666666666</ele><time>2026-04-06T10:54:12.999Z</time></trkpt><trkpt lat="37.63228293755052" lon="14.894379736423398"><ele>528.0</ele><time>2026-04-06T10:54:13.999Z</time></trkpt><trkpt lat="37.63245797227041" lon="14.894239357160863"><ele>528.0</ele><time>2026-04-06T10:54:14.999Z</time></trkpt><trkpt lat="37.63263313534066" lon="14.894095859944608"><ele>528.0</ele><time>2026-04-06T10:54:15.999Z</time></trkpt><trkpt lat="37.63280851912758" lon="14.893950214499453"><ele>528.0</ele><time>2026-04-06T10:54:16.999Z</time></trkpt><trkpt lat="37.632984355398904" lon="14.893804928252631"><ele>527.6666666666666</ele><time>2026-04-06T10:54:17.999Z</time></trkpt><trkpt lat="37.63316339091671" lon="14.893656072634094"><ele>527.3333333333333</ele><time>2026-04-06T10:54:18.999Z</time></trkpt><trkpt lat="37.633342207138135" lon="14.89350423344687"><ele>527.0</ele><time>2026-04-06T10:54:19.999Z</time></trkpt><trkpt lat="37.633521536076245" lon="14.893353247169378"><ele>530.3333333333333</ele><time>2026-04-06T10:54:20.999Z</time></trkpt><trkpt lat="37.63370374537727" lon="14.893202782364584"><ele>533.6666666666666</ele><time>2026-04-06T10:54:21.999Z</time></trkpt><trkpt lat="37.6338876358855" lon="14.893050686612247"><ele>537.0</ele><time>2026-04-06T10:54:22.999Z</time></trkpt><trkpt lat="37.63407349186879" lon="14.89290031731848"><ele>537.0</ele><time>2026-04-06T10:54:23.999Z</time></trkpt><trkpt lat="37.634260337647135" lon="14.892748506486047"><ele>537.0</ele><time>2026-04-06T10:54:24.999Z</time></trkpt><trkpt lat="37.63444619783768" lon="14.892593431467374"><ele>537.0</ele><time>2026-04-06T10:54:25.999Z</time></trkpt><trkpt lat="37.63463176517971" lon="14.892435474252002"><ele>538.3333333333334</ele><time>2026-04-06T10:54:26.999Z</time></trkpt><trkpt lat="37.63481974669122" lon="14.892280008779963"><ele>539.6666666666667</ele><time>2026-04-06T10:54:27.999Z</time></trkpt><trkpt lat="37.63500835724095" lon="14.892125909536011"><ele>541.0</ele><time>2026-04-06T10:54:28.999Z</time></trkpt><trkpt lat="37.63519698138014" lon="14.891971964296971"><ele>544.0</ele><time>2026-04-06T10:54:29.999Z</time></trkpt><trkpt lat="37.635387338050315" lon="14.891816264877031"><ele>547.0</ele><time>2026-04-06T10:54:30.999Z</time></trkpt><trkpt lat="37.63557676163901" lon="14.891661867425846"><ele>547.0</ele><time>2026-04-06T10:54:31.999Z</time></trkpt><trkpt lat="37.63576547916925" lon="14.891505548414266"><ele>547.0</ele><time>2026-04-06T10:54:32.999Z</time></trkpt><trkpt lat="37.635953802623874" lon="14.891348596553994"><ele>551.0</ele><time>2026-04-06T10:54:33.999Z</time></trkpt><trkpt lat="37.63614154130818" lon="14.891191087981946"><ele>555.0</ele><time>2026-04-06T10:54:34.999Z</time></trkpt><trkpt lat="37.63632932270797" lon="14.891032224569878"><ele>550.0</ele><time>2026-04-06T10:54:35.999Z</time></trkpt><trkpt lat="37.63651604657477" lon="14.89087305266621"><ele>545.0</ele><time>2026-04-06T10:54:36.999Z</time></trkpt><trkpt lat="37.63670355593798" lon="14.890714985657933"><ele>545.0</ele><time>2026-04-06T10:54:37.999Z</time></trkpt><trkpt lat="37.636891272895284" lon="14.89055722772548"><ele>545.0</ele><time>2026-04-06T10:54:38.999Z</time></trkpt><trkpt lat="37.637080344689934" lon="14.890401594260492"><ele>546.0</ele><time>2026-04-06T10:54:39.999Z</time></trkpt><trkpt lat="37.63726849459368" lon="14.890244628091143"><ele>547.0</ele><time>2026-04-06T10:54:40.999Z</time></trkpt><trkpt lat="37.637455992787444" lon="14.890085841615557"><ele>547.0</ele><time>2026-04-06T10:54:41.999Z</time></trkpt><trkpt lat="37.637643027827465" lon="14.889926350174557"><ele>547.0</ele><time>2026-04-06T10:54:42.999Z</time></trkpt><trkpt lat="37.63782924082923" lon="14.889767253602384"><ele>549.5</ele><time>2026-04-06T10:54:43.999Z</time></trkpt><trkpt lat="37.63801718743596" lon="14.88960702778197"><ele>552.0</ele><time>2026-04-06T10:54:44.999Z</time></trkpt><trkpt lat="37.63820522260283" lon="14.889447756174048"><ele>552.0</ele><time>2026-04-06T10:54:45.999Z</time></trkpt><trkpt lat="37.63839159059537" lon="14.889292170561983"><ele>552.0</ele><time>2026-04-06T10:54:46.999Z</time></trkpt><trkpt lat="37.638566116277374" lon="14.889142869777473"><ele>552.0</ele><time>2026-04-06T10:54:47.999Z</time></trkpt><trkpt lat="37.638733528342456" lon="14.889004964018522"><ele>552.3333333333334</ele><time>2026-04-06T10:54:48.999Z</time></trkpt><trkpt lat="37.63889700026939" lon="14.888869875751345"><ele>552.6666666666667</ele><time>2026-04-06T10:54:49.999Z</time></trkpt><trkpt lat="37.6390508659696" lon="14.888741416676481"><ele>553.0</ele><time>2026-04-06T10:54:50.998Z</time></trkpt><trkpt lat="37.63919970020852" lon="14.888617680037486"><ele>553.0</ele><time>2026-04-06T10:54:51.998Z</time></trkpt><trkpt lat="37.639345514355014" lon="14.888496005068797"><ele>553.0</ele><time>2026-04-06T10:54:52.998Z</time></trkpt><trkpt lat="37.63948176338803" lon="14.888383901060815"><ele>553.0</ele><time>2026-04-06T10:54:53.998Z</time></trkpt><trkpt lat="37.63961750493054" lon="14.888274480433319"><ele>553.6666666666667</ele><time>2026-04-06T10:54:54.998Z</time></trkpt><trkpt lat="37.63974628265495" lon="14.888169293420818"><ele>554.3333333333334</ele><time>2026-04-06T10:54:55.998Z</time></trkpt><trkpt lat="37.639873149853614" lon="14.888061897317709"><ele>555.0</ele><time>2026-04-06T10:54:56.998Z</time></trkpt><trkpt lat="37.64000301941687" lon="14.887952102723538"><ele>555.0</ele><time>2026-04-06T10:54:57.998Z</time></trkpt><trkpt lat="37.64013554382242" lon="14.887838753666585"><ele>555.0</ele><time>2026-04-06T10:54:58.998Z</time></trkpt><trkpt lat="37.640271029432995" lon="14.887725403685264"><ele>555.0</ele><time>2026-04-06T10:54:59.998Z</time></trkpt><trkpt lat="37.64040783491331" lon="14.887611128147869"><ele>556.3333333333334</ele><time>2026-04-06T10:55:00.998Z</time></trkpt><trkpt lat="37.64054712232093" lon="14.887496025362047"><ele>557.6666666666667</ele><time>2026-04-06T10:55:01.998Z</time></trkpt><trkpt lat="37.64068634765041" lon="14.887381600870428"><ele>559.0</ele><time>2026-04-06T10:55:02.998Z</time></trkpt><trkpt lat="37.640827003291896" lon="14.887265506486436"><ele>559.0</ele><time>2026-04-06T10:55:03.998Z</time></trkpt><trkpt lat="37.64096843918387" lon="14.887148313543554"><ele>559.0</ele><time>2026-04-06T10:55:04.998Z</time></trkpt><trkpt lat="37.64111074657662" lon="14.887029359690985"><ele>559.0</ele><time>2026-04-06T10:55:05.998Z</time></trkpt><trkpt lat="37.6412554337875" lon="14.886906685844565"><ele>561.0</ele><time>2026-04-06T10:55:06.998Z</time></trkpt><trkpt lat="37.64139929415238" lon="14.886786542529642"><ele>563.0</ele><time>2026-04-06T10:55:07.998Z</time></trkpt><trkpt lat="37.64154630001225" lon="14.88666553520688"><ele>565.0</ele><time>2026-04-06T10:55:08.998Z</time></trkpt><trkpt lat="37.64169453743733" lon="14.886541120255464"><ele>565.0</ele><time>2026-04-06T10:55:09.998Z</time></trkpt><trkpt lat="37.64184272319493" lon="14.886414004605593"><ele>565.0</ele><time>2026-04-06T10:55:10.998Z</time></trkpt><trkpt lat="37.64199116438379" lon="14.886286005165058"><ele>565.0</ele><time>2026-04-06T10:55:11.998Z</time></trkpt><trkpt lat="37.6421390537196" lon="14.88616306279007"><ele>566.0</ele><time>2026-04-06T10:55:12.998Z</time></trkpt><trkpt lat="37.64228534861787" lon="14.886038997571445"><ele>567.0</ele><time>2026-04-06T10:55:13.998Z</time></trkpt><trkpt lat="37.642433631053116" lon="14.88591740655803"><ele>568.0</ele><time>2026-04-06T10:55:14.998Z</time></trkpt><trkpt lat="37.64257929268278" lon="14.88579425921097"><ele>568.0</ele><time>2026-04-06T10:55:15.998Z</time></trkpt><trkpt lat="37.64272339817189" lon="14.885670068745977"><ele>568.0</ele><time>2026-04-06T10:55:16.998Z</time></trkpt><trkpt lat="37.642866931678995" lon="14.885545802260678"><ele>568.0</ele><time>2026-04-06T10:55:17.998Z</time></trkpt><trkpt lat="37.64301120773143" lon="14.885421769956006"><ele>568.0</ele><time>2026-04-06T10:55:18.998Z</time></trkpt><trkpt lat="37.643155886935325" lon="14.885298650584739"><ele>568.0</ele><time>2026-04-06T10:55:19.998Z</time></trkpt><trkpt lat="37.64329970627369" lon="14.885179251000254"><ele>568.0</ele><time>2026-04-06T10:55:20.998Z</time></trkpt><trkpt lat="37.64344449840459" lon="14.885056644885188"><ele>568.0</ele><time>2026-04-06T10:55:22Z</time></trkpt><trkpt lat="37.64358871868036" lon="14.884933166017431"><ele>568.0</ele><time>2026-04-06T10:55:23Z</time></trkpt><trkpt lat="37.64373272594831" lon="14.88481058642661"><ele>568.0</ele><time>2026-04-06T10:55:24Z</time></trkpt><trkpt lat="37.643876747793094" lon="14.884687598347673"><ele>570.0</ele><time>2026-04-06T10:55:25Z</time></trkpt><trkpt lat="37.644020819973846" lon="14.8845648516207"><ele>572.0</ele><time>2026-04-06T10:55:26Z</time></trkpt><trkpt lat="37.6441649115228" lon="14.884444175155874"><ele>574.0</ele><time>2026-04-06T10:55:27Z</time></trkpt><trkpt lat="37.644307737765" lon="14.884326278252605"><ele>574.0</ele><time>2026-04-06T10:55:28Z</time></trkpt><trkpt lat="37.64444857300608" lon="14.88420872902026"><ele>574.0</ele><time>2026-04-06T10:55:29Z</time></trkpt><trkpt lat="37.64458675458272" lon="14.884094219525467"><ele>574.0</ele><time>2026-04-06T10:55:30Z</time></trkpt><trkpt lat="37.64472286211222" lon="14.883977845439283"><ele>577.0</ele><time>2026-04-06T10:55:31Z</time></trkpt><trkpt lat="37.64485771116789" lon="14.883860553515435"><ele>580.0</ele><time>2026-04-06T10:55:32Z</time></trkpt><trkpt lat="37.644993248378974" lon="14.883741439960982"><ele>583.0</ele><time>2026-04-06T10:55:33Z</time></trkpt><trkpt lat="37.645130790445414" lon="14.883621556905906"><ele>583.0</ele><time>2026-04-06T10:55:34Z</time></trkpt><trkpt lat="37.64526995280909" lon="14.88350291275831"><ele>583.0</ele><time>2026-04-06T10:55:35Z</time></trkpt><trkpt lat="37.64541170955077" lon="14.883383151572506"><ele>583.0</ele><time>2026-04-06T10:55:36Z</time></trkpt><trkpt lat="37.645554430812" lon="14.88326182329192"><ele>585.6666666666667</ele><time>2026-04-06T10:55:37Z</time></trkpt><trkpt lat="37.64569845907751" lon="14.88313695811286"><ele>588.3333333333334</ele><time>2026-04-06T10:55:38Z</time></trkpt><trkpt lat="37.64584221713822" lon="14.883012533620361"><ele>591.0</ele><time>2026-04-06T10:55:39Z</time></trkpt><trkpt lat="37.64598655652668" lon="14.882889312877753"><ele>592.6666666666666</ele><time>2026-04-06T10:55:40Z</time></trkpt><trkpt lat="37.646134430348546" lon="14.882764603421581"><ele>594.3333333333333</ele><time>2026-04-06T10:55:41Z</time></trkpt><trkpt lat="37.64628160944407" lon="14.882641087736221"><ele>596.0</ele><time>2026-04-06T10:55:42Z</time></trkpt><trkpt lat="37.646427946318184" lon="14.882517395124093"><ele>596.0</ele><time>2026-04-06T10:55:43Z</time></trkpt><trkpt lat="37.64657334780923" lon="14.882392222780648"><ele>596.0</ele><time>2026-04-06T10:55:44Z</time></trkpt><trkpt lat="37.646719363336544" lon="14.88226673860009"><ele>596.0</ele><time>2026-04-06T10:55:45Z</time></trkpt><trkpt lat="37.64686483934916" lon="14.88214342892867"><ele>598.0</ele><time>2026-04-06T10:55:46Z</time></trkpt><trkpt lat="37.647011087491805" lon="14.882018126445088"><ele>600.0</ele><time>2026-04-06T10:55:47Z</time></trkpt><trkpt lat="37.64715807668096" lon="14.881891708501229"><ele>602.0</ele><time>2026-04-06T10:55:48Z</time></trkpt><trkpt lat="37.6473082356082" lon="14.881763519290667"><ele>602.0</ele><time>2026-04-06T10:55:49Z</time></trkpt><trkpt lat="37.64745386574405" lon="14.881638305026181"><ele>602.0</ele><time>2026-04-06T10:55:50Z</time></trkpt><trkpt lat="37.647600501060865" lon="14.881513737910295"><ele>602.0</ele><time>2026-04-06T10:55:51Z</time></trkpt><trkpt lat="37.64774590763044" lon="14.881389055223535"><ele>603.3333333333333</ele><time>2026-04-06T10:55:52Z</time></trkpt><trkpt lat="37.64789260851775" lon="14.881261974720864"><ele>604.6666666666666</ele><time>2026-04-06T10:55:53Z</time></trkpt><trkpt lat="37.64803948419688" lon="14.881135868821586"><ele>606.0</ele><time>2026-04-06T10:55:54Z</time></trkpt><trkpt lat="37.64818713770335" lon="14.88101071082467"><ele>605.0</ele><time>2026-04-06T10:55:55Z</time></trkpt><trkpt lat="37.648337667303544" lon="14.880883066791995"><ele>604.0</ele><time>2026-04-06T10:55:56Z</time></trkpt><trkpt lat="37.648487750429524" lon="14.88075481640973"><ele>603.0</ele><time>2026-04-06T10:55:57Z</time></trkpt><trkpt lat="37.648637820580646" lon="14.880625385201027"><ele>603.0</ele><time>2026-04-06T10:55:58Z</time></trkpt><trkpt lat="37.648789163812886" lon="14.880497381789995"><ele>603.0</ele><time>2026-04-06T10:55:59Z</time></trkpt><trkpt lat="37.64894151494393" lon="14.880370228216668"><ele>603.0</ele><time>2026-04-06T10:55:59.999Z</time></trkpt><trkpt lat="37.649094318050324" lon="14.88024114723048"><ele>603.0</ele><time>2026-04-06T10:56:00.999Z</time></trkpt><trkpt lat="37.64924808545037" lon="14.880112635876056"><ele>603.0</ele><time>2026-04-06T10:56:01.999Z</time></trkpt><trkpt lat="37.64940197946966" lon="14.879981461021995"><ele>603.0</ele><time>2026-04-06T10:56:02.999Z</time></trkpt><trkpt lat="37.649555790976436" lon="14.879849394767245"><ele>606.3333333333334</ele><time>2026-04-06T10:56:03.999Z</time></trkpt><trkpt lat="37.6497101727878" lon="14.879714164994043"><ele>609.6666666666667</ele><time>2026-04-06T10:56:04.999Z</time></trkpt><trkpt lat="37.649865080920854" lon="14.879577870827752"><ele>613.0</ele><time>2026-04-06T10:56:05.999Z</time></trkpt><trkpt lat="37.65001684384068" lon="14.879445158717058"><ele>613.0</ele><time>2026-04-06T10:56:06.999Z</time></trkpt><trkpt lat="37.65016617579547" lon="14.879316096844086"><ele>613.0</ele><time>2026-04-06T10:56:07.999Z</time></trkpt><trkpt lat="37.65031295372338" lon="14.879187882625235"><ele>613.0</ele><time>2026-04-06T10:56:08.999Z</time></trkpt><trkpt lat="37.650458512103796" lon="14.879060281433249"><ele>612.3333333333334</ele><time>2026-04-06T10:56:09.999Z</time></trkpt><trkpt lat="37.65060452411406" lon="14.878933529437978"><ele>611.6666666666666</ele><time>2026-04-06T10:56:10.999Z</time></trkpt><trkpt lat="37.650756810126154" lon="14.878803443558054"><ele>611.0</ele><time>2026-04-06T10:56:11.999Z</time></trkpt><trkpt lat="37.650913849372046" lon="14.87867293565049"><ele>611.0</ele><time>2026-04-06T10:56:12.999Z</time></trkpt><trkpt lat="37.65107514344743" lon="14.878543338981116"><ele>611.0</ele><time>2026-04-06T10:56:13.999Z</time></trkpt><trkpt lat="37.651239666879476" lon="14.878411689894799"><ele>611.0</ele><time>2026-04-06T10:56:14.999Z</time></trkpt><trkpt lat="37.651400832144596" lon="14.878276401267442"><ele>612.6666666666666</ele><time>2026-04-06T10:56:15.999Z</time></trkpt><trkpt lat="37.65156268932283" lon="14.878138336756559"><ele>614.3333333333334</ele><time>2026-04-06T10:56:16.999Z</time></trkpt><trkpt lat="37.65172567772109" lon="14.87799728636132"><ele>616.0</ele><time>2026-04-06T10:56:17.999Z</time></trkpt><trkpt lat="37.65188861498956" lon="14.877851116298542"><ele>616.3333333333334</ele><time>2026-04-06T10:56:18.999Z</time></trkpt><trkpt lat="37.6520469556197" lon="14.877697369056024"><ele>616.6666666666666</ele><time>2026-04-06T10:56:19.999Z</time></trkpt><trkpt lat="37.65219879037314" lon="14.877533280902394"><ele>617.0</ele><time>2026-04-06T10:56:20.999Z</time></trkpt><trkpt lat="37.65234371869362" lon="14.87735472541245"><ele>617.0</ele><time>2026-04-06T10:56:21.999Z</time></trkpt><trkpt lat="37.652480343866806" lon="14.877162747115191"><ele>617.0</ele><time>2026-04-06T10:56:22.999Z</time></trkpt><trkpt lat="37.652608236331176" lon="14.876958768796312"><ele>617.0</ele><time>2026-04-06T10:56:23.999Z</time></trkpt><trkpt lat="37.652731619990625" lon="14.876746845994067"><ele>618.0</ele><time>2026-04-06T10:56:24.999Z</time></trkpt><trkpt lat="37.65284542619199" lon="14.876529837923561"><ele>619.0</ele><time>2026-04-06T10:56:25.999Z</time></trkpt><trkpt lat="37.65295274491667" lon="14.876312153447719"><ele>620.0</ele><time>2026-04-06T10:56:26.999Z</time></trkpt><trkpt lat="37.653059426607214" lon="14.87609377110858"><ele>619.6666666666666</ele><time>2026-04-06T10:56:27.999Z</time></trkpt><trkpt lat="37.65316506842186" lon="14.875875634682489"><ele>619.3333333333334</ele><time>2026-04-06T10:56:28.999Z</time></trkpt><trkpt lat="37.65327214461068" lon="14.87565824578001"><ele>619.0</ele><time>2026-04-06T10:56:29.999Z</time></trkpt><trkpt lat="37.65338085289156" lon="14.87543917207678"><ele>619.0</ele><time>2026-04-06T10:56:30.999Z</time></trkpt><trkpt lat="37.65349143498957" lon="14.875218331969224"><ele>619.0</ele><time>2026-04-06T10:56:31.999Z</time></trkpt><trkpt lat="37.653602135719325" lon="14.87499399082549"><ele>619.0</ele><time>2026-04-06T10:56:32.999Z</time></trkpt><trkpt lat="37.653713522414776" lon="14.874767221483996"><ele>619.0</ele><time>2026-04-06T10:56:33.999Z</time></trkpt><trkpt lat="37.65382668254324" lon="14.874538397459316"><ele>619.0</ele><time>2026-04-06T10:56:34.999Z</time></trkpt><trkpt lat="37.6539416931928" lon="14.874308980556643"><ele>619.0</ele><time>2026-04-06T10:56:35.999Z</time></trkpt><trkpt lat="37.654057367447116" lon="14.87407679200865"><ele>617.3333333333334</ele><time>2026-04-06T10:56:36.999Z</time></trkpt><trkpt lat="37.654170422288495" lon="14.873845299061358"><ele>615.6666666666666</ele><time>2026-04-06T10:56:37.999Z</time></trkpt><trkpt lat="37.65428715918621" lon="14.873604498711087"><ele>614.0</ele><time>2026-04-06T10:56:38.999Z</time></trkpt><trkpt lat="37.65440450448628" lon="14.873368139327471"><ele>615.3333333333333</ele><time>2026-04-06T10:56:39.999Z</time></trkpt><trkpt lat="37.65452132630904" lon="14.873134315207219"><ele>616.6666666666666</ele><time>2026-04-06T10:56:40.999Z</time></trkpt><trkpt lat="37.654636175721485" lon="14.872897085705022"><ele>618.0</ele><time>2026-04-06T10:56:41.999Z</time></trkpt><trkpt lat="37.65475224147716" lon="14.872657409439656"><ele>617.3333333333334</ele><time>2026-04-06T10:56:42.999Z</time></trkpt><trkpt lat="37.65486962135855" lon="14.872420444178887"><ele>616.6666666666667</ele><time>2026-04-06T10:56:43.999Z</time></trkpt><trkpt lat="37.65498741149349" lon="14.872183706072395"><ele>616.0</ele><time>2026-04-06T10:56:44.999Z</time></trkpt><trkpt lat="37.65510616891662" lon="14.871949810012897"><ele>615.6666666666667</ele><time>2026-04-06T10:56:45.999Z</time></trkpt><trkpt lat="37.65522521833405" lon="14.871716457927134"><ele>615.3333333333334</ele><time>2026-04-06T10:56:46.999Z</time></trkpt><trkpt lat="37.655342461703846" lon="14.871483801937092"><ele>615.0</ele><time>2026-04-06T10:56:47.999Z</time></trkpt><trkpt lat="37.65545859369813" lon="14.871245760087664"><ele>615.0</ele><time>2026-04-06T10:56:48.999Z</time></trkpt><trkpt lat="37.65557319630193" lon="14.87100531433488"><ele>615.0</ele><time>2026-04-06T10:56:49.999Z</time></trkpt><trkpt lat="37.65568762419202" lon="14.870766683316157"><ele>615.0</ele><time>2026-04-06T10:56:50.999Z</time></trkpt><trkpt lat="37.655804549517896" lon="14.870528646503715"><ele>615.0</ele><time>2026-04-06T10:56:51.999Z</time></trkpt><trkpt lat="37.65592496727372" lon="14.870290610951962"><ele>615.0</ele><time>2026-04-06T10:56:52.999Z</time></trkpt><trkpt lat="37.65604865062941" lon="14.870051238158021"><ele>618.3333333333334</ele><time>2026-04-06T10:56:53.999Z</time></trkpt><trkpt lat="37.65617336039859" lon="14.869814409710752"><ele>621.6666666666667</ele><time>2026-04-06T10:56:54.999Z</time></trkpt><trkpt lat="37.656302192225176" lon="14.869582697806043"><ele>625.0</ele><time>2026-04-06T10:56:55.999Z</time></trkpt><trkpt lat="37.65643665080021" lon="14.869362085896455"><ele>622.0</ele><time>2026-04-06T10:56:56.999Z</time></trkpt><trkpt lat="37.656581492827634" lon="14.869155806103022"><ele>619.0</ele><time>2026-04-06T10:56:57.999Z</time></trkpt><trkpt lat="37.65673645845063" lon="14.868969232533468"><ele>616.0</ele><time>2026-04-06T10:56:58.999Z</time></trkpt><trkpt lat="37.65690306318151" lon="14.868794570668918"><ele>617.3333333333334</ele><time>2026-04-06T10:56:59.999Z</time></trkpt><trkpt lat="37.65707828571352" lon="14.868632860871061"><ele>618.6666666666666</ele><time>2026-04-06T10:57:00.999Z</time></trkpt><trkpt lat="37.65726228828226" lon="14.868484227424762"><ele>620.0</ele><time>2026-04-06T10:57:01.999Z</time></trkpt><trkpt lat="37.6574553673959" lon="14.868350288856513"><ele>620.0</ele><time>2026-04-06T10:57:02.999Z</time></trkpt><trkpt lat="37.65765491964862" lon="14.86823154003061"><ele>620.0</ele><time>2026-04-06T10:57:03.999Z</time></trkpt><trkpt lat="37.65785819635386" lon="14.868128157235821"><ele>620.0</ele><time>2026-04-06T10:57:04.999Z</time></trkpt><trkpt lat="37.658065022287374" lon="14.868034015858962"><ele>623.3333333333333</ele><time>2026-04-06T10:57:05.999Z</time></trkpt><trkpt lat="37.65827515185877" lon="14.867942271748754"><ele>626.6666666666666</ele><time>2026-04-06T10:57:06.999Z</time></trkpt><trkpt lat="37.65848503938836" lon="14.867855815219299"><ele>630.0</ele><time>2026-04-06T10:57:07.999Z</time></trkpt><trkpt lat="37.65869697424339" lon="14.86776912874427"><ele>629.6666666666666</ele><time>2026-04-06T10:57:08.999Z</time></trkpt><trkpt lat="37.658908721581554" lon="14.867679853856217"><ele>629.3333333333333</ele><time>2026-04-06T10:57:09.998Z</time></trkpt><trkpt lat="37.659123409480436" lon="14.867590542212852"><ele>629.0</ele><time>2026-04-06T10:57:10.998Z</time></trkpt><trkpt lat="37.65934009079612" lon="14.867501649261882"><ele>628.5</ele><time>2026-04-06T10:57:11.998Z</time></trkpt><trkpt lat="37.659554868809664" lon="14.867410230701315"><ele>628.0</ele><time>2026-04-06T10:57:12.998Z</time></trkpt><trkpt lat="37.65977085061084" lon="14.867319798421416"><ele>628.0</ele><time>2026-04-06T10:57:13.998Z</time></trkpt><trkpt lat="37.6599873794998" lon="14.867232414889651"><ele>628.0</ele><time>2026-04-06T10:57:14.998Z</time></trkpt><trkpt lat="37.66020329940666" lon="14.867146196773728"><ele>629.6666666666667</ele><time>2026-04-06T10:57:15.998Z</time></trkpt><trkpt lat="37.66041534397582" lon="14.867061095748062"><ele>631.3333333333334</ele><time>2026-04-06T10:57:16.998Z</time></trkpt><trkpt lat="37.66062198116212" lon="14.866979942225118"><ele>633.0</ele><time>2026-04-06T10:57:17.998Z</time></trkpt><trkpt lat="37.66083123836161" lon="14.86689914573007"><ele>633.0</ele><time>2026-04-06T10:57:18.998Z</time></trkpt><trkpt lat="37.66103519818222" lon="14.866813685608141"><ele>633.0</ele><time>2026-04-06T10:57:19.998Z</time></trkpt><trkpt lat="37.661233372410685" lon="14.866721479859473"><ele>633.0</ele><time>2026-04-06T10:57:20.998Z</time></trkpt><trkpt lat="37.66142595780109" lon="14.866617878820792"><ele>632.6666666666666</ele><time>2026-04-06T10:57:21.998Z</time></trkpt><trkpt lat="37.66161070743714" lon="14.866501867786296"><ele>632.3333333333333</ele><time>2026-04-06T10:57:22.998Z</time></trkpt><trkpt lat="37.66178814487899" lon="14.866368250932585"><ele>632.0</ele><time>2026-04-06T10:57:23.998Z</time></trkpt><trkpt lat="37.6619539885613" lon="14.866216476254916"><ele>632.0</ele><time>2026-04-06T10:57:24.998Z</time></trkpt><trkpt lat="37.66210867053483" lon="14.866044685580833"><ele>632.0</ele><time>2026-04-06T10:57:25.998Z</time></trkpt><trkpt lat="37.66224948352555" lon="14.865853594569055"><ele>632.0</ele><time>2026-04-06T10:57:27Z</time></trkpt><trkpt lat="37.662378429020954" lon="14.865648545112728"><ele>630.3333333333333</ele><time>2026-04-06T10:57:28Z</time></trkpt><trkpt lat="37.66248994420316" lon="14.865424732324291"><ele>628.6666666666666</ele><time>2026-04-06T10:57:29Z</time></trkpt><trkpt lat="37.66259427946935" lon="14.865193502030653"><ele>627.0</ele><time>2026-04-06T10:57:30Z</time></trkpt><trkpt lat="37.662697730592846" lon="14.864960746895179"><ele>627.6666666666666</ele><time>2026-04-06T10:57:31Z</time></trkpt><trkpt lat="37.662804666648945" lon="14.864728557080898"><ele>628.3333333333333</ele><time>2026-04-06T10:57:32Z</time></trkpt><trkpt lat="37.66291256888229" lon="14.864496169439626"><ele>629.0</ele><time>2026-04-06T10:57:33Z</time></trkpt><trkpt lat="37.663021935682636" lon="14.86426159727973"><ele>629.0</ele><time>2026-04-06T10:57:34Z</time></trkpt><trkpt lat="37.66313141370194" lon="14.864026016152696"><ele>629.0</ele><time>2026-04-06T10:57:35Z</time></trkpt><trkpt lat="37.66324041933033" lon="14.863788162728309"><ele>629.0</ele><time>2026-04-06T10:57:36Z</time></trkpt><trkpt lat="37.66335150762123" lon="14.863547487642325"><ele>628.0</ele><time>2026-04-06T10:57:37Z</time></trkpt><trkpt lat="37.66346487437644" lon="14.863303010797623"><ele>627.0</ele><time>2026-04-06T10:57:38Z</time></trkpt><trkpt lat="37.6635802474577" lon="14.863056535372403"><ele>629.5</ele><time>2026-04-06T10:57:39Z</time></trkpt><trkpt lat="37.663692871086525" lon="14.862808854047353"><ele>632.0</ele><time>2026-04-06T10:57:40Z</time></trkpt><trkpt lat="37.66380665612596" lon="14.862559026737935"><ele>632.0</ele><time>2026-04-06T10:57:41Z</time></trkpt><trkpt lat="37.66392230795851" lon="14.862307401204724"><ele>632.0</ele><time>2026-04-06T10:57:42Z</time></trkpt><trkpt lat="37.664037622510264" lon="14.862055605093635"><ele>632.0</ele><time>2026-04-06T10:57:43Z</time></trkpt><trkpt lat="37.664151636378584" lon="14.861802079091785"><ele>632.0</ele><time>2026-04-06T10:57:44Z</time></trkpt><trkpt lat="37.66426366263331" lon="14.861549998238493"><ele>634.0</ele><time>2026-04-06T10:57:45Z</time></trkpt><trkpt lat="37.66437539613177" lon="14.861298595559226"><ele>636.0</ele><time>2026-04-06T10:57:46Z</time></trkpt><trkpt lat="37.664487700419464" lon="14.861047590925034"><ele>635.5</ele><time>2026-04-06T10:57:47Z</time></trkpt><trkpt lat="37.664600454150396" lon="14.860797935005404"><ele>635.0</ele><time>2026-04-06T10:57:48Z</time></trkpt><trkpt lat="37.66471198620783" lon="14.860550806864577"><ele>635.0</ele><time>2026-04-06T10:57:49Z</time></trkpt><trkpt lat="37.6648239431267" lon="14.860303160999159"><ele>635.0</ele><time>2026-04-06T10:57:50Z</time></trkpt><trkpt lat="37.66493759823" lon="14.860053116670526"><ele>635.0</ele><time>2026-04-06T10:57:51Z</time></trkpt><trkpt lat="37.66505145467301" lon="14.859805586456988"><ele>635.0</ele><time>2026-04-06T10:57:52Z</time></trkpt><trkpt lat="37.66516328826944" lon="14.85955747757092"><ele>635.0</ele><time>2026-04-06T10:57:53Z</time></trkpt><trkpt lat="37.66527550888572" lon="14.859307434789248"><ele>635.0</ele><time>2026-04-06T10:57:54Z</time></trkpt><trkpt lat="37.66538806556194" lon="14.859056178541044"><ele>637.5</ele><time>2026-04-06T10:57:55Z</time></trkpt><trkpt lat="37.66550112862032" lon="14.85880413686969"><ele>640.0</ele><time>2026-04-06T10:57:56Z</time></trkpt><trkpt lat="37.66561478495665" lon="14.858551891301786"><ele>637.5</ele><time>2026-04-06T10:57:57Z</time></trkpt><trkpt lat="37.66572940926878" lon="14.858302190753124"><ele>635.0</ele><time>2026-04-06T10:57:58Z</time></trkpt><trkpt lat="37.665843653539085" lon="14.858052769791241"><ele>635.0</ele><time>2026-04-06T10:57:59Z</time></trkpt><trkpt lat="37.6659583346654" lon="14.857802093275284"><ele>635.0</ele><time>2026-04-06T10:58:00Z</time></trkpt><trkpt lat="37.666073592233225" lon="14.8575504658362"><ele>637.0</ele><time>2026-04-06T10:58:01Z</time></trkpt><trkpt lat="37.66618764563867" lon="14.857300414627057"><ele>639.0</ele><time>2026-04-06T10:58:02Z</time></trkpt><trkpt lat="37.66630348223832" lon="14.85704702092533"><ele>639.0</ele><time>2026-04-06T10:58:03Z</time></trkpt><trkpt lat="37.66642163174686" lon="14.856795324795312"><ele>639.0</ele><time>2026-04-06T10:58:04Z</time></trkpt><trkpt lat="37.66654255043981" lon="14.856546653772984"><ele>639.0</ele><time>2026-04-06T10:58:05Z</time></trkpt><trkpt lat="37.666669713880964" lon="14.8563001274767"><ele>639.0</ele><time>2026-04-06T10:58:06Z</time></trkpt><trkpt lat="37.66680213225531" lon="14.856055240148951"><ele>640.5</ele><time>2026-04-06T10:58:07Z</time></trkpt><trkpt lat="37.66693291828728" lon="14.85581061610938"><ele>642.0</ele><time>2026-04-06T10:58:08Z</time></trkpt><trkpt lat="37.66709378829852" lon="14.855562307791656"><ele>642.0</ele><time>2026-04-06T10:58:09Z</time></trkpt><trkpt lat="37.667245643175775" lon="14.855330136971194"><ele>642.0</ele><time>2026-04-06T10:58:10Z</time></trkpt><trkpt lat="37.66739350692337" lon="14.855093752879407"><ele>636.5</ele><time>2026-04-06T10:58:10.999Z</time></trkpt><trkpt lat="37.66754315325564" lon="14.854861809862179"><ele>631.0</ele><time>2026-04-06T10:58:11.999Z</time></trkpt><trkpt lat="37.66769457972992" lon="14.85462393504241"><ele>630.0</ele><time>2026-04-06T10:58:12.999Z</time></trkpt><trkpt lat="37.66785332478017" lon="14.8543936134682"><ele>629.0</ele><time>2026-04-06T10:58:13.999Z</time></trkpt><trkpt lat="37.66800766681956" lon="14.854161605023439"><ele>629.0</ele><time>2026-04-06T10:58:14.999Z</time></trkpt><trkpt lat="37.66816015340401" lon="14.853916118235988"><ele>629.0</ele><time>2026-04-06T10:58:15.999Z</time></trkpt><trkpt lat="37.66831798738008" lon="14.853680125269328"><ele>629.0</ele><time>2026-04-06T10:58:16.999Z</time></trkpt><trkpt lat="37.66847013774274" lon="14.85344014985614"><ele>629.0</ele><time>2026-04-06T10:58:17.999Z</time></trkpt><trkpt lat="37.66862603682529" lon="14.853207432589286"><ele>629.0</ele><time>2026-04-06T10:58:18.999Z</time></trkpt><trkpt lat="37.66878038041137" lon="14.85297866575434"><ele>629.0</ele><time>2026-04-06T10:58:19.999Z</time></trkpt><trkpt lat="37.66893774576073" lon="14.852739345804547"><ele>628.0</ele><time>2026-04-06T10:58:20.999Z</time></trkpt><trkpt lat="37.66908934446221" lon="14.852505468585894"><ele>627.0</ele><time>2026-04-06T10:58:21.999Z</time></trkpt><trkpt lat="37.66924792766875" lon="14.852286242828841"><ele>627.0</ele><time>2026-04-06T10:58:22.999Z</time></trkpt><trkpt lat="37.66940663014627" lon="14.852045791931692"><ele>627.0</ele><time>2026-04-06T10:58:23.999Z</time></trkpt><trkpt lat="37.66956057053528" lon="14.851813756910738"><ele>631.0</ele><time>2026-04-06T10:58:24.999Z</time></trkpt><trkpt lat="37.669705219178745" lon="14.85157572730445"><ele>635.0</ele><time>2026-04-06T10:58:25.999Z</time></trkpt><trkpt lat="37.669864057400595" lon="14.851342001896777"><ele>635.0</ele><time>2026-04-06T10:58:26.999Z</time></trkpt><trkpt lat="37.67001966079949" lon="14.851110512156275"><ele>635.0</ele><time>2026-04-06T10:58:27.999Z</time></trkpt><trkpt lat="37.670176064813475" lon="14.850875977844257"><ele>638.5</ele><time>2026-04-06T10:58:28.999Z</time></trkpt><trkpt lat="37.670329563851006" lon="14.850650856344739"><ele>642.0</ele><time>2026-04-06T10:58:29.999Z</time></trkpt><trkpt lat="37.67048141351066" lon="14.850421105852034"><ele>642.0</ele><time>2026-04-06T10:58:30.999Z</time></trkpt><trkpt lat="37.67063496645989" lon="14.850196652862632"><ele>642.0</ele><time>2026-04-06T10:58:31.999Z</time></trkpt><trkpt lat="37.67078694847824" lon="14.84996644216296"><ele>642.0</ele><time>2026-04-06T10:58:32.999Z</time></trkpt><trkpt lat="37.67093572087606" lon="14.849721667729204"><ele>642.0</ele><time>2026-04-06T10:58:33.999Z</time></trkpt><trkpt lat="37.671098657799206" lon="14.849498171640244"><ele>644.0</ele><time>2026-04-06T10:58:34.999Z</time></trkpt><trkpt lat="37.67125141975101" lon="14.849267961704399"><ele>646.0</ele><time>2026-04-06T10:58:35.999Z</time></trkpt><trkpt lat="37.671404772715164" lon="14.849036983460469"><ele>646.0</ele><time>2026-04-06T10:58:36.999Z</time></trkpt><trkpt lat="37.671556613263384" lon="14.848806052255652"><ele>646.0</ele><time>2026-04-06T10:58:37.999Z</time></trkpt><trkpt lat="37.671701768333186" lon="14.848555930352346"><ele>644.0</ele><time>2026-04-06T10:58:38.999Z</time></trkpt><trkpt lat="37.67186134113966" lon="14.848328475740304"><ele>642.0</ele><time>2026-04-06T10:58:39.999Z</time></trkpt><trkpt lat="37.67200924231253" lon="14.848082730851779"><ele>642.0</ele><time>2026-04-06T10:58:40.999Z</time></trkpt><trkpt lat="37.672157859811115" lon="14.847836711852747"><ele>642.0</ele><time>2026-04-06T10:58:41.999Z</time></trkpt><trkpt lat="37.672299117304014" lon="14.847581754332667"><ele>640.0</ele><time>2026-04-06T10:58:42.999Z</time></trkpt><trkpt lat="37.67243196965197" lon="14.847313172027759"><ele>638.0</ele><time>2026-04-06T10:58:43.999Z</time></trkpt><trkpt lat="37.672556877282105" lon="14.847038823705576"><ele>638.0</ele><time>2026-04-06T10:58:44.999Z</time></trkpt><trkpt lat="37.67266613761405" lon="14.846754250881823"><ele>638.0</ele><time>2026-04-06T10:58:45.999Z</time></trkpt><trkpt lat="37.67277151392522" lon="14.84646846746369"><ele>639.0</ele><time>2026-04-06T10:58:46.999Z</time></trkpt><trkpt lat="37.672862175597544" lon="14.846169583144016"><ele>640.0</ele><time>2026-04-06T10:58:47.999Z</time></trkpt><trkpt lat="37.67294726286727" lon="14.845867798589806"><ele>640.0</ele><time>2026-04-06T10:58:48.999Z</time></trkpt><trkpt lat="37.67303285428257" lon="14.84556707732088"><ele>640.0</ele><time>2026-04-06T10:58:49.999Z</time></trkpt><trkpt lat="37.673111887827794" lon="14.845259069309247"><ele>640.0</ele><time>2026-04-06T10:58:50.999Z</time></trkpt><trkpt lat="37.67319312591058" lon="14.844952975499078"><ele>640.0</ele><time>2026-04-06T10:58:51.999Z</time></trkpt><trkpt lat="37.673280739798905" lon="14.844646633057767"><ele>640.0</ele><time>2026-04-06T10:58:52.999Z</time></trkpt><trkpt lat="37.673368574450734" lon="14.844338064027951"><ele>640.0</ele><time>2026-04-06T10:58:53.999Z</time></trkpt><trkpt lat="37.67345746653301" lon="14.844031259751725"><ele>637.5</ele><time>2026-04-06T10:58:54.999Z</time></trkpt><trkpt lat="37.673543202038665" lon="14.843721737025685"><ele>635.0</ele><time>2026-04-06T10:58:55.999Z</time></trkpt><trkpt lat="37.67362518290107" lon="14.843419465360958"><ele>633.0</ele><time>2026-04-06T10:58:56.999Z</time></trkpt><trkpt lat="37.67370651679116" lon="14.843117730324522"><ele>631.0</ele><time>2026-04-06T10:58:57.999Z</time></trkpt><trkpt lat="37.67379304845083" lon="14.84282135271413"><ele>630.0</ele><time>2026-04-06T10:58:58.999Z</time></trkpt><trkpt lat="37.67388194318642" lon="14.84252700397984"><ele>629.0</ele><time>2026-04-06T10:58:59.999Z</time></trkpt><trkpt lat="37.67397049993906" lon="14.842231593843776"><ele>629.0</ele><time>2026-04-06T10:59:00.999Z</time></trkpt><trkpt lat="37.67405625255079" lon="14.841945832158059"><ele>629.0</ele><time>2026-04-06T10:59:01.999Z</time></trkpt><trkpt lat="37.67414090027766" lon="14.841655340358905"><ele>629.0</ele><time>2026-04-06T10:59:02.999Z</time></trkpt><trkpt lat="37.67422271393295" lon="14.841371040057933"><ele>629.0</ele><time>2026-04-06T10:59:03.999Z</time></trkpt><trkpt lat="37.67429912456666" lon="14.841089719361623"><ele>628.6666666666666</ele><time>2026-04-06T10:59:04.999Z</time></trkpt><trkpt lat="37.67437799902264" lon="14.840833353908192"><ele>628.3333333333334</ele><time>2026-04-06T10:59:05.999Z</time></trkpt><trkpt lat="37.67444521298887" lon="14.840599498280284"><ele>628.0</ele><time>2026-04-06T10:59:06.999Z</time></trkpt><trkpt lat="37.67450420675335" lon="14.840375691560034"><ele>629.3333333333334</ele><time>2026-04-06T10:59:07.999Z</time></trkpt><trkpt lat="37.67456481439526" lon="14.84016161650372"><ele>630.6666666666666</ele><time>2026-04-06T10:59:08.999Z</time></trkpt><trkpt lat="37.674630051827585" lon="14.839934381451206"><ele>632.0</ele><time>2026-04-06T10:59:09.999Z</time></trkpt><trkpt lat="37.6746950351561" lon="14.839704095200744"><ele>632.0</ele><time>2026-04-06T10:59:10.999Z</time></trkpt><trkpt lat="37.674758366187376" lon="14.839478498570813"><ele>632.0</ele><time>2026-04-06T10:59:11.999Z</time></trkpt><trkpt lat="37.67482033466373" lon="14.83924726210273"><ele>632.0</ele><time>2026-04-06T10:59:12.999Z</time></trkpt><trkpt lat="37.674903610854024" lon="14.839018815268599"><ele>630.6666666666666</ele><time>2026-04-06T10:59:13.999Z</time></trkpt><trkpt lat="37.67497025558344" lon="14.838788916005953"><ele>629.3333333333334</ele><time>2026-04-06T10:59:14.999Z</time></trkpt><trkpt lat="37.67502698885727" lon="14.838575104311346"><ele>628.0</ele><time>2026-04-06T10:59:15.999Z</time></trkpt><trkpt lat="37.675083460148414" lon="14.838397477552206"><ele>628.0</ele><time>2026-04-06T10:59:16.999Z</time></trkpt><trkpt lat="37.67513511862208" lon="14.838249660427946"><ele>628.0</ele><time>2026-04-06T10:59:17.998Z</time></trkpt><trkpt lat="37.67518225737633" lon="14.8381325665697"><ele>628.0</ele><time>2026-04-06T10:59:18.998Z</time></trkpt><trkpt lat="37.675227907521176" lon="14.838038918521962"><ele>628.0</ele><time>2026-04-06T10:59:19.998Z</time></trkpt><trkpt lat="37.675275499936575" lon="14.837955585109647"><ele>628.0</ele><time>2026-04-06T10:59:20.998Z</time></trkpt><trkpt lat="37.6753309357731" lon="14.837889415523085"><ele>628.8571428571428</ele><time>2026-04-06T10:59:21.998Z</time></trkpt><trkpt lat="37.67539942120084" lon="14.837847198609136"><ele>629.7142857142857</ele><time>2026-04-06T10:59:22.998Z</time></trkpt><trkpt lat="37.67547771449988" lon="14.837826751134443"><ele>630.5714285714286</ele><time>2026-04-06T10:59:23.998Z</time></trkpt><trkpt lat="37.67555525564852" lon="14.837819993639586"><ele>631.4285714285713</ele><time>2026-04-06T10:59:24.998Z</time></trkpt><trkpt lat="37.675631275000384" lon="14.83781884161612"><ele>632.2857142857142</ele><time>2026-04-06T10:59:25.998Z</time></trkpt><trkpt lat="37.67570073750882" lon="14.83780216740872"><ele>633.1428571428571</ele><time>2026-04-06T10:59:26.998Z</time></trkpt><trkpt lat="37.67574926858145" lon="14.837751186837794"><ele>634.0</ele><time>2026-04-06T10:59:27.998Z</time></trkpt><trkpt lat="37.67577470060692" lon="14.837660050928383"><ele>634.0</ele><time>2026-04-06T10:59:28.998Z</time></trkpt><trkpt lat="37.675805617107564" lon="14.837566684217691"><ele>634.0</ele><time>2026-04-06T10:59:29.998Z</time></trkpt><trkpt lat="37.67586149452236" lon="14.837494402074354"><ele>634.0</ele><time>2026-04-06T10:59:30.998Z</time></trkpt><trkpt lat="37.67591832757018" lon="14.837413451972827"><ele>634.0</ele><time>2026-04-06T10:59:32Z</time></trkpt><trkpt lat="37.67598540355502" lon="14.837326986565486"><ele>634.0</ele><time>2026-04-06T10:59:33Z</time></trkpt><trkpt lat="37.676063535172055" lon="14.837245753140804"><ele>634.0</ele><time>2026-04-06T10:59:34Z</time></trkpt><trkpt lat="37.676152437826325" lon="14.837167703917508"><ele>634.0</ele><time>2026-04-06T10:59:35Z</time></trkpt><trkpt lat="37.676243268670916" lon="14.837080711646287"><ele>634.0</ele><time>2026-04-06T10:59:36Z</time></trkpt><trkpt lat="37.67635662586746" lon="14.837018104537394"><ele>634.0</ele><time>2026-04-06T10:59:37Z</time></trkpt><trkpt lat="37.676478115159355" lon="14.83696136380441"><ele>634.0</ele><time>2026-04-06T10:59:38Z</time></trkpt><trkpt lat="37.6766168735771" lon="14.83693908433421"><ele>634.0</ele><time>2026-04-06T10:59:39Z</time></trkpt><trkpt lat="37.67674812170232" lon="14.836893002727285"><ele>634.0</ele><time>2026-04-06T10:59:40Z</time></trkpt><trkpt lat="37.67688885030946" lon="14.836887499522918"><ele>634.0</ele><time>2026-04-06T10:59:41Z</time></trkpt><trkpt lat="37.67703066772856" lon="14.836921608860926"><ele>634.0</ele><time>2026-04-06T10:59:42Z</time></trkpt><trkpt lat="37.677178882797236" lon="14.836911615455307"><ele>633.5</ele><time>2026-04-06T10:59:43Z</time></trkpt><trkpt lat="37.677323393013765" lon="14.836931367075909"><ele>633.0</ele><time>2026-04-06T10:59:44Z</time></trkpt><trkpt lat="37.67746722550191" lon="14.83694606059336"><ele>632.5</ele><time>2026-04-06T10:59:45Z</time></trkpt><trkpt lat="37.6776113715898" lon="14.836959850162032"><ele>632.0</ele><time>2026-04-06T10:59:46Z</time></trkpt><trkpt lat="37.67775414507104" lon="14.836999387676197"><ele>630.75</ele><time>2026-04-06T10:59:47Z</time></trkpt><trkpt lat="37.67789746897234" lon="14.837015391983991"><ele>629.5</ele><time>2026-04-06T10:59:48Z</time></trkpt><trkpt lat="37.67804003340321" lon="14.837031311483509"><ele>628.25</ele><time>2026-04-06T10:59:49Z</time></trkpt><trkpt lat="37.67818204138098" lon="14.837047264680765"><ele>627.0</ele><time>2026-04-06T10:59:50Z</time></trkpt><trkpt lat="37.67832177386347" lon="14.837063025315997"><ele>627.0</ele><time>2026-04-06T10:59:51Z</time></trkpt><trkpt lat="37.67845878554571" lon="14.837078149848493"><ele>627.0</ele><time>2026-04-06T10:59:52Z</time></trkpt><trkpt lat="37.67859698709565" lon="14.837093405737871"><ele>627.0</ele><time>2026-04-06T10:59:53Z</time></trkpt><trkpt lat="37.678736704002134" lon="14.837108828907935"><ele>627.0</ele><time>2026-04-06T10:59:54Z</time></trkpt><trkpt lat="37.67887915346505" lon="14.837124555042662"><ele>624.75</ele><time>2026-04-06T10:59:55Z</time></trkpt><trkpt lat="37.67901975287314" lon="14.837140030254831"><ele>622.5</ele><time>2026-04-06T10:59:56Z</time></trkpt><trkpt lat="37.67915931040499" lon="14.837154230384202"><ele>620.25</ele><time>2026-04-06T10:59:57Z</time></trkpt><trkpt lat="37.67929674231851" lon="14.837170139693718"><ele>618.0</ele><time>2026-04-06T10:59:58Z</time></trkpt><trkpt lat="37.679425712091884" lon="14.837186342331814"><ele>618.1999999999999</ele><time>2026-04-06T10:59:59Z</time></trkpt><trkpt lat="37.67954070603264" lon="14.837196445340417"><ele>618.4</ele><time>2026-04-06T11:00:00Z</time></trkpt><trkpt lat="37.6796444411072" lon="14.83717685577744"><ele>618.5999999999999</ele><time>2026-04-06T11:00:01Z</time></trkpt><trkpt lat="37.679736508314946" lon="14.837196403758876"><ele>618.8</ele><time>2026-04-06T11:00:02Z</time></trkpt><trkpt lat="37.679811507856364" lon="14.837225861074504"><ele>619.0</ele><time>2026-04-06T11:00:03Z</time></trkpt><trkpt lat="37.67991500254015" lon="14.837264083800216"><ele>619.0</ele><time>2026-04-06T11:00:05Z</time></trkpt><trkpt lat="37.68001037880921" lon="14.83729856053795"><ele>619.0</ele><time>2026-04-06T11:00:07Z</time></trkpt><trkpt lat="37.68007245453118" lon="14.837421869861737"><ele>619.0</ele><time>2026-04-06T11:00:09Z</time></trkpt><trkpt lat="37.68015783651669" lon="14.837538333347029"><ele>619.0</ele><time>2026-04-06T11:00:11Z</time></trkpt><trkpt lat="37.68021459316477" lon="14.837608418270634"><ele>619.0</ele><time>2026-04-06T11:00:11.999Z</time></trkpt><trkpt lat="37.68029673255803" lon="14.837661211101578"><ele>619.4</ele><time>2026-04-06T11:00:12.999Z</time></trkpt><trkpt lat="37.68038439267357" lon="14.837694416848457"><ele>619.8</ele><time>2026-04-06T11:00:13.999Z</time></trkpt><trkpt lat="37.680489881481336" lon="14.837685615213267"><ele>620.2</ele><time>2026-04-06T11:00:14.999Z</time></trkpt><trkpt lat="37.680585721047514" lon="14.83769366151397"><ele>620.6</ele><time>2026-04-06T11:00:15.999Z</time></trkpt><trkpt lat="37.680684367090905" lon="14.837734094912015"><ele>621.0</ele><time>2026-04-06T11:00:16.999Z</time></trkpt><trkpt lat="37.680790409936975" lon="14.837774947643073"><ele>621.0</ele><time>2026-04-06T11:00:17.999Z</time></trkpt><trkpt lat="37.6809072248715" lon="14.837812299195164"><ele>621.0</ele><time>2026-04-06T11:00:18.999Z</time></trkpt><trkpt lat="37.68103279198852" lon="14.837809562136247"><ele>621.0</ele><time>2026-04-06T11:00:19.999Z</time></trkpt><trkpt lat="37.6811634606772" lon="14.837814529572904"><ele>621.0</ele><time>2026-04-06T11:00:20.999Z</time></trkpt><trkpt lat="37.68130367578541" lon="14.837838988102682"><ele>622.6666666666666</ele><time>2026-04-06T11:00:21.999Z</time></trkpt><trkpt lat="37.68145299355052" lon="14.837844071856003"><ele>624.3333333333333</ele><time>2026-04-06T11:00:22.999Z</time></trkpt><trkpt lat="37.68160579799102" lon="14.83785125569351"><ele>626.0</ele><time>2026-04-06T11:00:23.999Z</time></trkpt><trkpt lat="37.68176026366153" lon="14.837858517631219"><ele>626.0</ele><time>2026-04-06T11:00:24.999Z</time></trkpt><trkpt lat="37.681905427005276" lon="14.83786534223322"><ele>626.0</ele><time>2026-04-06T11:00:25.999Z</time></trkpt><trkpt lat="37.682035066633084" lon="14.837877418848393"><ele>626.0</ele><time>2026-04-06T11:00:26.999Z</time></trkpt><trkpt lat="37.68214817151572" lon="14.837918875309898"><ele>626.0</ele><time>2026-04-06T11:00:27.999Z</time></trkpt><trkpt lat="37.68221298331191" lon="14.837999376843186"><ele>626.0</ele><time>2026-04-06T11:00:28.999Z</time></trkpt><trkpt lat="37.68228627245842" lon="14.838077455922226"><ele>626.0</ele><time>2026-04-06T11:00:29.999Z</time></trkpt><trkpt lat="37.68236499313566" lon="14.838167320559554"><ele>626.0</ele><time>2026-04-06T11:00:30.999Z</time></trkpt><trkpt lat="37.682453052660264" lon="14.838267392168271"><ele>626.0</ele><time>2026-04-06T11:00:31.999Z</time></trkpt><trkpt lat="37.68254460832123" lon="14.838371436799587"><ele>626.0</ele><time>2026-04-06T11:00:32.999Z</time></trkpt><trkpt lat="37.682641293760696" lon="14.838481359223607"><ele>626.25</ele><time>2026-04-06T11:00:33.999Z</time></trkpt><trkpt lat="37.68274914126339" lon="14.838586709105964"><ele>626.5</ele><time>2026-04-06T11:00:34.999Z</time></trkpt><trkpt lat="37.68284971150206" lon="14.838702661548698"><ele>626.75</ele><time>2026-04-06T11:00:35.999Z</time></trkpt><trkpt lat="37.682950783004415" lon="14.83881392235277"><ele>627.0</ele><time>2026-04-06T11:00:36.999Z</time></trkpt><trkpt lat="37.68304819044747" lon="14.838927360016408"><ele>627.25</ele><time>2026-04-06T11:00:37.999Z</time></trkpt><trkpt lat="37.683134788635186" lon="14.839042942161054"><ele>627.5</ele><time>2026-04-06T11:00:38.999Z</time></trkpt><trkpt lat="37.68322535647065" lon="14.839146143560644"><ele>627.75</ele><time>2026-04-06T11:00:39.999Z</time></trkpt><trkpt lat="37.68331283109292" lon="14.839245820160507"><ele>628.0</ele><time>2026-04-06T11:00:40.999Z</time></trkpt><trkpt lat="37.68340096128912" lon="14.839347209390585"><ele>628.4</ele><time>2026-04-06T11:00:41.999Z</time></trkpt><trkpt lat="37.68348850796648" lon="14.83944792257537"><ele>628.8</ele><time>2026-04-06T11:00:42.999Z</time></trkpt><trkpt lat="37.68357520468446" lon="14.83954765777584"><ele>629.2</ele><time>2026-04-06T11:00:43.999Z</time></trkpt><trkpt lat="37.68365822785559" lon="14.83964316703129"><ele>629.6</ele><time>2026-04-06T11:00:44.999Z</time></trkpt><trkpt lat="37.683730114797804" lon="14.839725865226"><ele>630.0</ele><time>2026-04-06T11:00:45.999Z</time></trkpt><trkpt lat="37.68379123174556" lon="14.839796173701057"><ele>630.5</ele><time>2026-04-06T11:00:46.999Z</time></trkpt><trkpt lat="37.683862022368686" lon="14.839876722959193"><ele>631.0</ele><time>2026-04-06T11:00:47.999Z</time></trkpt><trkpt lat="37.683941596916455" lon="14.83996858601716"><ele>631.5</ele><time>2026-04-06T11:00:48.999Z</time></trkpt><trkpt lat="37.684054775716966" lon="14.840039386074025"><ele>632.0</ele><time>2026-04-06T11:00:49.999Z</time></trkpt><trkpt lat="37.684148315343705" lon="14.84015228280072"><ele>632.25</ele><time>2026-04-06T11:00:50.999Z</time></trkpt><trkpt lat="37.68424427615498" lon="14.84025921171886"><ele>632.5</ele><time>2026-04-06T11:00:51.999Z</time></trkpt><trkpt lat="37.68434579577748" lon="14.840348278095858"><ele>632.75</ele><time>2026-04-06T11:00:52.999Z</time></trkpt><trkpt lat="37.68444506077273" lon="14.840452197744177"><ele>633.0</ele><time>2026-04-06T11:00:53.999Z</time></trkpt><trkpt lat="37.684573833265574" lon="14.84050739628886"><ele>633.0</ele><time>2026-04-06T11:00:54.999Z</time></trkpt><trkpt lat="37.68470568341339" lon="14.84054361247202"><ele>633.0</ele><time>2026-04-06T11:00:55.999Z</time></trkpt><trkpt lat="37.6848361172874" lon="14.840576901733277"><ele>633.0</ele><time>2026-04-06T11:00:56.999Z</time></trkpt><trkpt lat="37.684964434374116" lon="14.840614945009115"><ele>633.0</ele><time>2026-04-06T11:00:57.999Z</time></trkpt><trkpt lat="37.68509187625501" lon="14.840655447885881"><ele>633.0</ele><time>2026-04-06T11:00:58.999Z</time></trkpt><trkpt lat="37.68522104444488" lon="14.840701801132319"><ele>633.0</ele><time>2026-04-06T11:00:59.999Z</time></trkpt><trkpt lat="37.685352546665555" lon="14.840753101949744"><ele>633.0</ele><time>2026-04-06T11:01:00.999Z</time></trkpt><trkpt lat="37.68548252882227" lon="14.84080411364613"><ele>633.0</ele><time>2026-04-06T11:01:01.999Z</time></trkpt><trkpt lat="37.68561431090544" lon="14.840855831807229"><ele>633.25</ele><time>2026-04-06T11:01:02.999Z</time></trkpt><trkpt lat="37.6857469921764" lon="14.840907902801746"><ele>633.5</ele><time>2026-04-06T11:01:03.999Z</time></trkpt><trkpt lat="37.68588029827246" lon="14.840960219035635"><ele>633.75</ele><time>2026-04-06T11:01:04.999Z</time></trkpt><trkpt lat="37.68601613239022" lon="14.84101352735483"><ele>634.0</ele><time>2026-04-06T11:01:05.999Z</time></trkpt><trkpt lat="37.686153411595804" lon="14.841066473266816"><ele>636.5</ele><time>2026-04-06T11:01:06.999Z</time></trkpt><trkpt lat="37.68629192631911" lon="14.841111504732707"><ele>639.0</ele><time>2026-04-06T11:01:07.999Z</time></trkpt><trkpt lat="37.68643096535284" lon="14.841149788576836"><ele>641.5</ele><time>2026-04-06T11:01:08.999Z</time></trkpt><trkpt lat="37.68657774612756" lon="14.841177263664122"><ele>644.0</ele><time>2026-04-06T11:01:09.999Z</time></trkpt><trkpt lat="37.68672930407767" lon="14.841182253835779"><ele>644.0</ele><time>2026-04-06T11:01:10.999Z</time></trkpt><trkpt lat="37.686879167915585" lon="14.841172806034292"><ele>644.0</ele><time>2026-04-06T11:01:11.999Z</time></trkpt><trkpt lat="37.68702709630891" lon="14.841160622224598"><ele>644.0</ele><time>2026-04-06T11:01:12.999Z</time></trkpt><trkpt lat="37.68717231037849" lon="14.841148661973087"><ele>644.0</ele><time>2026-04-06T11:01:13.999Z</time></trkpt><trkpt lat="37.68730894995737" lon="14.841137148838557"><ele>643.5</ele><time>2026-04-06T11:01:14.998Z</time></trkpt><trkpt lat="37.687441432372324" lon="14.841125329505012"><ele>643.0</ele><time>2026-04-06T11:01:15.998Z</time></trkpt><trkpt lat="37.68757301058068" lon="14.841113590842038"><ele>642.5</ele><time>2026-04-06T11:01:16.998Z</time></trkpt><trkpt lat="37.687697761569446" lon="14.841102498615793"><ele>642.0</ele><time>2026-04-06T11:01:17.998Z</time></trkpt><trkpt lat="37.68781142788955" lon="14.84109694864079"><ele>641.2</ele><time>2026-04-06T11:01:18.998Z</time></trkpt><trkpt lat="37.687917750085745" lon="14.841092908911083"><ele>640.4000000000001</ele><time>2026-04-06T11:01:19.998Z</time></trkpt><trkpt lat="37.68801193766931" lon="14.841087584352705"><ele>639.5999999999999</ele><time>2026-04-06T11:01:20.998Z</time></trkpt><trkpt lat="37.688106024607485" lon="14.841078528863035"><ele>638.8</ele><time>2026-04-06T11:01:21.998Z</time></trkpt><trkpt lat="37.688184839988836" lon="14.841056006862008"><ele>638.0</ele><time>2026-04-06T11:01:22.998Z</time></trkpt><trkpt lat="37.68825089296475" lon="14.841012804882048"><ele>636.6666666666666</ele><time>2026-04-06T11:01:23.998Z</time></trkpt><trkpt lat="37.68831663183722" lon="14.840961277852104"><ele>635.3333333333333</ele><time>2026-04-06T11:01:24.998Z</time></trkpt><trkpt lat="37.688362626730495" lon="14.840885011241358"><ele>634.0</ele><time>2026-04-06T11:01:25.998Z</time></trkpt><trkpt lat="37.68840486392765" lon="14.840814348987468"><ele>632.6666666666666</ele><time>2026-04-06T11:01:26.998Z</time></trkpt><trkpt lat="37.68847258321279" lon="14.840768358380721"><ele>631.3333333333334</ele><time>2026-04-06T11:01:27.998Z</time></trkpt><trkpt lat="37.68854962284413" lon="14.840746996604246"><ele>630.0</ele><time>2026-04-06T11:01:28.998Z</time></trkpt><trkpt lat="37.688625355673615" lon="14.84071614331831"><ele>629.8</ele><time>2026-04-06T11:01:29.998Z</time></trkpt><trkpt lat="37.688740301801836" lon="14.840739279308755"><ele>629.6</ele><time>2026-04-06T11:01:31.998Z</time></trkpt><trkpt lat="37.68883491187907" lon="14.840847386516433"><ele>629.4</ele><time>2026-04-06T11:01:33.998Z</time></trkpt><trkpt lat="37.68887755158892" lon="14.840925411930234"><ele>629.2</ele><time>2026-04-06T11:01:34.998Z</time></trkpt><trkpt lat="37.688931481865794" lon="14.841002295024438"><ele>629.0</ele><time>2026-04-06T11:01:35.998Z</time></trkpt><trkpt lat="37.689024156820736" lon="14.841074285183465"><ele>629.5</ele><time>2026-04-06T11:01:36.998Z</time></trkpt><trkpt lat="37.6891393390821" lon="14.841100309591301"><ele>630.0</ele><time>2026-04-06T11:01:38Z</time></trkpt><trkpt lat="37.689246897885006" lon="14.841147532499885"><ele>630.5</ele><time>2026-04-06T11:01:39Z</time></trkpt><trkpt lat="37.68936554795311" lon="14.841160106832502"><ele>631.0</ele><time>2026-04-06T11:01:40Z</time></trkpt><trkpt lat="37.68948946043218" lon="14.841200543719893"><ele>631.0</ele><time>2026-04-06T11:01:41Z</time></trkpt><trkpt lat="37.689612733696904" lon="14.84125335248153"><ele>631.0</ele><time>2026-04-06T11:01:42Z</time></trkpt><trkpt lat="37.689732111101335" lon="14.841337783135417"><ele>631.0</ele><time>2026-04-06T11:01:43Z</time></trkpt><trkpt lat="37.689838543281006" lon="14.841429642567316"><ele>631.0</ele><time>2026-04-06T11:01:44Z</time></trkpt><trkpt lat="37.68993181090644" lon="14.841535899640657"><ele>631.0</ele><time>2026-04-06T11:01:45Z</time></trkpt><trkpt lat="37.69001108553204" lon="14.841654639933989"><ele>631.0</ele><time>2026-04-06T11:01:46Z</time></trkpt><trkpt lat="37.69004986533446" lon="14.841788066522236"><ele>631.0</ele><time>2026-04-06T11:01:47Z</time></trkpt><trkpt lat="37.690091182496396" lon="14.841931187682126"><ele>631.0</ele><time>2026-04-06T11:01:48Z</time></trkpt><trkpt lat="37.69014763801825" lon="14.842062852763133"><ele>632.6</ele><time>2026-04-06T11:01:49Z</time></trkpt><trkpt lat="37.69023045624242" lon="14.842178752015748"><ele>634.2</ele><time>2026-04-06T11:01:50Z</time></trkpt><trkpt lat="37.69032216386775" lon="14.842271124405377"><ele>635.8</ele><time>2026-04-06T11:01:51Z</time></trkpt><trkpt lat="37.69042510021302" lon="14.842311237656299"><ele>637.4</ele><time>2026-04-06T11:01:52Z</time></trkpt><trkpt lat="37.690524658958324" lon="14.842311774533036"><ele>639.0</ele><time>2026-04-06T11:01:53Z</time></trkpt><trkpt lat="37.69062589795101" lon="14.842265415515632"><ele>639.0</ele><time>2026-04-06T11:01:54Z</time></trkpt><trkpt lat="37.69073677149066" lon="14.842183970274956"><ele>639.0</ele><time>2026-04-06T11:01:55Z</time></trkpt><trkpt lat="37.69083926585408" lon="14.842079793200101"><ele>639.0</ele><time>2026-04-06T11:01:56Z</time></trkpt><trkpt lat="37.690960762857834" lon="14.842011878127966"><ele>639.0</ele><time>2026-04-06T11:01:57Z</time></trkpt><trkpt lat="37.69108121289075" lon="14.841965703738571"><ele>637.75</ele><time>2026-04-06T11:01:58Z</time></trkpt><trkpt lat="37.69119480297105" lon="14.841962042509433"><ele>636.5</ele><time>2026-04-06T11:01:59Z</time></trkpt><trkpt lat="37.69129759261544" lon="14.841996718937995"><ele>635.25</ele><time>2026-04-06T11:02:00Z</time></trkpt><trkpt lat="37.69139522791703" lon="14.842057654890368"><ele>634.0</ele><time>2026-04-06T11:02:01Z</time></trkpt><trkpt lat="37.69151452711132" lon="14.842127946921556"><ele>634.0</ele><time>2026-04-06T11:02:02Z</time></trkpt><trkpt lat="37.69164031101435" lon="14.842197915731411"><ele>634.0</ele><time>2026-04-06T11:02:03Z</time></trkpt><trkpt lat="37.6917733147403" lon="14.842256002273446"><ele>634.0</ele><time>2026-04-06T11:02:04Z</time></trkpt><trkpt lat="37.69190409576352" lon="14.84231182326298"><ele>634.0</ele><time>2026-04-06T11:02:05Z</time></trkpt><trkpt lat="37.6920348141868" lon="14.842367617494396"><ele>630.75</ele><time>2026-04-06T11:02:06Z</time></trkpt><trkpt lat="37.692168961444494" lon="14.842424875244928"><ele>627.5</ele><time>2026-04-06T11:02:07Z</time></trkpt><trkpt lat="37.69230491747077" lon="14.842482905017576"><ele>624.25</ele><time>2026-04-06T11:02:08Z</time></trkpt><trkpt lat="37.69244483515007" lon="14.84252107838478"><ele>621.0</ele><time>2026-04-06T11:02:09Z</time></trkpt><trkpt lat="37.692574571468846" lon="14.84259666562901"><ele>621.25</ele><time>2026-04-06T11:02:10Z</time></trkpt><trkpt lat="37.69271056572022" lon="14.842649274745877"><ele>621.5</ele><time>2026-04-06T11:02:10.999Z</time></trkpt><trkpt lat="37.69285380130272" lon="14.842683276909678"><ele>621.75</ele><time>2026-04-06T11:02:11.999Z</time></trkpt><trkpt lat="37.69299736734291" lon="14.84265415180723"><ele>622.0</ele><time>2026-04-06T11:02:12.999Z</time></trkpt><trkpt lat="37.69313238385177" lon="14.842623753367077"><ele>622.0</ele><time>2026-04-06T11:02:13.999Z</time></trkpt><trkpt lat="37.69326249315017" lon="14.842573597630176"><ele>622.0</ele><time>2026-04-06T11:02:14.999Z</time></trkpt><trkpt lat="37.69339143247369" lon="14.842542915122674"><ele>622.0</ele><time>2026-04-06T11:02:15.999Z</time></trkpt><trkpt lat="37.69351952453922" lon="14.842503337853145"><ele>622.0</ele><time>2026-04-06T11:02:16.999Z</time></trkpt><trkpt lat="37.69364376781172" lon="14.84246494975547"><ele>623.8000000000001</ele><time>2026-04-06T11:02:17.999Z</time></trkpt><trkpt lat="37.6937616431725" lon="14.84242852918078"><ele>625.6</ele><time>2026-04-06T11:02:18.999Z</time></trkpt><trkpt lat="37.69387231522229" lon="14.842394334265126"><ele>627.4000000000001</ele><time>2026-04-06T11:02:19.999Z</time></trkpt><trkpt lat="37.69397164264302" lon="14.842363644463575"><ele>629.2</ele><time>2026-04-06T11:02:20.999Z</time></trkpt><trkpt lat="37.69405961367418" lon="14.842342526634713"><ele>631.0</ele><time>2026-04-06T11:02:21.999Z</time></trkpt><trkpt lat="37.69414079911258" lon="14.842336913547847"><ele>631.0</ele><time>2026-04-06T11:02:22.999Z</time></trkpt><trkpt lat="37.69422340751948" lon="14.842341199946176"><ele>631.0</ele><time>2026-04-06T11:02:23.999Z</time></trkpt><trkpt lat="37.69431312797832" lon="14.842349533903505"><ele>631.0</ele><time>2026-04-06T11:02:24.999Z</time></trkpt><trkpt lat="37.69440434702124" lon="14.842362489387703"><ele>631.0</ele><time>2026-04-06T11:02:25.999Z</time></trkpt><trkpt lat="37.69449278875029" lon="14.84237960280942"><ele>631.0</ele><time>2026-04-06T11:02:26.999Z</time></trkpt><trkpt lat="37.69459487016553" lon="14.84239967751612"><ele>630.3333333333334</ele><time>2026-04-06T11:02:27.999Z</time></trkpt><trkpt lat="37.694696010702806" lon="14.842419567218208"><ele>629.6666666666667</ele><time>2026-04-06T11:02:28.999Z</time></trkpt><trkpt lat="37.69479558343737" lon="14.842437550535145"><ele>629.0</ele><time>2026-04-06T11:02:29.999Z</time></trkpt><trkpt lat="37.694877185588076" lon="14.842450573651776"><ele>628.3333333333334</ele><time>2026-04-06T11:02:30.999Z</time></trkpt><trkpt lat="37.69495646260693" lon="14.842447720393714"><ele>627.6666666666666</ele><time>2026-04-06T11:02:31.999Z</time></trkpt><trkpt lat="37.69503419165229" lon="14.842444118180863"><ele>627.0</ele><time>2026-04-06T11:02:32.999Z</time></trkpt><trkpt lat="37.69511320790312" lon="14.842432441131875"><ele>627.0</ele><time>2026-04-06T11:02:33.999Z</time></trkpt><trkpt lat="37.69517886649737" lon="14.842418137399967"><ele>627.0</ele><time>2026-04-06T11:02:34.999Z</time></trkpt><trkpt lat="37.695241231464614" lon="14.842401629043188"><ele>627.0</ele><time>2026-04-06T11:02:35.999Z</time></trkpt><trkpt lat="37.69531226442651" lon="14.842377522644933"><ele>627.0</ele><time>2026-04-06T11:02:36.999Z</time></trkpt><trkpt lat="37.69538161687121" lon="14.842344090240399"><ele>627.0</ele><time>2026-04-06T11:02:37.999Z</time></trkpt><trkpt lat="37.6954531018629" lon="14.84228158851758"><ele>627.0</ele><time>2026-04-06T11:02:38.999Z</time></trkpt><trkpt lat="37.69552058206899" lon="14.842227561245718"><ele>627.0</ele><time>2026-04-06T11:02:39.999Z</time></trkpt><trkpt lat="37.69553810585477" lon="14.842092491568602"><ele>626.8000000000001</ele><time>2026-04-06T11:02:40.999Z</time></trkpt><trkpt lat="37.69555834079768" lon="14.84197853694539"><ele>626.6</ele><time>2026-04-06T11:02:41.999Z</time></trkpt><trkpt lat="37.69557577527288" lon="14.841844406246837"><ele>626.4000000000001</ele><time>2026-04-06T11:02:42.999Z</time></trkpt><trkpt lat="37.69559080358084" lon="14.841687427139169"><ele>626.2</ele><time>2026-04-06T11:02:43.999Z</time></trkpt><trkpt lat="37.69559276146256" lon="14.841536153702853"><ele>626.0</ele><time>2026-04-06T11:02:44.999Z</time></trkpt><trkpt lat="37.695594444409366" lon="14.841372175007635"><ele>624.6</ele><time>2026-04-06T11:02:45.999Z</time></trkpt><trkpt lat="37.695590746085365" lon="14.841222656619019"><ele>623.2</ele><time>2026-04-06T11:02:46.999Z</time></trkpt><trkpt lat="37.69560246878591" lon="14.841097052761842"><ele>621.8</ele><time>2026-04-06T11:02:47.999Z</time></trkpt><trkpt lat="37.69564119435146" lon="14.840998474847032"><ele>620.4</ele><time>2026-04-06T11:02:48.999Z</time></trkpt><trkpt lat="37.69570195591871" lon="14.840923199210792"><ele>619.0</ele><time>2026-04-06T11:02:49.999Z</time></trkpt><trkpt lat="37.695797168500164" lon="14.840918435136972"><ele>618.0</ele><time>2026-04-06T11:02:50.999Z</time></trkpt><trkpt lat="37.69589264577375" lon="14.840905312627449"><ele>617.0</ele><time>2026-04-06T11:02:51.999Z</time></trkpt><trkpt lat="37.695993241123034" lon="14.840864147989967"><ele>616.0</ele><time>2026-04-06T11:02:52.999Z</time></trkpt><trkpt lat="37.69609327822229" lon="14.840778737503538"><ele>615.0</ele><time>2026-04-06T11:02:53.999Z</time></trkpt><trkpt lat="37.6961962610636" lon="14.84067007501604"><ele>615.0</ele><time>2026-04-06T11:02:54.999Z</time></trkpt><trkpt lat="37.696284308770714" lon="14.840532628272033"><ele>615.0</ele><time>2026-04-06T11:02:55.999Z</time></trkpt><trkpt lat="37.69636163926863" lon="14.840370609612643"><ele>615.0</ele><time>2026-04-06T11:02:56.999Z</time></trkpt><trkpt lat="37.69644101084758" lon="14.840202875751755"><ele>615.0</ele><time>2026-04-06T11:02:57.999Z</time></trkpt><trkpt lat="37.696526016906375" lon="14.84002363385881"><ele>613.0</ele><time>2026-04-06T11:02:58.999Z</time></trkpt><trkpt lat="37.69661489164817" lon="14.839846786551359"><ele>611.0</ele><time>2026-04-06T11:02:59.999Z</time></trkpt><trkpt lat="37.69670707905785" lon="14.839686456921344"><ele>609.0</ele><time>2026-04-06T11:03:00.999Z</time></trkpt><trkpt lat="37.69680822566279" lon="14.839550701115709"><ele>609.5</ele><time>2026-04-06T11:03:01.999Z</time></trkpt><trkpt lat="37.69693539988348" lon="14.83948246965049"><ele>610.0</ele><time>2026-04-06T11:03:02.999Z</time></trkpt><trkpt lat="37.69705772453217" lon="14.83944672609143"><ele>610.5</ele><time>2026-04-06T11:03:03.999Z</time></trkpt><trkpt lat="37.69717231985789" lon="14.83945727387956"><ele>611.0</ele><time>2026-04-06T11:03:04.999Z</time></trkpt><trkpt lat="37.697284960297424" lon="14.839469708480019"><ele>611.0</ele><time>2026-04-06T11:03:05.999Z</time></trkpt><trkpt lat="37.69739901649852" lon="14.839489729226168"><ele>611.0</ele><time>2026-04-06T11:03:06.999Z</time></trkpt><trkpt lat="37.69752274292181" lon="14.839490579563279"><ele>611.0</ele><time>2026-04-06T11:03:07.999Z</time></trkpt><trkpt lat="37.69764601829376" lon="14.839520458203127"><ele>611.0</ele><time>2026-04-06T11:03:08.999Z</time></trkpt><trkpt lat="37.69776721604371" lon="14.839542044629294"><ele>611.25</ele><time>2026-04-06T11:03:09.999Z</time></trkpt><trkpt lat="37.697884465259335" lon="14.83955039892937"><ele>611.5</ele><time>2026-04-06T11:03:10.999Z</time></trkpt><trkpt lat="37.697996703233464" lon="14.839534090636768"><ele>611.75</ele><time>2026-04-06T11:03:11.999Z</time></trkpt><trkpt lat="37.69810802431999" lon="14.839514073469417"><ele>612.0</ele><time>2026-04-06T11:03:12.998Z</time></trkpt><trkpt lat="37.698195539530765" lon="14.839407474070688"><ele>610.0</ele><time>2026-04-06T11:03:13.998Z</time></trkpt><trkpt lat="37.698278936962936" lon="14.83929971517029"><ele>608.0</ele><time>2026-04-06T11:03:14.998Z</time></trkpt><trkpt lat="37.698352373913465" lon="14.839173009012269"><ele>606.0</ele><time>2026-04-06T11:03:15.998Z</time></trkpt><trkpt lat="37.69842607348338" lon="14.839043138294258"><ele>604.0</ele><time>2026-04-06T11:03:16.998Z</time></trkpt><trkpt lat="37.69850487499394" lon="14.83891752695816"><ele>604.0</ele><time>2026-04-06T11:03:17.998Z</time></trkpt><trkpt lat="37.698584407065574" lon="14.838794678201491"><ele>604.0</ele><time>2026-04-06T11:03:18.998Z</time></trkpt><trkpt lat="37.69866231018566" lon="14.838674189382056"><ele>604.0</ele><time>2026-04-06T11:03:19.998Z</time></trkpt><trkpt lat="37.69874181716869" lon="14.838557423503428"><ele>604.0</ele><time>2026-04-06T11:03:20.998Z</time></trkpt><trkpt lat="37.698828480529386" lon="14.83844559515129"><ele>602.25</ele><time>2026-04-06T11:03:21.998Z</time></trkpt><trkpt lat="37.69893576052693" lon="14.838357127206638"><ele>600.5</ele><time>2026-04-06T11:03:22.998Z</time></trkpt><trkpt lat="37.6990392528132" lon="14.83825617975021"><ele>598.75</ele><time>2026-04-06T11:03:23.998Z</time></trkpt><trkpt lat="37.699132465649434" lon="14.838141001872389"><ele>597.0</ele><time>2026-04-06T11:03:24.998Z</time></trkpt><trkpt lat="37.6992381137011" lon="14.838048544231842"><ele>597.0</ele><time>2026-04-06T11:03:25.998Z</time></trkpt><trkpt lat="37.69934716322353" lon="14.837970908289734"><ele>597.0</ele><time>2026-04-06T11:03:26.998Z</time></trkpt><trkpt lat="37.69946677195258" lon="14.837908785844569"><ele>597.0</ele><time>2026-04-06T11:03:27.998Z</time></trkpt><trkpt lat="37.69959481633266" lon="14.837860052256035"><ele>597.0</ele><time>2026-04-06T11:03:28.998Z</time></trkpt><trkpt lat="37.69973032291389" lon="14.837820455925776"><ele>597.75</ele><time>2026-04-06T11:03:29.998Z</time></trkpt><trkpt lat="37.69986698036804" lon="14.83778780471463"><ele>598.5</ele><time>2026-04-06T11:03:30.998Z</time></trkpt><trkpt lat="37.700017437150045" lon="14.837776313249973"><ele>599.25</ele><time>2026-04-06T11:03:31.998Z</time></trkpt><trkpt lat="37.70016350077496" lon="14.837757883844285"><ele>600.0</ele><time>2026-04-06T11:03:32.998Z</time></trkpt><trkpt lat="37.70030840362026" lon="14.837766911477264"><ele>601.3333333333334</ele><time>2026-04-06T11:03:33.998Z</time></trkpt><trkpt lat="37.700454110464136" lon="14.837805842208216"><ele>602.6666666666667</ele><time>2026-04-06T11:03:34.998Z</time></trkpt><trkpt lat="37.700600781706775" lon="14.837849318752712"><ele>604.0</ele><time>2026-04-06T11:03:35.998Z</time></trkpt><trkpt lat="37.70074735845855" lon="14.837893191103298"><ele>604.0</ele><time>2026-04-06T11:03:36.998Z</time></trkpt><trkpt lat="37.70089672201527" lon="14.83793789760646"><ele>604.0</ele><time>2026-04-06T11:03:37.998Z</time></trkpt><trkpt lat="37.70104419286118" lon="14.837982037690958"><ele>604.0</ele><time>2026-04-06T11:03:38.998Z</time></trkpt><trkpt lat="37.70119697534715" lon="14.838027644409769"><ele>602.6666666666667</ele><time>2026-04-06T11:03:39.998Z</time></trkpt><trkpt lat="37.70135179956546" lon="14.838073571675361"><ele>601.3333333333334</ele><time>2026-04-06T11:03:40.998Z</time></trkpt><trkpt lat="37.70150577974424" lon="14.838118244646727"><ele>600.0</ele><time>2026-04-06T11:03:41.998Z</time></trkpt><trkpt lat="37.701655300640084" lon="14.838158162329167"><ele>600.0</ele><time>2026-04-06T11:03:42.998Z</time></trkpt><trkpt lat="37.701802775115546" lon="14.838192632033905"><ele>600.0</ele><time>2026-04-06T11:03:44Z</time></trkpt><trkpt lat="37.70194643785904" lon="14.838223163890508"><ele>600.0</ele><time>2026-04-06T11:03:45Z</time></trkpt><trkpt lat="37.70208766095546" lon="14.83825775064651"><ele>600.0</ele><time>2026-04-06T11:03:46Z</time></trkpt><trkpt lat="37.70222681104342" lon="14.838310449839911"><ele>600.25</ele><time>2026-04-06T11:03:47Z</time></trkpt><trkpt lat="37.70236364882447" lon="14.83837240789326"><ele>600.5</ele><time>2026-04-06T11:03:48Z</time></trkpt><trkpt lat="37.70249097968906" lon="14.838445828387032"><ele>600.75</ele><time>2026-04-06T11:03:49Z</time></trkpt><trkpt lat="37.7026037134034" lon="14.838528672611355"><ele>601.0</ele><time>2026-04-06T11:03:50Z</time></trkpt><trkpt lat="37.70270022628054" lon="14.838626809926307"><ele>603.75</ele><time>2026-04-06T11:03:51Z</time></trkpt><trkpt lat="37.702778101236596" lon="14.838748047008146"><ele>606.5</ele><time>2026-04-06T11:03:52Z</time></trkpt><trkpt lat="37.70283488036349" lon="14.838884705669328"><ele>609.25</ele><time>2026-04-06T11:03:53Z</time></trkpt><trkpt lat="37.70288064806686" lon="14.839012097347625"><ele>612.0</ele><time>2026-04-06T11:03:54Z</time></trkpt><trkpt lat="37.702942826983765" lon="14.839111510353005"><ele>612.0</ele><time>2026-04-06T11:03:55Z</time></trkpt><trkpt lat="37.70299324582652" lon="14.839194753093702"><ele>612.0</ele><time>2026-04-06T11:03:56Z</time></trkpt><trkpt lat="37.70309457371666" lon="14.839178152847255"><ele>612.0</ele><time>2026-04-06T11:03:57Z</time></trkpt><trkpt lat="37.70317576583747" lon="14.83919417329037"><ele>612.0</ele><time>2026-04-06T11:03:58Z</time></trkpt><trkpt lat="37.70326102655713" lon="14.839089920132823"><ele>612.0</ele><time>2026-04-06T11:03:59Z</time></trkpt><trkpt lat="37.70333932822277" lon="14.83901900191575"><ele>612.0</ele><time>2026-04-06T11:04:00Z</time></trkpt><trkpt lat="37.70342780346744" lon="14.83894133527178"><ele>612.0</ele><time>2026-04-06T11:04:01Z</time></trkpt><trkpt lat="37.70353648759252" lon="14.838883063291364"><ele>612.0</ele><time>2026-04-06T11:04:02Z</time></trkpt><trkpt lat="37.70363869453615" lon="14.83880237860702"><ele>612.0</ele><time>2026-04-06T11:04:03Z</time></trkpt><trkpt lat="37.703743859422076" lon="14.838722047453135"><ele>614.0</ele><time>2026-04-06T11:04:04Z</time></trkpt><trkpt lat="37.703851357021364" lon="14.838659463724712"><ele>616.0</ele><time>2026-04-06T11:04:05Z</time></trkpt><trkpt lat="37.703967291576824" lon="14.838617472218917"><ele>618.0</ele><time>2026-04-06T11:04:06Z</time></trkpt><trkpt lat="37.70408480318901" lon="14.838578309125058"><ele>620.0</ele><time>2026-04-06T11:04:07Z</time></trkpt><trkpt lat="37.704198899557404" lon="14.838541225047198"><ele>620.0</ele><time>2026-04-06T11:04:07.999Z</time></trkpt><trkpt lat="37.70430290873417" lon="14.838508366026652"><ele>620.0</ele><time>2026-04-06T11:04:08.999Z</time></trkpt><trkpt lat="37.70440471773863" lon="14.838478460150775"><ele>620.0</ele><time>2026-04-06T11:04:09.999Z</time></trkpt><trkpt lat="37.70450125300528" lon="14.838453298838964"><ele>620.0</ele><time>2026-04-06T11:04:10.999Z</time></trkpt><trkpt lat="37.70459196929031" lon="14.838446200056914"><ele>620.0</ele><time>2026-04-06T11:04:11.999Z</time></trkpt><trkpt lat="37.70468542340407" lon="14.838470965953716"><ele>620.8</ele><time>2026-04-06T11:04:12.999Z</time></trkpt><trkpt lat="37.70476020793004" lon="14.838529540884336"><ele>621.6</ele><time>2026-04-06T11:04:13.999Z</time></trkpt><trkpt lat="37.704811102206705" lon="14.838614367294245"><ele>622.4</ele><time>2026-04-06T11:04:14.999Z</time></trkpt><trkpt lat="37.70486728306017" lon="14.838722094005425"><ele>623.2</ele><time>2026-04-06T11:04:15.999Z</time></trkpt><trkpt lat="37.704918906404835" lon="14.838832893210519"><ele>624.0</ele><time>2026-04-06T11:04:16.999Z</time></trkpt><trkpt lat="37.704969288409586" lon="14.838953678297942"><ele>624.0</ele><time>2026-04-06T11:04:17.999Z</time></trkpt><trkpt lat="37.70501758891935" lon="14.839079947283652"><ele>624.0</ele><time>2026-04-06T11:04:18.999Z</time></trkpt><trkpt lat="37.70505763750528" lon="14.839212403672096"><ele>624.0</ele><time>2026-04-06T11:04:19.999Z</time></trkpt><trkpt lat="37.705089854270355" lon="14.839345638959381"><ele>624.0</ele><time>2026-04-06T11:04:20.999Z</time></trkpt><trkpt lat="37.70512071147997" lon="14.839478034010872"><ele>624.0</ele><time>2026-04-06T11:04:21.999Z</time></trkpt><trkpt lat="37.70515037162403" lon="14.839611212723597"><ele>625.5</ele><time>2026-04-06T11:04:22.999Z</time></trkpt><trkpt lat="37.70519464536654" lon="14.839762269226913"><ele>627.0</ele><time>2026-04-06T11:04:23.999Z</time></trkpt><trkpt lat="37.70527099204233" lon="14.839898168944886"><ele>628.5</ele><time>2026-04-06T11:04:24.999Z</time></trkpt><trkpt lat="37.70536147891347" lon="14.839992269969956"><ele>630.0</ele><time>2026-04-06T11:04:25.999Z</time></trkpt><trkpt lat="37.70543678055041" lon="14.840048958482043"><ele>630.25</ele><time>2026-04-06T11:04:26.999Z</time></trkpt><trkpt lat="37.7055649473805" lon="14.840093312183187"><ele>630.5</ele><time>2026-04-06T11:04:27.999Z</time></trkpt><trkpt lat="37.705639029884786" lon="14.840206196290795"><ele>630.75</ele><time>2026-04-06T11:04:28.999Z</time></trkpt><trkpt lat="37.70579703098607" lon="14.84007150216448"><ele>631.0</ele><time>2026-04-06T11:04:29.999Z</time></trkpt><trkpt lat="37.70590750103505" lon="14.840068640717138"><ele>631.0</ele><time>2026-04-06T11:04:30.999Z</time></trkpt><trkpt lat="37.7060185762557" lon="14.84006579297527"><ele>631.0</ele><time>2026-04-06T11:04:31.999Z</time></trkpt><trkpt lat="37.70613347996038" lon="14.840062988544094"><ele>631.0</ele><time>2026-04-06T11:04:32.999Z</time></trkpt><trkpt lat="37.706256760708584" lon="14.840059979656589"><ele>631.0</ele><time>2026-04-06T11:04:33.999Z</time></trkpt><trkpt lat="37.7063924091961" lon="14.840056668912341"><ele>631.5</ele><time>2026-04-06T11:04:34.999Z</time></trkpt><trkpt lat="37.706531903953056" lon="14.840053518460696"><ele>632.0</ele><time>2026-04-06T11:04:35.999Z</time></trkpt><trkpt lat="37.706675251972996" lon="14.840050422389595"><ele>632.5</ele><time>2026-04-06T11:04:36.999Z</time></trkpt><trkpt lat="37.70682339782871" lon="14.840047349699356"><ele>633.0</ele><time>2026-04-06T11:04:37.999Z</time></trkpt><trkpt lat="37.706971697867665" lon="14.840044717271297"><ele>634.25</ele><time>2026-04-06T11:04:38.999Z</time></trkpt><trkpt lat="37.70710495814788" lon="14.84003633157676"><ele>635.5</ele><time>2026-04-06T11:04:39.999Z</time></trkpt><trkpt lat="37.70723987397237" lon="14.840015073834701"><ele>636.75</ele><time>2026-04-06T11:04:40.999Z</time></trkpt><trkpt lat="37.70738287458636" lon="14.839957590798814"><ele>638.0</ele><time>2026-04-06T11:04:41.999Z</time></trkpt><trkpt lat="37.70751233334098" lon="14.839869758405078"><ele>638.0</ele><time>2026-04-06T11:04:42.999Z</time></trkpt><trkpt lat="37.707630379993965" lon="14.83977495858538"><ele>638.0</ele><time>2026-04-06T11:04:43.999Z</time></trkpt><trkpt lat="37.70775518841965" lon="14.839666438057602"><ele>638.0</ele><time>2026-04-06T11:04:44.999Z</time></trkpt><trkpt lat="37.70787512421745" lon="14.839563384996618"><ele>638.0</ele><time>2026-04-06T11:04:45.999Z</time></trkpt><trkpt lat="37.707998894532125" lon="14.839457037544403"><ele>638.75</ele><time>2026-04-06T11:04:46.999Z</time></trkpt><trkpt lat="37.70811693101922" lon="14.839355540394816"><ele>639.5</ele><time>2026-04-06T11:04:47.999Z</time></trkpt><trkpt lat="37.708236386614416" lon="14.83925282998626"><ele>640.25</ele><time>2026-04-06T11:04:48.999Z</time></trkpt><trkpt lat="37.70833796973283" lon="14.83914462859692"><ele>641.0</ele><time>2026-04-06T11:04:49.999Z</time></trkpt><trkpt lat="37.70846300054723" lon="14.839051059112832"><ele>642.5</ele><time>2026-04-06T11:04:50.999Z</time></trkpt><trkpt lat="37.70858779449147" lon="14.83895821099139"><ele>644.0</ele><time>2026-04-06T11:04:51.999Z</time></trkpt><trkpt lat="37.70870690880488" lon="14.838858679631736"><ele>645.5</ele><time>2026-04-06T11:04:52.999Z</time></trkpt><trkpt lat="37.70882507977443" lon="14.838759576889723"><ele>647.0</ele><time>2026-04-06T11:04:53.999Z</time></trkpt><trkpt lat="37.70894480351897" lon="14.838664923194319"><ele>647.0</ele><time>2026-04-06T11:04:54.999Z</time></trkpt><trkpt lat="37.709064187050735" lon="14.838575400048706"><ele>647.0</ele><time>2026-04-06T11:04:55.999Z</time></trkpt><trkpt lat="37.7091840506499" lon="14.838490991794627"><ele>647.0</ele><time>2026-04-06T11:04:56.999Z</time></trkpt><trkpt lat="37.709302905512" lon="14.838415424182513"><ele>647.0</ele><time>2026-04-06T11:04:57.999Z</time></trkpt><trkpt lat="37.70942627737736" lon="14.838339285882853"><ele>646.75</ele><time>2026-04-06T11:04:58.999Z</time></trkpt><trkpt lat="37.709557720459166" lon="14.8382669252201"><ele>646.5</ele><time>2026-04-06T11:04:59.999Z</time></trkpt><trkpt lat="37.70969439878013" lon="14.838208822049388"><ele>646.25</ele><time>2026-04-06T11:05:00.999Z</time></trkpt><trkpt lat="37.70984295845015" lon="14.838196334840603"><ele>646.0</ele><time>2026-04-06T11:05:01.999Z</time></trkpt><trkpt lat="37.70999196752847" lon="14.83818151987296"><ele>646.0</ele><time>2026-04-06T11:05:02.999Z</time></trkpt><trkpt lat="37.710142326275324" lon="14.838178219701389"><ele>646.0</ele><time>2026-04-06T11:05:03.999Z</time></trkpt><trkpt lat="37.71029773988996" lon="14.838179030066863"><ele>646.0</ele><time>2026-04-06T11:05:04.999Z</time></trkpt><trkpt lat="37.71044966181941" lon="14.838177960194217"><ele>645.3333333333334</ele><time>2026-04-06T11:05:05.999Z</time></trkpt><trkpt lat="37.71059807010601" lon="14.838176025205204"><ele>644.6666666666666</ele><time>2026-04-06T11:05:06.999Z</time></trkpt><trkpt lat="37.71074625654246" lon="14.838173904561181"><ele>644.0</ele><time>2026-04-06T11:05:07.999Z</time></trkpt><trkpt lat="37.71090049546082" lon="14.838165020607132"><ele>644.0</ele><time>2026-04-06T11:05:08.999Z</time></trkpt><trkpt lat="37.71105492845581" lon="14.838144762798143"><ele>644.0</ele><time>2026-04-06T11:05:09.999Z</time></trkpt><trkpt lat="37.71120997980989" lon="14.838117759642042"><ele>644.0</ele><time>2026-04-06T11:05:10.998Z</time></trkpt><trkpt lat="37.7113656591603" lon="14.838083645627203"><ele>643.6666666666666</ele><time>2026-04-06T11:05:11.998Z</time></trkpt><trkpt lat="37.71152407933374" lon="14.838047726108996"><ele>643.3333333333334</ele><time>2026-04-06T11:05:12.998Z</time></trkpt><trkpt lat="37.71168526762336" lon="14.838009985952311"><ele>643.0</ele><time>2026-04-06T11:05:13.998Z</time></trkpt><trkpt lat="37.71184685448187" lon="14.837972902005163"><ele>645.3333333333334</ele><time>2026-04-06T11:05:14.998Z</time></trkpt><trkpt lat="37.712009415407444" lon="14.837935965826714"><ele>647.6666666666666</ele><time>2026-04-06T11:05:15.998Z</time></trkpt><trkpt lat="37.7121725439437" lon="14.83789890066086"><ele>650.0</ele><time>2026-04-06T11:05:16.998Z</time></trkpt><trkpt lat="37.71234015181832" lon="14.837857885330305"><ele>650.0</ele><time>2026-04-06T11:05:17.998Z</time></trkpt><trkpt lat="37.71250855466428" lon="14.837806051881536"><ele>650.0</ele><time>2026-04-06T11:05:18.998Z</time></trkpt><trkpt lat="37.712679392727125" lon="14.837744715591269"><ele>650.0</ele><time>2026-04-06T11:05:19.998Z</time></trkpt><trkpt lat="37.71284743148773" lon="14.837678981210399"><ele>650.0</ele><time>2026-04-06T11:05:20.998Z</time></trkpt><trkpt lat="37.713012599474276" lon="14.837611464943498"><ele>650.0</ele><time>2026-04-06T11:05:21.998Z</time></trkpt><trkpt lat="37.713178372137676" lon="14.83754370019182"><ele>650.0</ele><time>2026-04-06T11:05:22.998Z</time></trkpt><trkpt lat="37.71333773980714" lon="14.837458481332963"><ele>650.0</ele><time>2026-04-06T11:05:23.998Z</time></trkpt><trkpt lat="37.71350177450963" lon="14.837394108735879"><ele>650.0</ele><time>2026-04-06T11:05:24.998Z</time></trkpt><trkpt lat="37.713666953264855" lon="14.837330023251942"><ele>650.0</ele><time>2026-04-06T11:05:25.998Z</time></trkpt><trkpt lat="37.71383306456706" lon="14.837261689790042"><ele>651.6666666666666</ele><time>2026-04-06T11:05:26.998Z</time></trkpt><trkpt lat="37.71399792515395" lon="14.837193286093855"><ele>653.3333333333334</ele><time>2026-04-06T11:05:27.998Z</time></trkpt><trkpt lat="37.714160502287214" lon="14.83712568704193"><ele>655.0</ele><time>2026-04-06T11:05:28.998Z</time></trkpt><trkpt lat="37.71432795839311" lon="14.837077262431576"><ele>656.0</ele><time>2026-04-06T11:05:29.998Z</time></trkpt><trkpt lat="37.714488687663376" lon="14.836999242757837"><ele>657.0</ele><time>2026-04-06T11:05:30.998Z</time></trkpt><trkpt lat="37.714640675305176" lon="14.836901250032929"><ele>658.0</ele><time>2026-04-06T11:05:31.998Z</time></trkpt><trkpt lat="37.71477813037573" lon="14.836768353118059"><ele>658.0</ele><time>2026-04-06T11:05:32.998Z</time></trkpt><trkpt lat="37.714915472166254" lon="14.836647746175938"><ele>658.0</ele><time>2026-04-06T11:05:33.998Z</time></trkpt><trkpt lat="37.71504985948204" lon="14.836517098147121"><ele>658.0</ele><time>2026-04-06T11:05:34.998Z</time></trkpt><trkpt lat="37.71519400466146" lon="14.836401801214581"><ele>660.6666666666667</ele><time>2026-04-06T11:05:35.998Z</time></trkpt><trkpt lat="37.71533139830807" lon="14.836272936143239"><ele>663.3333333333334</ele><time>2026-04-06T11:05:36.998Z</time></trkpt><trkpt lat="37.715469424154996" lon="14.836143822869975"><ele>666.0</ele><time>2026-04-06T11:05:37.998Z</time></trkpt><trkpt lat="37.71560865690758" lon="14.836013580488862"><ele>662.0</ele><time>2026-04-06T11:05:38.998Z</time></trkpt><trkpt lat="37.715734916705465" lon="14.83586263239911"><ele>658.0</ele><time>2026-04-06T11:05:39.998Z</time></trkpt><trkpt lat="37.71587627883632" lon="14.835733368182414"><ele>654.0</ele><time>2026-04-06T11:05:40.998Z</time></trkpt><trkpt lat="37.716018385952864" lon="14.835602643975625"><ele>656.6666666666666</ele><time>2026-04-06T11:05:41.998Z</time></trkpt><trkpt lat="37.716160991387454" lon="14.835467573037583"><ele>659.3333333333333</ele><time>2026-04-06T11:05:42.998Z</time></trkpt><trkpt lat="37.71631559478217" lon="14.835349051897182"><ele>662.0</ele><time>2026-04-06T11:05:43.998Z</time></trkpt><trkpt lat="37.71645986157024" lon="14.835212648831186"><ele>659.0</ele><time>2026-04-06T11:05:44.998Z</time></trkpt><trkpt lat="37.71659585568268" lon="14.835060500036729"><ele>656.0</ele><time>2026-04-06T11:05:45.998Z</time></trkpt><trkpt lat="37.71674236167049" lon="14.834925433131813"><ele>653.0</ele><time>2026-04-06T11:05:46.998Z</time></trkpt><trkpt lat="37.71688854828054" lon="14.834790053021605"><ele>655.3333333333333</ele><time>2026-04-06T11:05:47.998Z</time></trkpt><trkpt lat="37.717034241214215" lon="14.834655207948163"><ele>657.6666666666666</ele><time>2026-04-06T11:05:48.998Z</time></trkpt><trkpt lat="37.71717822005807" lon="14.83451559470651"><ele>660.0</ele><time>2026-04-06T11:05:49.999Z</time></trkpt><trkpt lat="37.71733234065373" lon="14.834393722313116"><ele>659.3333333333334</ele><time>2026-04-06T11:05:50.999Z</time></trkpt><trkpt lat="37.71746426429916" lon="14.834237905588255"><ele>658.6666666666667</ele><time>2026-04-06T11:05:51.999Z</time></trkpt><trkpt lat="37.71760748220233" lon="14.834105794905444"><ele>658.0</ele><time>2026-04-06T11:05:52.999Z</time></trkpt><trkpt lat="37.7177491357665" lon="14.83397448975925"><ele>658.0</ele><time>2026-04-06T11:05:53.999Z</time></trkpt><trkpt lat="37.71789116094855" lon="14.833843900486858"><ele>658.0</ele><time>2026-04-06T11:05:54.999Z</time></trkpt><trkpt lat="37.718033043241164" lon="14.833714508835383"><ele>658.0</ele><time>2026-04-06T11:05:55.999Z</time></trkpt><trkpt lat="37.71817779267557" lon="14.833601365196541"><ele>658.0</ele><time>2026-04-06T11:05:56.999Z</time></trkpt><trkpt lat="37.718325475321826" lon="14.833516572753464"><ele>658.0</ele><time>2026-04-06T11:05:57.999Z</time></trkpt><trkpt lat="37.71847292881779" lon="14.83346644176076"><ele>658.0</ele><time>2026-04-06T11:05:58.999Z</time></trkpt><trkpt lat="37.71862596807806" lon="14.833442628179798"><ele>658.0</ele><time>2026-04-06T11:05:59.999Z</time></trkpt><trkpt lat="37.71877870684366" lon="14.833450072228278"><ele>658.0</ele><time>2026-04-06T11:06:00.999Z</time></trkpt><trkpt lat="37.71892252419372" lon="14.833525498209577"><ele>658.0</ele><time>2026-04-06T11:06:01.999Z</time></trkpt><trkpt lat="37.719057417563825" lon="14.833588868964078"><ele>660.25</ele><time>2026-04-06T11:06:02.999Z</time></trkpt><trkpt lat="37.71918451836879" lon="14.833673215079397"><ele>662.5</ele><time>2026-04-06T11:06:03.999Z</time></trkpt><trkpt lat="37.7193086079199" lon="14.833778185050939"><ele>664.75</ele><time>2026-04-06T11:06:04.999Z</time></trkpt><trkpt lat="37.719424071529865" lon="14.833897241870325"><ele>667.0</ele><time>2026-04-06T11:06:05.999Z</time></trkpt><trkpt lat="37.71952197179905" lon="14.834033245121791"><ele>667.5</ele><time>2026-04-06T11:06:06.999Z</time></trkpt><trkpt lat="37.71959516012149" lon="14.834180634947618"><ele>668.0</ele><time>2026-04-06T11:06:07.999Z</time></trkpt><trkpt lat="37.71965039339384" lon="14.834337997667568"><ele>668.5</ele><time>2026-04-06T11:06:08.999Z</time></trkpt><trkpt lat="37.7197060354069" lon="14.834504703069435"><ele>669.0</ele><time>2026-04-06T11:06:09.999Z</time></trkpt><trkpt lat="37.719699881807266" lon="14.834689268788091"><ele>671.25</ele><time>2026-04-06T11:06:10.999Z</time></trkpt><trkpt lat="37.719714626121764" lon="14.834871352770314"><ele>673.5</ele><time>2026-04-06T11:06:11.999Z</time></trkpt><trkpt lat="37.71972950250319" lon="14.835049151481998"><ele>675.75</ele><time>2026-04-06T11:06:12.999Z</time></trkpt><trkpt lat="37.71977800816185" lon="14.835201988951688"><ele>678.0</ele><time>2026-04-06T11:06:13.999Z</time></trkpt><trkpt lat="37.71985884664371" lon="14.835338194606914"><ele>680.0</ele><time>2026-04-06T11:06:14.999Z</time></trkpt><trkpt lat="37.71993872797963" lon="14.835479780479396"><ele>682.0</ele><time>2026-04-06T11:06:15.999Z</time></trkpt><trkpt lat="37.720058513517856" lon="14.835585271396617"><ele>684.0</ele><time>2026-04-06T11:06:16.999Z</time></trkpt><trkpt lat="37.72018545463795" lon="14.83567355721448"><ele>686.0</ele><time>2026-04-06T11:06:17.999Z</time></trkpt><trkpt lat="37.720322633431344" lon="14.835744781904625"><ele>686.3333333333333</ele><time>2026-04-06T11:06:18.999Z</time></trkpt><trkpt lat="37.720467733356465" lon="14.835801171344619"><ele>686.6666666666666</ele><time>2026-04-06T11:06:19.999Z</time></trkpt><trkpt lat="37.720619703754615" lon="14.8358318045254"><ele>687.0</ele><time>2026-04-06T11:06:20.999Z</time></trkpt><trkpt lat="37.72077381863024" lon="14.835833180509045"><ele>687.0</ele><time>2026-04-06T11:06:21.999Z</time></trkpt><trkpt lat="37.720926967897725" lon="14.835785765267895"><ele>687.0</ele><time>2026-04-06T11:06:22.999Z</time></trkpt><trkpt lat="37.72107606145109" lon="14.835739978767261"><ele>687.0</ele><time>2026-04-06T11:06:23.999Z</time></trkpt><trkpt lat="37.7212241319146" lon="14.835672049728075"><ele>692.6666666666666</ele><time>2026-04-06T11:06:24.999Z</time></trkpt><trkpt lat="37.72137746771822" lon="14.835613691459752"><ele>698.3333333333333</ele><time>2026-04-06T11:06:25.999Z</time></trkpt><trkpt lat="37.721533624531524" lon="14.835541774819246"><ele>704.0</ele><time>2026-04-06T11:06:26.999Z</time></trkpt><trkpt lat="37.721690670214024" lon="14.835469955700507"><ele>704.0</ele><time>2026-04-06T11:06:27.999Z</time></trkpt><trkpt lat="37.721848628327045" lon="14.835397719316017"><ele>704.0</ele><time>2026-04-06T11:06:28.999Z</time></trkpt><trkpt lat="37.722009494286695" lon="14.83532415313294"><ele>704.0</ele><time>2026-04-06T11:06:29.999Z</time></trkpt><trkpt lat="37.72217081828484" lon="14.835250377481533"><ele>705.0</ele><time>2026-04-06T11:06:30.999Z</time></trkpt><trkpt lat="37.72233459969125" lon="14.835169919762865"><ele>706.0</ele><time>2026-04-06T11:06:31.999Z</time></trkpt><trkpt lat="37.72249416042702" lon="14.835078406813587"><ele>707.0</ele><time>2026-04-06T11:06:32.999Z</time></trkpt><trkpt lat="37.722650705240326" lon="14.834987056094722"><ele>709.0</ele><time>2026-04-06T11:06:33.999Z</time></trkpt><trkpt lat="37.72280997993916" lon="14.834896976886013"><ele>711.0</ele><time>2026-04-06T11:06:34.999Z</time></trkpt><trkpt lat="37.72297133797317" lon="14.834814860081549"><ele>713.0</ele><time>2026-04-06T11:06:35.999Z</time></trkpt><trkpt lat="37.72313535195384" lon="14.834750419075487"><ele>713.0</ele><time>2026-04-06T11:06:36.999Z</time></trkpt><trkpt lat="37.72329787083999" lon="14.834708913440956"><ele>713.0</ele><time>2026-04-06T11:06:37.999Z</time></trkpt><trkpt lat="37.7234605906771" lon="14.834697041259412"><ele>713.0</ele><time>2026-04-06T11:06:38.999Z</time></trkpt><trkpt lat="37.72362628399265" lon="14.834705822517831"><ele>714.0</ele><time>2026-04-06T11:06:39.999Z</time></trkpt><trkpt lat="37.72379164783604" lon="14.834743302926833"><ele>715.0</ele><time>2026-04-06T11:06:40.999Z</time></trkpt><trkpt lat="37.72396529673663" lon="14.834783263098512"><ele>716.0</ele><time>2026-04-06T11:06:41.999Z</time></trkpt><trkpt lat="37.72414135265565" lon="14.834821644630344"><ele>716.0</ele><time>2026-04-06T11:06:42.999Z</time></trkpt><trkpt lat="37.72432095380541" lon="14.834849867683436"><ele>716.0</ele><time>2026-04-06T11:06:43.999Z</time></trkpt><trkpt lat="37.72450026220225" lon="14.834867056783388"><ele>716.0</ele><time>2026-04-06T11:06:44.999Z</time></trkpt><trkpt lat="37.72468046437692" lon="14.834887748375104"><ele>716.6666666666666</ele><time>2026-04-06T11:06:45.999Z</time></trkpt><trkpt lat="37.724860878279834" lon="14.834904078120736"><ele>717.3333333333334</ele><time>2026-04-06T11:06:46.999Z</time></trkpt><trkpt lat="37.72504372806183" lon="14.83489524884835"><ele>718.0</ele><time>2026-04-06T11:06:47.999Z</time></trkpt><trkpt lat="37.72521574773057" lon="14.834838187093048"><ele>719.3333333333334</ele><time>2026-04-06T11:06:48.999Z</time></trkpt><trkpt lat="37.72537642409589" lon="14.834784988012247"><ele>720.6666666666666</ele><time>2026-04-06T11:06:49.999Z</time></trkpt><trkpt lat="37.72552585265684" lon="14.8347017843115"><ele>722.0</ele><time>2026-04-06T11:06:50.999Z</time></trkpt><trkpt lat="37.72567208513039" lon="14.834602004561262"><ele>722.0</ele><time>2026-04-06T11:06:51.999Z</time></trkpt><trkpt lat="37.72581900077401" lon="14.834502148589099"><ele>722.0</ele><time>2026-04-06T11:06:52.999Z</time></trkpt><trkpt lat="37.72597903028569" lon="14.8344225288167"><ele>722.0</ele><time>2026-04-06T11:06:53.999Z</time></trkpt><trkpt lat="37.72612754115054" lon="14.83430803119742"><ele>719.6666666666666</ele><time>2026-04-06T11:06:54.999Z</time></trkpt><trkpt lat="37.72629371002771" lon="14.834227620351143"><ele>717.3333333333334</ele><time>2026-04-06T11:06:55.999Z</time></trkpt><trkpt lat="37.72644583850708" lon="14.834114881799932"><ele>715.0</ele><time>2026-04-06T11:06:56.999Z</time></trkpt><trkpt lat="37.72660965720519" lon="14.834014251062701"><ele>715.0</ele><time>2026-04-06T11:06:57.999Z</time></trkpt><trkpt lat="37.726771971603746" lon="14.833913937903123"><ele>715.0</ele><time>2026-04-06T11:06:58.999Z</time></trkpt><trkpt lat="37.7269381283283" lon="14.833814305065815"><ele>715.0</ele><time>2026-04-06T11:06:59.999Z</time></trkpt><trkpt lat="37.727104994533924" lon="14.83370266074152"><ele>715.0</ele><time>2026-04-06T11:07:00.999Z</time></trkpt><trkpt lat="37.727278113885326" lon="14.833601372810996"><ele>715.0</ele><time>2026-04-06T11:07:01.999Z</time></trkpt><trkpt lat="37.72743147889936" lon="14.833456971338284"><ele>715.0</ele><time>2026-04-06T11:07:02.999Z</time></trkpt><trkpt lat="37.72758534328054" lon="14.833314779292754"><ele>714.3333333333334</ele><time>2026-04-06T11:07:03.999Z</time></trkpt><trkpt lat="37.72772805805283" lon="14.83315884945988"><ele>713.6666666666666</ele><time>2026-04-06T11:07:04.999Z</time></trkpt><trkpt lat="37.72786243355922" lon="14.832996787617914"><ele>713.0</ele><time>2026-04-06T11:07:05.999Z</time></trkpt><trkpt lat="37.7279966128869" lon="14.832829278368198"><ele>713.0</ele><time>2026-04-06T11:07:06.998Z</time></trkpt><trkpt lat="37.728132044605765" lon="14.83266689045887"><ele>713.0</ele><time>2026-04-06T11:07:07.998Z</time></trkpt><trkpt lat="37.72827582110979" lon="14.832526641295575"><ele>713.0</ele><time>2026-04-06T11:07:08.998Z</time></trkpt><trkpt lat="37.72840678068242" lon="14.83237645541559"><ele>711.0</ele><time>2026-04-06T11:07:09.998Z</time></trkpt><trkpt lat="37.72854263704401" lon="14.832239006050816"><ele>709.0</ele><time>2026-04-06T11:07:10.998Z</time></trkpt><trkpt lat="37.72868091155742" lon="14.832100883243877"><ele>707.0</ele><time>2026-04-06T11:07:11.998Z</time></trkpt><trkpt lat="37.728843043255445" lon="14.831998977528249"><ele>707.0</ele><time>2026-04-06T11:07:12.998Z</time></trkpt><trkpt lat="37.729011672597785" lon="14.831904660924259"><ele>707.0</ele><time>2026-04-06T11:07:13.998Z</time></trkpt><trkpt lat="37.72918679664814" lon="14.831811864784957"><ele>707.0</ele><time>2026-04-06T11:07:14.998Z</time></trkpt><trkpt lat="37.72936459241003" lon="14.831724769941271"><ele>704.3333333333333</ele><time>2026-04-06T11:07:15.998Z</time></trkpt><trkpt lat="37.72954547199363" lon="14.831636622156688"><ele>701.6666666666666</ele><time>2026-04-06T11:07:16.998Z</time></trkpt><trkpt lat="37.72973429958299" lon="14.8315757349765"><ele>699.0</ele><time>2026-04-06T11:07:17.998Z</time></trkpt><trkpt lat="37.72991608498484" lon="14.831486614640008"><ele>699.0</ele><time>2026-04-06T11:07:18.998Z</time></trkpt><trkpt lat="37.73009878970497" lon="14.831397009029565"><ele>699.0</ele><time>2026-04-06T11:07:19.998Z</time></trkpt><trkpt lat="37.73028216734454" lon="14.83130707340942"><ele>699.0</ele><time>2026-04-06T11:07:20.998Z</time></trkpt><trkpt lat="37.73046718335166" lon="14.831217174452432"><ele>697.0</ele><time>2026-04-06T11:07:21.998Z</time></trkpt><trkpt lat="37.730652357037286" lon="14.831127382748363"><ele>695.0</ele><time>2026-04-06T11:07:22.998Z</time></trkpt><trkpt lat="37.730837958733886" lon="14.83103592484579"><ele>693.0</ele><time>2026-04-06T11:07:23.998Z</time></trkpt><trkpt lat="37.73102334189231" lon="14.830945057800987"><ele>695.3333333333334</ele><time>2026-04-06T11:07:24.998Z</time></trkpt><trkpt lat="37.73120815890663" lon="14.830855969368796"><ele>697.6666666666667</ele><time>2026-04-06T11:07:25.998Z</time></trkpt><trkpt lat="37.73138569393523" lon="14.830771216594982"><ele>700.0</ele><time>2026-04-06T11:07:26.998Z</time></trkpt><trkpt lat="37.73155454549089" lon="14.830694590577817"><ele>700.0</ele><time>2026-04-06T11:07:27.998Z</time></trkpt><trkpt lat="37.7317134848072" lon="14.830662061915707"><ele>700.0</ele><time>2026-04-06T11:07:28.998Z</time></trkpt><trkpt lat="37.731862194412784" lon="14.830666718166654"><ele>700.0</ele><time>2026-04-06T11:07:29.998Z</time></trkpt><trkpt lat="37.73200213495393" lon="14.830699301158468"><ele>699.0</ele><time>2026-04-06T11:07:30.998Z</time></trkpt><trkpt lat="37.73213291857116" lon="14.8307879142354"><ele>698.0</ele><time>2026-04-06T11:07:31.998Z</time></trkpt><trkpt lat="37.73228065850669" lon="14.830866636803476"><ele>697.0</ele><time>2026-04-06T11:07:32.998Z</time></trkpt><trkpt lat="37.73243562300266" lon="14.83092327390534"><ele>697.0</ele><time>2026-04-06T11:07:33.998Z</time></trkpt><trkpt lat="37.73259515700869" lon="14.830947636275772"><ele>697.0</ele><time>2026-04-06T11:07:34.998Z</time></trkpt><trkpt lat="37.732762967676244" lon="14.830925122153975"><ele>697.0</ele><time>2026-04-06T11:07:35.998Z</time></trkpt><trkpt lat="37.73292091547961" lon="14.830873555136082"><ele>697.6666666666667</ele><time>2026-04-06T11:07:36.998Z</time></trkpt><trkpt lat="37.7330862808035" lon="14.830851764163851"><ele>698.3333333333334</ele><time>2026-04-06T11:07:37.998Z</time></trkpt><trkpt lat="37.733250884701356" lon="14.830800395644175"><ele>699.0</ele><time>2026-04-06T11:07:38.998Z</time></trkpt><trkpt lat="37.73341149669761" lon="14.830734259095456"><ele>700.0</ele><time>2026-04-06T11:07:39.998Z</time></trkpt><trkpt lat="37.733560685340485" lon="14.83063969998741"><ele>701.0</ele><time>2026-04-06T11:07:40.998Z</time></trkpt><trkpt lat="37.73371010494421" lon="14.830531960942645"><ele>702.0</ele><time>2026-04-06T11:07:41.998Z</time></trkpt><trkpt lat="37.733849138157204" lon="14.830415426546482"><ele>702.0</ele><time>2026-04-06T11:07:42.998Z</time></trkpt><trkpt lat="37.73398483637909" lon="14.830304825356661"><ele>702.0</ele><time>2026-04-06T11:07:43.998Z</time></trkpt><trkpt lat="37.73411092441724" lon="14.830193199871688"><ele>702.0</ele><time>2026-04-06T11:07:44.998Z</time></trkpt><trkpt lat="37.734255283183344" lon="14.830129816025467"><ele>699.6666666666666</ele><time>2026-04-06T11:07:45.998Z</time></trkpt><trkpt lat="37.734413004989165" lon="14.83011601070319"><ele>697.3333333333333</ele><time>2026-04-06T11:07:46.998Z</time></trkpt><trkpt lat="37.73456886303398" lon="14.830115205796307"><ele>695.0</ele><time>2026-04-06T11:07:47.998Z</time></trkpt><trkpt lat="37.73473192459242" lon="14.830122526614476"><ele>695.0</ele><time>2026-04-06T11:07:48.998Z</time></trkpt><trkpt lat="37.73490248692376" lon="14.830130624017508"><ele>695.0</ele><time>2026-04-06T11:07:49.998Z</time></trkpt><trkpt lat="37.735075532285" lon="14.830138839300822"><ele>695.0</ele><time>2026-04-06T11:07:50.998Z</time></trkpt><trkpt lat="37.73525542545282" lon="14.830144736736731"><ele>696.0</ele><time>2026-04-06T11:07:51.998Z</time></trkpt><trkpt lat="37.73543968826853" lon="14.830135984050532"><ele>697.0</ele><time>2026-04-06T11:07:52.998Z</time></trkpt><trkpt lat="37.73562616927535" lon="14.830100820353708"><ele>698.0</ele><time>2026-04-06T11:07:53.998Z</time></trkpt><trkpt lat="37.735808445492616" lon="14.830043298607245"><ele>698.0</ele><time>2026-04-06T11:07:54.998Z</time></trkpt><trkpt lat="37.73598300116973" lon="14.82994849084901"><ele>698.0</ele><time>2026-04-06T11:07:56Z</time></trkpt><trkpt lat="37.73615902598406" lon="14.829866358929868"><ele>698.0</ele><time>2026-04-06T11:07:57Z</time></trkpt><trkpt lat="37.73634242839681" lon="14.829805360869134"><ele>699.6666666666666</ele><time>2026-04-06T11:07:58Z</time></trkpt><trkpt lat="37.73652277922508" lon="14.829734160304401"><ele>701.3333333333334</ele><time>2026-04-06T11:07:59Z</time></trkpt><trkpt lat="37.736704714809484" lon="14.829670418584126"><ele>703.0</ele><time>2026-04-06T11:08:00Z</time></trkpt><trkpt lat="37.73688843173793" lon="14.829613012519692"><ele>705.3333333333334</ele><time>2026-04-06T11:08:01Z</time></trkpt><trkpt lat="37.73707156696287" lon="14.829563972467966"><ele>707.6666666666666</ele><time>2026-04-06T11:08:02Z</time></trkpt><trkpt lat="37.73725557307031" lon="14.829517507934723"><ele>710.0</ele><time>2026-04-06T11:08:03Z</time></trkpt><trkpt lat="37.73743994712622" lon="14.829470949169602"><ele>710.0</ele><time>2026-04-06T11:08:04Z</time></trkpt><trkpt lat="37.73762371587012" lon="14.829424546529141"><ele>710.0</ele><time>2026-04-06T11:08:05Z</time></trkpt><trkpt lat="37.737807768174775" lon="14.829378134926452"><ele>710.0</ele><time>2026-04-06T11:08:06Z</time></trkpt><trkpt lat="37.73799229355315" lon="14.82933160402443"><ele>710.6666666666666</ele><time>2026-04-06T11:08:07Z</time></trkpt><trkpt lat="37.7381780534498" lon="14.829285733642761"><ele>711.3333333333334</ele><time>2026-04-06T11:08:08Z</time></trkpt><trkpt lat="37.7383641022944" lon="14.82923853838726"><ele>712.0</ele><time>2026-04-06T11:08:09Z</time></trkpt><trkpt lat="37.738550227018834" lon="14.829191373151795"><ele>714.3333333333334</ele><time>2026-04-06T11:08:10Z</time></trkpt><trkpt lat="37.738736343213716" lon="14.829146425560548"><ele>716.6666666666666</ele><time>2026-04-06T11:08:11Z</time></trkpt><trkpt lat="37.7389227151575" lon="14.829092170023827"><ele>719.0</ele><time>2026-04-06T11:08:12Z</time></trkpt><trkpt lat="37.73910017785563" lon="14.829014564588423"><ele>719.0</ele><time>2026-04-06T11:08:13Z</time></trkpt><trkpt lat="37.73926561632763" lon="14.828918764709272"><ele>719.0</ele><time>2026-04-06T11:08:14Z</time></trkpt><trkpt lat="37.73942440359259" lon="14.828828289092737"><ele>719.0</ele><time>2026-04-06T11:08:15Z</time></trkpt><trkpt lat="37.73958268553329" lon="14.828747430684556"><ele>721.0</ele><time>2026-04-06T11:08:16Z</time></trkpt><trkpt lat="37.73974072453381" lon="14.828693175854948"><ele>723.0</ele><time>2026-04-06T11:08:17Z</time></trkpt><trkpt lat="37.73989946182512" lon="14.828684018389534"><ele>725.0</ele><time>2026-04-06T11:08:18Z</time></trkpt><trkpt lat="37.74006269282984" lon="14.828711603105578"><ele>725.3333333333333</ele><time>2026-04-06T11:08:19Z</time></trkpt><trkpt lat="37.740222262234234" lon="14.828768983573353"><ele>725.6666666666666</ele><time>2026-04-06T11:08:20Z</time></trkpt><trkpt lat="37.740381388866936" lon="14.828840414735584"><ele>726.0</ele><time>2026-04-06T11:08:21Z</time></trkpt><trkpt lat="37.74054341006493" lon="14.828909398236103"><ele>726.0</ele><time>2026-04-06T11:08:22Z</time></trkpt><trkpt lat="37.74070631966492" lon="14.828977075821117"><ele>726.0</ele><time>2026-04-06T11:08:23Z</time></trkpt><trkpt lat="37.74086969347099" lon="14.829047480807173"><ele>726.0</ele><time>2026-04-06T11:08:24Z</time></trkpt><trkpt lat="37.74103177967825" lon="14.829118344954987"><ele>727.3333333333334</ele><time>2026-04-06T11:08:25Z</time></trkpt><trkpt lat="37.74120643679001" lon="14.829142044909073"><ele>728.6666666666667</ele><time>2026-04-06T11:08:26Z</time></trkpt><trkpt lat="37.74136214272674" lon="14.829230762899899"><ele>730.0</ele><time>2026-04-06T11:08:27Z</time></trkpt><trkpt lat="37.741505012469325" lon="14.829342849365753"><ele>732.6666666666667</ele><time>2026-04-06T11:08:27.999Z</time></trkpt><trkpt lat="37.741634077239574" lon="14.829478727811859"><ele>735.3333333333334</ele><time>2026-04-06T11:08:28.999Z</time></trkpt><trkpt lat="37.74173437191884" lon="14.829652710475994"><ele>738.0</ele><time>2026-04-06T11:08:29.999Z</time></trkpt><trkpt lat="37.74184059068305" lon="14.82981636125979"><ele>738.3333333333334</ele><time>2026-04-06T11:08:30.999Z</time></trkpt><trkpt lat="37.741942767701445" lon="14.829980359974492"><ele>738.6666666666667</ele><time>2026-04-06T11:08:31.999Z</time></trkpt><trkpt lat="37.742040803429454" lon="14.830134232763362"><ele>739.0</ele><time>2026-04-06T11:08:32.999Z</time></trkpt><trkpt lat="37.74215033103683" lon="14.83026839157262"><ele>740.5</ele><time>2026-04-06T11:08:33.999Z</time></trkpt><trkpt lat="37.742262602985676" lon="14.830386630138618"><ele>742.0</ele><time>2026-04-06T11:08:34.999Z</time></trkpt><trkpt lat="37.742378393304975" lon="14.830477279701594"><ele>743.5</ele><time>2026-04-06T11:08:35.999Z</time></trkpt><trkpt lat="37.7424981849306" lon="14.830554475590185"><ele>745.0</ele><time>2026-04-06T11:08:36.999Z</time></trkpt><trkpt lat="37.74264659351589" lon="14.830627992079279"><ele>746.25</ele><time>2026-04-06T11:08:37.999Z</time></trkpt><trkpt lat="37.742770683846835" lon="14.830668867106473"><ele>747.5</ele><time>2026-04-06T11:08:38.999Z</time></trkpt><trkpt lat="37.7428867048879" lon="14.830684942321609"><ele>748.75</ele><time>2026-04-06T11:08:39.999Z</time></trkpt><trkpt lat="37.74300776136082" lon="14.830714636164952"><ele>750.0</ele><time>2026-04-06T11:08:40.999Z</time></trkpt><trkpt lat="37.743142103519574" lon="14.830717923887269"><ele>750.0</ele><time>2026-04-06T11:08:41.999Z</time></trkpt><trkpt lat="37.74326213186386" lon="14.830682765562981"><ele>750.0</ele><time>2026-04-06T11:08:42.999Z</time></trkpt><trkpt lat="37.74338611730113" lon="14.830678231237918"><ele>750.0</ele><time>2026-04-06T11:08:43.999Z</time></trkpt><trkpt lat="37.74350924967933" lon="14.83065707202455"><ele>750.0</ele><time>2026-04-06T11:08:44.999Z</time></trkpt><trkpt lat="37.7436504088854" lon="14.83062504008862"><ele>750.25</ele><time>2026-04-06T11:08:45.999Z</time></trkpt><trkpt lat="37.74378978628117" lon="14.830591454777567"><ele>750.5</ele><time>2026-04-06T11:08:46.999Z</time></trkpt><trkpt lat="37.743925705822754" lon="14.83055500537463"><ele>750.75</ele><time>2026-04-06T11:08:47.999Z</time></trkpt><trkpt lat="37.7440681423019" lon="14.830524618020688"><ele>751.0</ele><time>2026-04-06T11:08:48.999Z</time></trkpt><trkpt lat="37.74420779080369" lon="14.830474980047091"><ele>751.0</ele><time>2026-04-06T11:08:49.999Z</time></trkpt><trkpt lat="37.74434070786339" lon="14.830411536196833"><ele>751.0</ele><time>2026-04-06T11:08:50.999Z</time></trkpt><trkpt lat="37.74447823116366" lon="14.830342434944692"><ele>751.0</ele><time>2026-04-06T11:08:51.999Z</time></trkpt><trkpt lat="37.74461733904058" lon="14.830272301672444"><ele>751.0</ele><time>2026-04-06T11:08:52.999Z</time></trkpt><trkpt lat="37.744752942383144" lon="14.830187752314199"><ele>749.0</ele><time>2026-04-06T11:08:53.999Z</time></trkpt><trkpt lat="37.74488465785155" lon="14.830091344767458"><ele>747.0</ele><time>2026-04-06T11:08:54.999Z</time></trkpt><trkpt lat="37.74502511053763" lon="14.82999175143578"><ele>745.0</ele><time>2026-04-06T11:08:55.999Z</time></trkpt><trkpt lat="37.7451656444028" lon="14.829880560639863"><ele>747.6666666666667</ele><time>2026-04-06T11:08:56.999Z</time></trkpt><trkpt lat="37.74530610488139" lon="14.8297635920617"><ele>750.3333333333334</ele><time>2026-04-06T11:08:57.999Z</time></trkpt><trkpt lat="37.74545106192833" lon="14.829641687147248"><ele>753.0</ele><time>2026-04-06T11:08:58.999Z</time></trkpt><trkpt lat="37.74559507956461" lon="14.829519967180113"><ele>753.0</ele><time>2026-04-06T11:08:59.999Z</time></trkpt><trkpt lat="37.74573769822557" lon="14.829399429583727"><ele>753.0</ele><time>2026-04-06T11:09:00.999Z</time></trkpt><trkpt lat="37.74587122118958" lon="14.829262402280644"><ele>753.0</ele><time>2026-04-06T11:09:01.999Z</time></trkpt><trkpt lat="37.74601141700397" lon="14.829148415365857"><ele>752.5</ele><time>2026-04-06T11:09:02.999Z</time></trkpt><trkpt lat="37.74613974427484" lon="14.829039589590606"><ele>752.0</ele><time>2026-04-06T11:09:03.999Z</time></trkpt><trkpt lat="37.74626123546103" lon="14.828935377124074"><ele>751.5</ele><time>2026-04-06T11:09:04.999Z</time></trkpt><trkpt lat="37.74638114812364" lon="14.8288432875806"><ele>751.0</ele><time>2026-04-06T11:09:05.999Z</time></trkpt><trkpt lat="37.74648803465992" lon="14.828751527200545"><ele>751.0</ele><time>2026-04-06T11:09:06.999Z</time></trkpt><trkpt lat="37.746583704792634" lon="14.82866915419551"><ele>751.0</ele><time>2026-04-06T11:09:07.999Z</time></trkpt><trkpt lat="37.74667954470996" lon="14.828580615037056"><ele>751.0</ele><time>2026-04-06T11:09:08.999Z</time></trkpt><trkpt lat="37.746769438442364" lon="14.8284867566313"><ele>751.0</ele><time>2026-04-06T11:09:09.999Z</time></trkpt><trkpt lat="37.74686254278324" lon="14.82838981500341"><ele>750.75</ele><time>2026-04-06T11:09:10.999Z</time></trkpt><trkpt lat="37.74696484831548" lon="14.82828178021226"><ele>750.5</ele><time>2026-04-06T11:09:11.999Z</time></trkpt><trkpt lat="37.747070128279546" lon="14.828171546120268"><ele>750.25</ele><time>2026-04-06T11:09:12.999Z</time></trkpt><trkpt lat="37.74717228487355" lon="14.828057426198555"><ele>750.0</ele><time>2026-04-06T11:09:13.999Z</time></trkpt><trkpt lat="37.747285035302205" lon="14.827947221181166"><ele>750.0</ele><time>2026-04-06T11:09:14.999Z</time></trkpt><trkpt lat="37.74739774917618" lon="14.827838196906029"><ele>750.0</ele><time>2026-04-06T11:09:15.999Z</time></trkpt><trkpt lat="37.747514686494156" lon="14.827724700741893"><ele>750.0</ele><time>2026-04-06T11:09:16.999Z</time></trkpt><trkpt lat="37.74762924675067" lon="14.827616154363993"><ele>750.0</ele><time>2026-04-06T11:09:17.999Z</time></trkpt><trkpt lat="37.7477409052885" lon="14.827505082967768"><ele>749.25</ele><time>2026-04-06T11:09:18.999Z</time></trkpt><trkpt lat="37.747849192790405" lon="14.827392141394846"><ele>748.5</ele><time>2026-04-06T11:09:19.999Z</time></trkpt><trkpt lat="37.7479778882971" lon="14.827309705373542"><ele>747.75</ele><time>2026-04-06T11:09:20.999Z</time></trkpt><trkpt lat="37.74810430529811" lon="14.827212463624798"><ele>747.0</ele><time>2026-04-06T11:09:21.999Z</time></trkpt><trkpt lat="37.74822750934775" lon="14.827103197712578"><ele>747.0</ele><time>2026-04-06T11:09:22.999Z</time></trkpt><trkpt lat="37.74835597792547" lon="14.82700825458634"><ele>747.0</ele><time>2026-04-06T11:09:23.999Z</time></trkpt><trkpt lat="37.74848161223784" lon="14.826907844842884"><ele>747.0</ele><time>2026-04-06T11:09:24.999Z</time></trkpt><trkpt lat="37.748610833881195" lon="14.826803909951172"><ele>745.3333333333334</ele><time>2026-04-06T11:09:25.999Z</time></trkpt><trkpt lat="37.74874913597201" lon="14.826716457043998"><ele>743.6666666666667</ele><time>2026-04-06T11:09:26.999Z</time></trkpt><trkpt lat="37.7488828136222" lon="14.826614274994546"><ele>742.0</ele><time>2026-04-06T11:09:27.999Z</time></trkpt><trkpt lat="37.74901705445638" lon="14.826512775033464"><ele>742.0</ele><time>2026-04-06T11:09:28.998Z</time></trkpt><trkpt lat="37.749148912846636" lon="14.826413076371962"><ele>742.0</ele><time>2026-04-06T11:09:29.998Z</time></trkpt><trkpt lat="37.74928202053506" lon="14.826314892318758"><ele>742.0</ele><time>2026-04-06T11:09:30.998Z</time></trkpt><trkpt lat="37.74941278831173" lon="14.826221171114813"><ele>740.75</ele><time>2026-04-06T11:09:31.998Z</time></trkpt><trkpt lat="37.749542441120916" lon="14.826128781221692"><ele>739.5</ele><time>2026-04-06T11:09:32.998Z</time></trkpt><trkpt lat="37.749672101680886" lon="14.826036860607752"><ele>738.25</ele><time>2026-04-06T11:09:33.998Z</time></trkpt><trkpt lat="37.74979787621461" lon="14.825947694894086"><ele>737.0</ele><time>2026-04-06T11:09:34.998Z</time></trkpt><trkpt lat="37.7499228455361" lon="14.825857857804815"><ele>736.5</ele><time>2026-04-06T11:09:35.998Z</time></trkpt><trkpt lat="37.75004598831352" lon="14.825765558283456"><ele>736.0</ele><time>2026-04-06T11:09:36.998Z</time></trkpt><trkpt lat="37.750164487954095" lon="14.825648118559721"><ele>735.5</ele><time>2026-04-06T11:09:37.998Z</time></trkpt><trkpt lat="37.75026486482385" lon="14.825507020943588"><ele>735.0</ele><time>2026-04-06T11:09:38.998Z</time></trkpt><trkpt lat="37.750374792416636" lon="14.825378368092453"><ele>734.25</ele><time>2026-04-06T11:09:39.998Z</time></trkpt><trkpt lat="37.750472495527546" lon="14.82523982802192"><ele>733.5</ele><time>2026-04-06T11:09:40.998Z</time></trkpt><trkpt lat="37.75057057670752" lon="14.82509752652015"><ele>732.75</ele><time>2026-04-06T11:09:41.998Z</time></trkpt><trkpt lat="37.75067938289604" lon="14.824964421138782"><ele>732.0</ele><time>2026-04-06T11:09:42.998Z</time></trkpt><trkpt lat="37.75080367931064" lon="14.824852407256373"><ele>731.0</ele><time>2026-04-06T11:09:43.998Z</time></trkpt><trkpt lat="37.75094081806507" lon="14.824755919322673"><ele>730.0</ele><time>2026-04-06T11:09:44.998Z</time></trkpt><trkpt lat="37.7510854595826" lon="14.824673481723169"><ele>729.0</ele><time>2026-04-06T11:09:45.998Z</time></trkpt><trkpt lat="37.751235815547155" lon="14.824608707145746"><ele>726.0</ele><time>2026-04-06T11:09:46.998Z</time></trkpt><trkpt lat="37.751398630217636" lon="14.82456443903289"><ele>723.0</ele><time>2026-04-06T11:09:47.998Z</time></trkpt><trkpt lat="37.751567677682814" lon="14.824589865623217"><ele>720.0</ele><time>2026-04-06T11:09:48.998Z</time></trkpt><trkpt lat="37.75173739086587" lon="14.82459540814286"><ele>721.0</ele><time>2026-04-06T11:09:49.998Z</time></trkpt><trkpt lat="37.751905723852566" lon="14.824609398191392"><ele>722.0</ele><time>2026-04-06T11:09:50.998Z</time></trkpt><trkpt lat="37.752074419721446" lon="14.824630503077714"><ele>723.0</ele><time>2026-04-06T11:09:51.998Z</time></trkpt><trkpt lat="37.7522421132782" lon="14.824648408399757"><ele>723.0</ele><time>2026-04-06T11:09:52.998Z</time></trkpt><trkpt lat="37.75240711097251" lon="14.824625649041469"><ele>723.0</ele><time>2026-04-06T11:09:53.998Z</time></trkpt><trkpt lat="37.75256585610488" lon="14.824646394240538"><ele>723.0</ele><time>2026-04-06T11:09:54.998Z</time></trkpt><trkpt lat="37.75272763935618" lon="14.824665499972047"><ele>724.6666666666666</ele><time>2026-04-06T11:09:55.998Z</time></trkpt><trkpt lat="37.75289100600696" lon="14.824684142475991"><ele>726.3333333333333</ele><time>2026-04-06T11:09:56.998Z</time></trkpt><trkpt lat="37.75305603030696" lon="14.824701404804102"><ele>728.0</ele><time>2026-04-06T11:09:57.998Z</time></trkpt><trkpt lat="37.75321679341791" lon="14.824714183197985"><ele>728.0</ele><time>2026-04-06T11:09:58.998Z</time></trkpt><trkpt lat="37.75337030934667" lon="14.82472774702169"><ele>728.0</ele><time>2026-04-06T11:09:59.998Z</time></trkpt><trkpt lat="37.75351495824499" lon="14.824795211188984"><ele>728.0</ele><time>2026-04-06T11:10:01Z</time></trkpt><trkpt lat="37.75366174864468" lon="14.824824341659046"><ele>728.75</ele><time>2026-04-06T11:10:02Z</time></trkpt><trkpt lat="37.75380394412697" lon="14.82486703089895"><ele>729.5</ele><time>2026-04-06T11:10:03Z</time></trkpt><trkpt lat="37.75394710092484" lon="14.824918138319159"><ele>730.25</ele><time>2026-04-06T11:10:04Z</time></trkpt><trkpt lat="37.75408927270791" lon="14.824982771539664"><ele>731.0</ele><time>2026-04-06T11:10:05Z</time></trkpt><trkpt lat="37.754224020209406" lon="14.825058507717483"><ele>731.0</ele><time>2026-04-06T11:10:06Z</time></trkpt><trkpt lat="37.75435581509359" lon="14.825145689844627"><ele>731.0</ele><time>2026-04-06T11:10:07Z</time></trkpt><trkpt lat="37.75448260428237" lon="14.825238187448749"><ele>731.0</ele><time>2026-04-06T11:10:08Z</time></trkpt><trkpt lat="37.754606482406594" lon="14.825334696798574"><ele>731.0</ele><time>2026-04-06T11:10:09Z</time></trkpt><trkpt lat="37.7547282817815" lon="14.82543341369794"><ele>733.0</ele><time>2026-04-06T11:10:10Z</time></trkpt><trkpt lat="37.75485048715132" lon="14.825532459608793"><ele>735.0</ele><time>2026-04-06T11:10:11Z</time></trkpt><trkpt lat="37.75497321699833" lon="14.825631909801098"><ele>737.0</ele><time>2026-04-06T11:10:12Z</time></trkpt><trkpt lat="37.75509597548862" lon="14.825730531365574"><ele>739.0</ele><time>2026-04-06T11:10:13Z</time></trkpt><trkpt lat="37.7552173204149" lon="14.825828017325481"><ele>739.0</ele><time>2026-04-06T11:10:14Z</time></trkpt><trkpt lat="37.75533958471771" lon="14.825924569823089"><ele>739.0</ele><time>2026-04-06T11:10:15Z</time></trkpt><trkpt lat="37.75546419786345" lon="14.826018916367833"><ele>739.0</ele><time>2026-04-06T11:10:16Z</time></trkpt><trkpt lat="37.75558804107063" lon="14.826107924738217"><ele>739.0</ele><time>2026-04-06T11:10:17Z</time></trkpt><trkpt lat="37.7557100935661" lon="14.826189310434392"><ele>740.75</ele><time>2026-04-06T11:10:18Z</time></trkpt><trkpt lat="37.75582943068831" lon="14.826262767684769"><ele>742.5</ele><time>2026-04-06T11:10:19Z</time></trkpt><trkpt lat="37.755948288677885" lon="14.826327859231265"><ele>744.25</ele><time>2026-04-06T11:10:20Z</time></trkpt><trkpt lat="37.75607715138886" lon="14.826387525147847"><ele>746.0</ele><time>2026-04-06T11:10:21Z</time></trkpt><trkpt lat="37.756210837821165" lon="14.82644302208552"><ele>746.5</ele><time>2026-04-06T11:10:22Z</time></trkpt><trkpt lat="37.756348182135234" lon="14.826493350351582"><ele>747.0</ele><time>2026-04-06T11:10:23Z</time></trkpt><trkpt lat="37.75648536271573" lon="14.826533458500334"><ele>747.5</ele><time>2026-04-06T11:10:24Z</time></trkpt><trkpt lat="37.75662311406673" lon="14.826563174882653"><ele>748.0</ele><time>2026-04-06T11:10:25Z</time></trkpt><trkpt lat="37.75675645802395" lon="14.82658512403156"><ele>748.0</ele><time>2026-04-06T11:10:26Z</time></trkpt><trkpt lat="37.756899947828465" lon="14.82659930094581"><ele>748.0</ele><time>2026-04-06T11:10:27Z</time></trkpt><trkpt lat="37.757048363856704" lon="14.826604132227338"><ele>748.0</ele><time>2026-04-06T11:10:28Z</time></trkpt><trkpt lat="37.75719223468185" lon="14.826601046720896"><ele>748.0</ele><time>2026-04-06T11:10:29Z</time></trkpt><trkpt lat="37.75733691449077" lon="14.826586441229484"><ele>748.0</ele><time>2026-04-06T11:10:30Z</time></trkpt><trkpt lat="37.75748885126289" lon="14.826563149591413"><ele>748.0</ele><time>2026-04-06T11:10:31Z</time></trkpt><trkpt lat="37.75764095316656" lon="14.826532254638856"><ele>748.0</ele><time>2026-04-06T11:10:32Z</time></trkpt><trkpt lat="37.75779455353101" lon="14.826486880166783"><ele>749.3333333333334</ele><time>2026-04-06T11:10:33Z</time></trkpt><trkpt lat="37.757946842601534" lon="14.826433107951038"><ele>750.6666666666666</ele><time>2026-04-06T11:10:34Z</time></trkpt><trkpt lat="37.7581014403909" lon="14.826370569077895"><ele>752.0</ele><time>2026-04-06T11:10:35Z</time></trkpt><trkpt lat="37.7582601530971" lon="14.82629974020768"><ele>752.0</ele><time>2026-04-06T11:10:36Z</time></trkpt><trkpt lat="37.75841711007191" lon="14.826223682907735"><ele>752.0</ele><time>2026-04-06T11:10:37Z</time></trkpt><trkpt lat="37.75857288875328" lon="14.826144287203578"><ele>752.0</ele><time>2026-04-06T11:10:38Z</time></trkpt><trkpt lat="37.758726931041195" lon="14.826062633146275"><ele>753.6666666666666</ele><time>2026-04-06T11:10:39Z</time></trkpt><trkpt lat="37.75888057219629" lon="14.825981611598305"><ele>755.3333333333334</ele><time>2026-04-06T11:10:40Z</time></trkpt><trkpt lat="37.75903757169295" lon="14.825898819109588"><ele>757.0</ele><time>2026-04-06T11:10:41Z</time></trkpt><trkpt lat="37.759194867090976" lon="14.825817986733567"><ele>757.0</ele><time>2026-04-06T11:10:42Z</time></trkpt><trkpt lat="37.759353105251314" lon="14.825741231875767"><ele>757.0</ele><time>2026-04-06T11:10:43Z</time></trkpt><trkpt lat="37.75951330256936" lon="14.825666745510473"><ele>757.0</ele><time>2026-04-06T11:10:44Z</time></trkpt><trkpt lat="37.75967183805912" lon="14.82560036336368"><ele>755.6666666666667</ele><time>2026-04-06T11:10:45Z</time></trkpt><trkpt lat="37.75983768037989" lon="14.82553313546614"><ele>754.3333333333334</ele><time>2026-04-06T11:10:46Z</time></trkpt><trkpt lat="37.76001028903555" lon="14.825468907963065"><ele>753.0</ele><time>2026-04-06T11:10:47Z</time></trkpt><trkpt lat="37.76018630717283" lon="14.825413179251916"><ele>752.0</ele><time>2026-04-06T11:10:48Z</time></trkpt><trkpt lat="37.760361773290896" lon="14.825360809067025"><ele>751.0</ele><time>2026-04-06T11:10:48.999Z</time></trkpt><trkpt lat="37.76053406936194" lon="14.825315927582382"><ele>750.0</ele><time>2026-04-06T11:10:49.999Z</time></trkpt><trkpt lat="37.7607035616479" lon="14.825276857684933"><ele>750.0</ele><time>2026-04-06T11:10:50.999Z</time></trkpt><trkpt lat="37.760877324671895" lon="14.825235745358968"><ele>750.0</ele><time>2026-04-06T11:10:51.999Z</time></trkpt><trkpt lat="37.76105415190028" lon="14.825193690680207"><ele>750.0</ele><time>2026-04-06T11:10:52.999Z</time></trkpt><trkpt lat="37.761232776639005" lon="14.825149645098433"><ele>746.3333333333334</ele><time>2026-04-06T11:10:53.999Z</time></trkpt><trkpt lat="37.76141655228064" lon="14.825099779506616"><ele>742.6666666666667</ele><time>2026-04-06T11:10:54.999Z</time></trkpt><trkpt lat="37.76159887093605" lon="14.825044523586381"><ele>739.0</ele><time>2026-04-06T11:10:55.999Z</time></trkpt><trkpt lat="37.761778066916705" lon="14.824980237612834"><ele>740.0</ele><time>2026-04-06T11:10:56.999Z</time></trkpt><trkpt lat="37.761958646677016" lon="14.824909565486582"><ele>741.0</ele><time>2026-04-06T11:10:57.999Z</time></trkpt><trkpt lat="37.762136356447876" lon="14.824829894838043"><ele>742.0</ele><time>2026-04-06T11:10:58.999Z</time></trkpt><trkpt lat="37.76231265258795" lon="14.824742579609653"><ele>742.0</ele><time>2026-04-06T11:10:59.999Z</time></trkpt><trkpt lat="37.76249012686056" lon="14.824645681402973"><ele>742.0</ele><time>2026-04-06T11:11:00.999Z</time></trkpt><trkpt lat="37.76267595597754" lon="14.824539606960268"><ele>742.0</ele><time>2026-04-06T11:11:01.999Z</time></trkpt><trkpt lat="37.76285890058078" lon="14.824432535618309"><ele>742.6666666666667</ele><time>2026-04-06T11:11:02.999Z</time></trkpt><trkpt lat="37.76305049052109" lon="14.824320130873659"><ele>743.3333333333334</ele><time>2026-04-06T11:11:03.999Z</time></trkpt><trkpt lat="37.76324194385107" lon="14.824205632913035"><ele>744.0</ele><time>2026-04-06T11:11:04.999Z</time></trkpt><trkpt lat="37.76343249979462" lon="14.824092335467938"><ele>741.0</ele><time>2026-04-06T11:11:05.999Z</time></trkpt><trkpt lat="37.7636193268527" lon="14.823967523079569"><ele>738.0</ele><time>2026-04-06T11:11:06.999Z</time></trkpt><trkpt lat="37.7637908432066" lon="14.823880481819462"><ele>735.0</ele><time>2026-04-06T11:11:07.999Z</time></trkpt><trkpt lat="37.763925473293995" lon="14.823811157117337"><ele>735.0</ele><time>2026-04-06T11:11:08.999Z</time></trkpt><trkpt lat="37.764144410841176" lon="14.823664066420585"><ele>735.0</ele><time>2026-04-06T11:11:09.999Z</time></trkpt><trkpt lat="37.76433309414203" lon="14.823578313811321"><ele>735.0</ele><time>2026-04-06T11:11:10.999Z</time></trkpt><trkpt lat="37.76452811174296" lon="14.823491507794323"><ele>729.3333333333334</ele><time>2026-04-06T11:11:11.999Z</time></trkpt><trkpt lat="37.76472590192785" lon="14.823417246025235"><ele>723.6666666666667</ele><time>2026-04-06T11:11:12.999Z</time></trkpt><trkpt lat="37.76491479017985" lon="14.823353442807111"><ele>718.0</ele><time>2026-04-06T11:11:13.999Z</time></trkpt><trkpt lat="37.765109352433335" lon="14.823292856506363"><ele>717.3333333333334</ele><time>2026-04-06T11:11:14.999Z</time></trkpt><trkpt lat="37.76530393322246" lon="14.823233441087806"><ele>716.6666666666666</ele><time>2026-04-06T11:11:15.999Z</time></trkpt><trkpt lat="37.76550100460012" lon="14.823173509266487"><ele>716.0</ele><time>2026-04-06T11:11:16.999Z</time></trkpt><trkpt lat="37.76569672726412" lon="14.823113311825157"><ele>716.0</ele><time>2026-04-06T11:11:17.999Z</time></trkpt><trkpt lat="37.76589593729601" lon="14.823052041763509"><ele>716.0</ele><time>2026-04-06T11:11:18.999Z</time></trkpt><trkpt lat="37.76609455217734" lon="14.822991187400534"><ele>716.0</ele><time>2026-04-06T11:11:19.999Z</time></trkpt><trkpt lat="37.76629012427586" lon="14.822931295167253"><ele>715.6666666666666</ele><time>2026-04-06T11:11:20.999Z</time></trkpt><trkpt lat="37.766484308105596" lon="14.822873325543299"><ele>715.3333333333334</ele><time>2026-04-06T11:11:21.999Z</time></trkpt><trkpt lat="37.76667444575783" lon="14.822814121727456"><ele>715.0</ele><time>2026-04-06T11:11:22.999Z</time></trkpt><trkpt lat="37.76686115010816" lon="14.82276189566921"><ele>715.0</ele><time>2026-04-06T11:11:23.999Z</time></trkpt><trkpt lat="37.7670478905791" lon="14.822725321110955"><ele>715.0</ele><time>2026-04-06T11:11:24.999Z</time></trkpt><trkpt lat="37.76723835406277" lon="14.822705235790561"><ele>715.0</ele><time>2026-04-06T11:11:25.999Z</time></trkpt><trkpt lat="37.76743127375141" lon="14.822708518462381"><ele>715.0</ele><time>2026-04-06T11:11:26.999Z</time></trkpt><trkpt lat="37.76762374151598" lon="14.822730172819362"><ele>715.0</ele><time>2026-04-06T11:11:27.999Z</time></trkpt><trkpt lat="37.76781690476032" lon="14.822770158868826"><ele>715.0</ele><time>2026-04-06T11:11:28.999Z</time></trkpt><trkpt lat="37.76800856499357" lon="14.822823878040158"><ele>714.6666666666667</ele><time>2026-04-06T11:11:29.999Z</time></trkpt><trkpt lat="37.768203909077144" lon="14.822878453641065"><ele>714.3333333333334</ele><time>2026-04-06T11:11:30.999Z</time></trkpt><trkpt lat="37.768399105536936" lon="14.822932497310596"><ele>714.0</ele><time>2026-04-06T11:11:31.999Z</time></trkpt><trkpt lat="37.76859253168307" lon="14.822988398035008"><ele>714.0</ele><time>2026-04-06T11:11:32.999Z</time></trkpt><trkpt lat="37.768785584748365" lon="14.823044682116292"><ele>714.0</ele><time>2026-04-06T11:11:33.999Z</time></trkpt><trkpt lat="37.76897697466705" lon="14.823103768883573"><ele>714.0</ele><time>2026-04-06T11:11:34.999Z</time></trkpt><trkpt lat="37.76916461818394" lon="14.82316719990307"><ele>714.0</ele><time>2026-04-06T11:11:35.999Z</time></trkpt><trkpt lat="37.769347519048274" lon="14.8232451961774"><ele>714.0</ele><time>2026-04-06T11:11:36.999Z</time></trkpt><trkpt lat="37.7695244123778" lon="14.823338535137617"><ele>714.0</ele><time>2026-04-06T11:11:37.999Z</time></trkpt><trkpt lat="37.769692648057394" lon="14.82345418931036"><ele>715.6666666666666</ele><time>2026-04-06T11:11:38.999Z</time></trkpt><trkpt lat="37.76985270290218" lon="14.823589153004919"><ele>717.3333333333333</ele><time>2026-04-06T11:11:39.999Z</time></trkpt><trkpt lat="37.770006717349524" lon="14.823739130043757"><ele>719.0</ele><time>2026-04-06T11:11:40.999Z</time></trkpt><trkpt lat="37.77015331429041" lon="14.823901600645687"><ele>718.6666666666666</ele><time>2026-04-06T11:11:41.999Z</time></trkpt><trkpt lat="37.77029394318948" lon="14.824071070094009"><ele>718.3333333333334</ele><time>2026-04-06T11:11:42.999Z</time></trkpt><trkpt lat="37.77043382197021" lon="14.82424615990923"><ele>718.0</ele><time>2026-04-06T11:11:43.999Z</time></trkpt><trkpt lat="37.77057371230757" lon="14.824421264092448"><ele>718.0</ele><time>2026-04-06T11:11:44.999Z</time></trkpt><trkpt lat="37.77071435950696" lon="14.824592398200556"><ele>718.0</ele><time>2026-04-06T11:11:45.999Z</time></trkpt><trkpt lat="37.77086388669814" lon="14.82475253420953"><ele>718.0</ele><time>2026-04-06T11:11:46.998Z</time></trkpt><trkpt lat="37.7710209881577" lon="14.824897462056686"><ele>717.3333333333334</ele><time>2026-04-06T11:11:47.998Z</time></trkpt><trkpt lat="37.77118929449161" lon="14.825025973426685"><ele>716.6666666666666</ele><time>2026-04-06T11:11:48.998Z</time></trkpt><trkpt lat="37.77136660447876" lon="14.825136447794735"><ele>716.0</ele><time>2026-04-06T11:11:49.998Z</time></trkpt><trkpt lat="37.771552694987115" lon="14.825228077467173"><ele>718.3333333333333</ele><time>2026-04-06T11:11:50.998Z</time></trkpt><trkpt lat="37.771741530149505" lon="14.825300405002086"><ele>720.6666666666666</ele><time>2026-04-06T11:11:51.998Z</time></trkpt><trkpt lat="37.77193483842927" lon="14.825361266050095"><ele>723.0</ele><time>2026-04-06T11:11:52.998Z</time></trkpt><trkpt lat="37.77212941998274" lon="14.825414450558501"><ele>723.0</ele><time>2026-04-06T11:11:53.998Z</time></trkpt><trkpt lat="37.77232003156711" lon="14.825462522981365"><ele>723.0</ele><time>2026-04-06T11:11:54.998Z</time></trkpt><trkpt lat="37.77250990247162" lon="14.825510408659648"><ele>723.0</ele><time>2026-04-06T11:11:55.998Z</time></trkpt><trkpt lat="37.772699257832265" lon="14.825558164295838"><ele>723.0</ele><time>2026-04-06T11:11:56.998Z</time></trkpt><trkpt lat="37.77289071336138" lon="14.825606022007479"><ele>723.0</ele><time>2026-04-06T11:11:57.998Z</time></trkpt><trkpt lat="37.77308029408945" lon="14.82565322741671"><ele>723.0</ele><time>2026-04-06T11:11:58.998Z</time></trkpt><trkpt lat="37.77327021387872" lon="14.825700857621614"><ele>723.0</ele><time>2026-04-06T11:11:59.998Z</time></trkpt><trkpt lat="37.77345965794192" lon="14.82574811948285"><ele>723.0</ele><time>2026-04-06T11:12:00.998Z</time></trkpt><trkpt lat="37.77364921810645" lon="14.825795410339492"><ele>723.0</ele><time>2026-04-06T11:12:01.998Z</time></trkpt><trkpt lat="37.773836847142725" lon="14.825842219369418"><ele>724.0</ele><time>2026-04-06T11:12:02.998Z</time></trkpt><trkpt lat="37.7740251953461" lon="14.825888954711363"><ele>725.0</ele><time>2026-04-06T11:12:03.998Z</time></trkpt><trkpt lat="37.774212151403546" lon="14.825934403439724"><ele>726.0</ele><time>2026-04-06T11:12:04.998Z</time></trkpt><trkpt lat="37.774399718673735" lon="14.825980214759873"><ele>729.6666666666666</ele><time>2026-04-06T11:12:06.001Z</time></trkpt><trkpt lat="37.774584765136304" lon="14.826025794832603"><ele>733.3333333333333</ele><time>2026-04-06T11:12:07.001Z</time></trkpt><trkpt lat="37.77477098229233" lon="14.826071683775973"><ele>737.0</ele><time>2026-04-06T11:12:08.001Z</time></trkpt><trkpt lat="37.77495664860624" lon="14.826117887505726"><ele>737.0</ele><time>2026-04-06T11:12:09.001Z</time></trkpt><trkpt lat="37.77514322873076" lon="14.826164994831968"><ele>737.0</ele><time>2026-04-06T11:12:10.001Z</time></trkpt><trkpt lat="37.77533015692102" lon="14.82620827907166"><ele>737.0</ele><time>2026-04-06T11:12:11.001Z</time></trkpt><trkpt lat="37.775518308911806" lon="14.82624080321026"><ele>736.0</ele><time>2026-04-06T11:12:12.001Z</time></trkpt><trkpt lat="37.775706654889596" lon="14.826258949392"><ele>735.0</ele><time>2026-04-06T11:12:13.001Z</time></trkpt><trkpt lat="37.77589586608403" lon="14.826262744915288"><ele>734.0</ele><time>2026-04-06T11:12:14.001Z</time></trkpt><trkpt lat="37.7760811397262" lon="14.826248369454833"><ele>737.3333333333333</ele><time>2026-04-06T11:12:15.001Z</time></trkpt><trkpt lat="37.77626868669136" lon="14.826210800544333"><ele>740.6666666666666</ele><time>2026-04-06T11:12:16.001Z</time></trkpt><trkpt lat="37.77645073462561" lon="14.826154541477235"><ele>744.0</ele><time>2026-04-06T11:12:17.001Z</time></trkpt><trkpt lat="37.776628109394835" lon="14.826081448170164"><ele>744.0</ele><time>2026-04-06T11:12:18.001Z</time></trkpt><trkpt lat="37.77680378990445" lon="14.825992508709847"><ele>744.0</ele><time>2026-04-06T11:12:19.001Z</time></trkpt><trkpt lat="37.77697127624499" lon="14.825883700666497"><ele>744.0</ele><time>2026-04-06T11:12:20Z</time></trkpt><trkpt lat="37.777133707448996" lon="14.825760406453274"><ele>749.6666666666666</ele><time>2026-04-06T11:12:21Z</time></trkpt><trkpt lat="37.77729081098964" lon="14.825631260265364"><ele>755.3333333333333</ele><time>2026-04-06T11:12:22Z</time></trkpt><trkpt lat="37.77746534145322" lon="14.825485369209629"><ele>761.0</ele><time>2026-04-06T11:12:23Z</time></trkpt><trkpt lat="37.77763999498979" lon="14.82534359828936"><ele>764.3333333333333</ele><time>2026-04-06T11:12:24Z</time></trkpt><trkpt lat="37.7777978909104" lon="14.825225266443848"><ele>767.6666666666666</ele><time>2026-04-06T11:12:25Z</time></trkpt><trkpt lat="37.777963175168274" lon="14.825116934866559"><ele>771.0</ele><time>2026-04-06T11:12:26Z</time></trkpt><trkpt lat="37.77812441417851" lon="14.825012571395211"><ele>766.3333333333334</ele><time>2026-04-06T11:12:27Z</time></trkpt><trkpt lat="37.778312168301575" lon="14.82495152985317"><ele>761.6666666666667</ele><time>2026-04-06T11:12:28Z</time></trkpt><trkpt lat="37.77849902070475" lon="14.824885735319828"><ele>757.0</ele><time>2026-04-06T11:12:29Z</time></trkpt><trkpt lat="37.77868920715124" lon="14.824832595390678"><ele>757.0</ele><time>2026-04-06T11:12:30Z</time></trkpt><trkpt lat="37.77887921946731" lon="14.824780914467244"><ele>757.0</ele><time>2026-04-06T11:12:31Z</time></trkpt><trkpt lat="37.77906185887593" lon="14.824731238813062"><ele>757.0</ele><time>2026-04-06T11:12:32Z</time></trkpt><trkpt lat="37.7792353745099" lon="14.824685936718884"><ele>760.3333333333334</ele><time>2026-04-06T11:12:33Z</time></trkpt><trkpt lat="37.77940324854891" lon="14.824653223352312"><ele>763.6666666666666</ele><time>2026-04-06T11:12:34Z</time></trkpt><trkpt lat="37.77957711047149" lon="14.824630353939742"><ele>767.0</ele><time>2026-04-06T11:12:35Z</time></trkpt><trkpt lat="37.77975295289032" lon="14.824628532578414"><ele>767.0</ele><time>2026-04-06T11:12:36Z</time></trkpt><trkpt lat="37.779928537212456" lon="14.824645960865068"><ele>767.0</ele><time>2026-04-06T11:12:37Z</time></trkpt><trkpt lat="37.78010016509141" lon="14.82468635623479"><ele>767.0</ele><time>2026-04-06T11:12:38Z</time></trkpt><trkpt lat="37.78026940279648" lon="14.824743963042136"><ele>766.0</ele><time>2026-04-06T11:12:39Z</time></trkpt><trkpt lat="37.78043077106835" lon="14.824822361062358"><ele>765.0</ele><time>2026-04-06T11:12:40Z</time></trkpt><trkpt lat="37.7805810623124" lon="14.824921589214071"><ele>764.0</ele><time>2026-04-06T11:12:41Z</time></trkpt><trkpt lat="37.78072609761218" lon="14.825033021291617"><ele>766.6666666666666</ele><time>2026-04-06T11:12:42Z</time></trkpt><trkpt lat="37.78086952165374" lon="14.825147884488016"><ele>769.3333333333333</ele><time>2026-04-06T11:12:43Z</time></trkpt><trkpt lat="37.781011834687966" lon="14.825269537344528"><ele>772.0</ele><time>2026-04-06T11:12:44Z</time></trkpt><trkpt lat="37.78118421368609" lon="14.825394165049891"><ele>772.0</ele><time>2026-04-06T11:12:45Z</time></trkpt><trkpt lat="37.7813435507512" lon="14.825481303887003"><ele>772.0</ele><time>2026-04-06T11:12:46Z</time></trkpt><trkpt lat="37.78149869294418" lon="14.825535170085004"><ele>772.0</ele><time>2026-04-06T11:12:47Z</time></trkpt><trkpt lat="37.781651684720345" lon="14.825576066077033"><ele>772.0</ele><time>2026-04-06T11:12:48Z</time></trkpt><trkpt lat="37.781806226426575" lon="14.825596579453787"><ele>772.0</ele><time>2026-04-06T11:12:49Z</time></trkpt><trkpt lat="37.781954076164254" lon="14.825580535063738"><ele>772.0</ele><time>2026-04-06T11:12:50Z</time></trkpt><trkpt lat="37.78208333166921" lon="14.82553942781122"><ele>772.0</ele><time>2026-04-06T11:12:51Z</time></trkpt><trkpt lat="37.78220454564575" lon="14.82549534565535"><ele>772.0</ele><time>2026-04-06T11:12:52Z</time></trkpt><trkpt lat="37.782314846330316" lon="14.82549070922597"><ele>772.0</ele><time>2026-04-06T11:12:53Z</time></trkpt><trkpt lat="37.78242026720879" lon="14.82551632732584"><ele>772.0</ele><time>2026-04-06T11:12:54Z</time></trkpt><trkpt lat="37.78251674883154" lon="14.825587556666553"><ele>772.0</ele><time>2026-04-06T11:12:54.999Z</time></trkpt><trkpt lat="37.782619302221846" lon="14.825635149003046"><ele>772.0</ele><time>2026-04-06T11:12:55.999Z</time></trkpt><trkpt lat="37.7827339493199" lon="14.825687530204812"><ele>772.4000000000001</ele><time>2026-04-06T11:12:56.999Z</time></trkpt><trkpt lat="37.78283677356898" lon="14.825737805938935"><ele>772.8000000000001</ele><time>2026-04-06T11:12:57.999Z</time></trkpt><trkpt lat="37.7829251078834" lon="14.825788972624398"><ele>773.2</ele><time>2026-04-06T11:12:58.999Z</time></trkpt><trkpt lat="37.7830170902117" lon="14.82585263776083"><ele>773.6</ele><time>2026-04-06T11:12:59.999Z</time></trkpt><trkpt lat="37.78310585082041" lon="14.8259236608796"><ele>774.0</ele><time>2026-04-06T11:13:00.999Z</time></trkpt><trkpt lat="37.78318988785637" lon="14.825994149946919"><ele>774.0</ele><time>2026-04-06T11:13:01.999Z</time></trkpt><trkpt lat="37.783267619486004" lon="14.826064209598409"><ele>774.0</ele><time>2026-04-06T11:13:02.999Z</time></trkpt><trkpt lat="37.7833417997508" lon="14.826135442175012"><ele>774.0</ele><time>2026-04-06T11:13:03.999Z</time></trkpt><trkpt lat="37.78340776830592" lon="14.826207277075243"><ele>774.0</ele><time>2026-04-06T11:13:04.999Z</time></trkpt><trkpt lat="37.783477616946584" lon="14.826268250190807"><ele>774.0</ele><time>2026-04-06T11:13:05.999Z</time></trkpt><trkpt lat="37.78353620365649" lon="14.826338886878391"><ele>774.0</ele><time>2026-04-06T11:13:06.999Z</time></trkpt><trkpt lat="37.78358628248491" lon="14.826414319829142"><ele>771.8000000000001</ele><time>2026-04-06T11:13:07.999Z</time></trkpt><trkpt lat="37.78363335863621" lon="14.826487517316515"><ele>769.6</ele><time>2026-04-06T11:13:08.999Z</time></trkpt><trkpt lat="37.78367558704044" lon="14.826559915055492"><ele>767.4</ele><time>2026-04-06T11:13:09.999Z</time></trkpt><trkpt lat="37.783708670981234" lon="14.826693591798646"><ele>765.2</ele><time>2026-04-06T11:13:11.999Z</time></trkpt><trkpt lat="37.78369463312441" lon="14.826814146414987"><ele>763.0</ele><time>2026-04-06T11:13:14.999Z</time></trkpt><trkpt lat="37.783630747939746" lon="14.826945106708058"><ele>763.0</ele><time>2026-04-06T11:13:16.999Z</time></trkpt><trkpt lat="37.78354198950086" lon="14.827053357642813"><ele>763.0</ele><time>2026-04-06T11:13:18.999Z</time></trkpt><trkpt lat="37.783490742384735" lon="14.827108606965286"><ele>763.0</ele><time>2026-04-06T11:13:19.999Z</time></trkpt><trkpt lat="37.78343978517795" lon="14.827162117954673"><ele>763.0</ele><time>2026-04-06T11:13:20.999Z</time></trkpt><trkpt lat="37.78331811516339" lon="14.82728432429511"><ele>763.0</ele><time>2026-04-06T11:13:22.999Z</time></trkpt><trkpt lat="37.78325566312329" lon="14.827356510095449"><ele>764.8</ele><time>2026-04-06T11:13:23.999Z</time></trkpt><trkpt lat="37.78318479582855" lon="14.827436879763436"><ele>766.5999999999999</ele><time>2026-04-06T11:13:24.999Z</time></trkpt><trkpt lat="37.78311155594451" lon="14.82751791215524"><ele>768.4000000000001</ele><time>2026-04-06T11:13:25.999Z</time></trkpt><trkpt lat="37.78303332390305" lon="14.827595899614375"><ele>770.2</ele><time>2026-04-06T11:13:26.999Z</time></trkpt><trkpt lat="37.78295146873383" lon="14.827670414996868"><ele>772.0</ele><time>2026-04-06T11:13:27.999Z</time></trkpt><trkpt lat="37.782877450434995" lon="14.827747348323017"><ele>771.9999999999999</ele><time>2026-04-06T11:13:28.999Z</time></trkpt><trkpt lat="37.78280362009506" lon="14.827817972890012"><ele>772.0</ele><time>2026-04-06T11:13:29.999Z</time></trkpt><trkpt lat="37.78273067676872" lon="14.827878537963926"><ele>772.0</ele><time>2026-04-06T11:13:30.999Z</time></trkpt><trkpt lat="37.78266487079289" lon="14.827939239585595"><ele>772.0</ele><time>2026-04-06T11:13:31.999Z</time></trkpt><trkpt lat="37.78259758341578" lon="14.82799231822654"><ele>771.9999999999999</ele><time>2026-04-06T11:13:32.999Z</time></trkpt><trkpt lat="37.782532377963925" lon="14.828035484673402"><ele>772.0</ele><time>2026-04-06T11:13:33.999Z</time></trkpt><trkpt lat="37.7824636002457" lon="14.828078354747886"><ele>783.0</ele><time>2026-04-06T11:13:34.999Z</time></trkpt><trkpt lat="37.78239923482376" lon="14.82813141594032"><ele>783.0</ele><time>2026-04-06T11:13:35.999Z</time></trkpt><trkpt lat="37.782341591231294" lon="14.82818113735556"><ele>783.0</ele><time>2026-04-06T11:13:36.999Z</time></trkpt><trkpt lat="37.78228207257014" lon="14.828225784150444"><ele>783.0</ele><time>2026-04-06T11:13:37.999Z</time></trkpt></trkseg><trkseg><trkpt lat="37.78250975615465" lon="14.828279027680827"><ele>783.0</ele><time>2026-04-06T11:24:01.998Z</time></trkpt><trkpt lat="37.78257115038433" lon="14.828209303981648"><ele>783.0</ele><time>2026-04-06T11:24:05.998Z</time></trkpt><trkpt lat="37.78255847116694" lon="14.828075503202308"><ele>783.0</ele><time>2026-04-06T11:24:09.998Z</time></trkpt><trkpt lat="37.78264376787925" lon="14.82801023893532"><ele>783.0</ele><time>2026-04-06T11:24:12.998Z</time></trkpt><trkpt lat="37.78274940901251" lon="14.827946503930463"><ele>783.0</ele><time>2026-04-06T11:24:14.998Z</time></trkpt><trkpt lat="37.782834759527994" lon="14.827876160471739"><ele>782.1666666666666</ele><time>2026-04-06T11:24:16.998Z</time></trkpt><trkpt lat="37.78292890514178" lon="14.827792175224054"><ele>781.3333333333333</ele><time>2026-04-06T11:24:18.998Z</time></trkpt><trkpt lat="37.78297732131008" lon="14.827730657108866"><ele>780.5</ele><time>2026-04-06T11:24:19.998Z</time></trkpt><trkpt lat="37.78302841002826" lon="14.827664685508655"><ele>779.6666666666666</ele><time>2026-04-06T11:24:20.998Z</time></trkpt><trkpt lat="37.78307680000596" lon="14.827605490253292"><ele>778.8333333333333</ele><time>2026-04-06T11:24:21.998Z</time></trkpt><trkpt lat="37.78315899170634" lon="14.827520771906922"><ele>778.0</ele><time>2026-04-06T11:24:23.998Z</time></trkpt><trkpt lat="37.78327196770134" lon="14.8275080031118"><ele>778.0</ele><time>2026-04-06T11:24:25.998Z</time></trkpt><trkpt lat="37.78332379771748" lon="14.827576716458866"><ele>778.0</ele><time>2026-04-06T11:24:26.998Z</time></trkpt><trkpt lat="37.78341445981548" lon="14.827663675726658"><ele>778.0</ele><time>2026-04-06T11:24:28.997Z</time></trkpt><trkpt lat="37.783557837990294" lon="14.827685044127216"><ele>778.0</ele><time>2026-04-06T11:24:30.997Z</time></trkpt><trkpt lat="37.78364912773795" lon="14.82747445753086"><ele>775.4999999999999</ele><time>2026-04-06T11:24:32.997Z</time></trkpt><trkpt lat="37.783693025724844" lon="14.827377113668938"><ele>773.0</ele><time>2026-04-06T11:24:33.997Z</time></trkpt><trkpt lat="37.78373042381803" lon="14.82726598997222"><ele>770.5</ele><time>2026-04-06T11:24:34.997Z</time></trkpt><trkpt lat="37.783769758647885" lon="14.82716499358955"><ele>768.0</ele><time>2026-04-06T11:24:35.997Z</time></trkpt><trkpt lat="37.78380101211745" lon="14.827077797990945"><ele>765.5</ele><time>2026-04-06T11:24:36.997Z</time></trkpt><trkpt lat="37.78382904278669" lon="14.826988925764422"><ele>763.0</ele><time>2026-04-06T11:24:37.997Z</time></trkpt><trkpt lat="37.7838529425651" lon="14.826902086892348"><ele>763.0</ele><time>2026-04-06T11:24:38.997Z</time></trkpt><trkpt lat="37.78385940660613" lon="14.826805206257708"><ele>763.0</ele><time>2026-04-06T11:24:39.997Z</time></trkpt><trkpt lat="37.78392692259886" lon="14.826805035506572"><ele>763.0</ele><time>2026-04-06T11:24:40.999Z</time></trkpt><trkpt lat="37.78377415295682" lon="14.826656222518848"><ele>763.0</ele><time>2026-04-06T11:24:41.999Z</time></trkpt><trkpt lat="37.78372927554687" lon="14.826581274519379"><ele>763.0</ele><time>2026-04-06T11:24:42.999Z</time></trkpt><trkpt lat="37.78370480222106" lon="14.826480509007284"><ele>763.0</ele><time>2026-04-06T11:24:43.999Z</time></trkpt><trkpt lat="37.78365932639387" lon="14.826406355807007"><ele>763.0</ele><time>2026-04-06T11:24:44.999Z</time></trkpt><trkpt lat="37.783608833514855" lon="14.826341159101082"><ele>763.0</ele><time>2026-04-06T11:24:45.999Z</time></trkpt><trkpt lat="37.783558012310316" lon="14.82627348517664"><ele>763.0</ele><time>2026-04-06T11:24:46.999Z</time></trkpt><trkpt lat="37.78350262889534" lon="14.826199211664303"><ele>763.0</ele><time>2026-04-06T11:24:48Z</time></trkpt><trkpt lat="37.783439754515854" lon="14.82612936975367"><ele>763.0</ele><time>2026-04-06T11:24:48.999Z</time></trkpt><trkpt lat="37.783372419886675" lon="14.826061269584029"><ele>762.4</ele><time>2026-04-06T11:24:49.999Z</time></trkpt><trkpt lat="37.78329597591997" lon="14.825990479510967"><ele>761.8</ele><time>2026-04-06T11:24:51Z</time></trkpt><trkpt lat="37.78321877527518" lon="14.825922803918608"><ele>761.2</ele><time>2026-04-06T11:24:51.999Z</time></trkpt><trkpt lat="37.78314166187766" lon="14.82585372939512"><ele>760.6</ele><time>2026-04-06T11:24:53Z</time></trkpt><trkpt lat="37.78306325197009" lon="14.825797201666806"><ele>760.0</ele><time>2026-04-06T11:24:54Z</time></trkpt><trkpt lat="37.78297781912125" lon="14.825734469352764"><ele>760.0</ele><time>2026-04-06T11:24:54.999Z</time></trkpt><trkpt lat="37.782887458267375" lon="14.825685399698038"><ele>760.0</ele><time>2026-04-06T11:24:55.999Z</time></trkpt><trkpt lat="37.782790948563886" lon="14.825641301847956"><ele>760.0</ele><time>2026-04-06T11:24:56.999Z</time></trkpt><trkpt lat="37.78269707598733" lon="14.82559264517577"><ele>760.0</ele><time>2026-04-06T11:24:57.999Z</time></trkpt><trkpt lat="37.782597945857006" lon="14.825545524628193"><ele>760.0</ele><time>2026-04-06T11:24:58.999Z</time></trkpt><trkpt lat="37.78249772669937" lon="14.825495765391933"><ele>762.4</ele><time>2026-04-06T11:24:59.999Z</time></trkpt><trkpt lat="37.78239085386457" lon="14.825453314922788"><ele>764.8</ele><time>2026-04-06T11:25:00.999Z</time></trkpt><trkpt lat="37.782287475698745" lon="14.825436022390297"><ele>767.2</ele><time>2026-04-06T11:25:01.999Z</time></trkpt><trkpt lat="37.78217998349267" lon="14.82544885610383"><ele>769.6</ele><time>2026-04-06T11:25:02.999Z</time></trkpt><trkpt lat="37.78207035120708" lon="14.825475004659692"><ele>772.0</ele><time>2026-04-06T11:25:03.999Z</time></trkpt><trkpt lat="37.781956987308114" lon="14.82550107605147"><ele>772.0</ele><time>2026-04-06T11:25:04.999Z</time></trkpt><trkpt lat="37.781839643602225" lon="14.825510041929972"><ele>772.0</ele><time>2026-04-06T11:25:05.999Z</time></trkpt><trkpt lat="37.781714880263145" lon="14.825503127224742"><ele>772.0</ele><time>2026-04-06T11:25:06.999Z</time></trkpt><trkpt lat="37.78158476957985" lon="14.82548606260741"><ele>772.0</ele><time>2026-04-06T11:25:07.999Z</time></trkpt><trkpt lat="37.78145589593369" lon="14.8254519007805"><ele>772.0</ele><time>2026-04-06T11:25:08.999Z</time></trkpt><trkpt lat="37.781322204580086" lon="14.82539486755288"><ele>772.0</ele><time>2026-04-06T11:25:09.999Z</time></trkpt><trkpt lat="37.78118469885112" lon="14.825317596070429"><ele>772.0</ele><time>2026-04-06T11:25:10.999Z</time></trkpt><trkpt lat="37.781044618579045" lon="14.825225014821394"><ele>770.0</ele><time>2026-04-06T11:25:11.999Z</time></trkpt><trkpt lat="37.78091278786472" lon="14.825115577167297"><ele>768.0</ele><time>2026-04-06T11:25:12.999Z</time></trkpt><trkpt lat="37.780806961549615" lon="14.82500905669788"><ele>766.0</ele><time>2026-04-06T11:25:13.999Z</time></trkpt><trkpt lat="37.780707667310956" lon="14.824907355985449"><ele>764.0</ele><time>2026-04-06T11:25:14.999Z</time></trkpt><trkpt lat="37.780582967996956" lon="14.82480029116745"><ele>764.0</ele><time>2026-04-06T11:25:15.999Z</time></trkpt><trkpt lat="37.78046438362119" lon="14.824698016868439"><ele>764.0</ele><time>2026-04-06T11:25:16.999Z</time></trkpt><trkpt lat="37.78033768426104" lon="14.824640550532632"><ele>764.0</ele><time>2026-04-06T11:25:17.999Z</time></trkpt><trkpt lat="37.78021151691559" lon="14.824589404433514"><ele>764.0</ele><time>2026-04-06T11:25:18.999Z</time></trkpt><trkpt lat="37.78008252043512" lon="14.824552849301162"><ele>765.0</ele><time>2026-04-06T11:25:20.057Z</time></trkpt><trkpt lat="37.77992073602132" lon="14.824518362782921"><ele>766.0</ele><time>2026-04-06T11:25:20.999Z</time></trkpt><trkpt lat="37.779650551682934" lon="14.824486560294522"><ele>767.0</ele><time>2026-04-06T11:25:21.999Z</time></trkpt><trkpt lat="37.77953368874078" lon="14.824525055037286"><ele>767.0</ele><time>2026-04-06T11:25:22.999Z</time></trkpt><trkpt lat="37.779406537877826" lon="14.824570675943473"><ele>767.0</ele><time>2026-04-06T11:25:23.999Z</time></trkpt><trkpt lat="37.7792511867933" lon="14.824583195304589"><ele>767.0</ele><time>2026-04-06T11:25:24.999Z</time></trkpt><trkpt lat="37.77910192020202" lon="14.824615950719926"><ele>767.0</ele><time>2026-04-06T11:25:25.999Z</time></trkpt><trkpt lat="37.778954448646964" lon="14.82465081876711"><ele>764.5</ele><time>2026-04-06T11:25:26.999Z</time></trkpt><trkpt lat="37.77881159409133" lon="14.824696286658588"><ele>762.0</ele><time>2026-04-06T11:25:27.999Z</time></trkpt><trkpt lat="37.778667773690955" lon="14.824741403947206"><ele>759.5</ele><time>2026-04-06T11:25:28.999Z</time></trkpt><trkpt lat="37.778520421752766" lon="14.824785895063018"><ele>757.0</ele><time>2026-04-06T11:25:29.999Z</time></trkpt><trkpt lat="37.7783726990235" lon="14.82483214173686"><ele>754.6666666666667</ele><time>2026-04-06T11:25:30.999Z</time></trkpt><trkpt lat="37.77822366590688" lon="14.824886915359112"><ele>752.3333333333334</ele><time>2026-04-06T11:25:31.999Z</time></trkpt><trkpt lat="37.778076770751156" lon="14.824952636586959"><ele>750.0</ele><time>2026-04-06T11:25:32.999Z</time></trkpt><trkpt lat="37.777935555111284" lon="14.825037917625867"><ele>750.0</ele><time>2026-04-06T11:25:33.999Z</time></trkpt><trkpt lat="37.77779982390899" lon="14.825140327050777"><ele>750.0</ele><time>2026-04-06T11:25:34.999Z</time></trkpt><trkpt lat="37.77766467418528" lon="14.825248281636474"><ele>750.0</ele><time>2026-04-06T11:25:35.999Z</time></trkpt><trkpt lat="37.77753154361718" lon="14.825358733747235"><ele>753.6666666666666</ele><time>2026-04-06T11:25:36.999Z</time></trkpt><trkpt lat="37.77740240304302" lon="14.825467866551355"><ele>757.3333333333333</ele><time>2026-04-06T11:25:37.999Z</time></trkpt><trkpt lat="37.77727082851946" lon="14.825575722533172"><ele>761.0</ele><time>2026-04-06T11:25:38.999Z</time></trkpt><trkpt lat="37.777125559333975" lon="14.825687986203016"><ele>761.0</ele><time>2026-04-06T11:25:39.999Z</time></trkpt><trkpt lat="37.77698885608118" lon="14.825801755742145"><ele>761.0</ele><time>2026-04-06T11:25:40.999Z</time></trkpt><trkpt lat="37.77686093297022" lon="14.825880669353735"><ele>761.0</ele><time>2026-04-06T11:25:41.999Z</time></trkpt><trkpt lat="37.77671887307936" lon="14.825955997540085"><ele>755.3333333333333</ele><time>2026-04-06T11:25:42.999Z</time></trkpt><trkpt lat="37.7765744777097" lon="14.82601981968073"><ele>749.6666666666666</ele><time>2026-04-06T11:25:43.999Z</time></trkpt><trkpt lat="37.7764151703251" lon="14.826083183591958"><ele>744.0</ele><time>2026-04-06T11:25:44.999Z</time></trkpt><trkpt lat="37.77625783515942" lon="14.826128860284799"><ele>744.0</ele><time>2026-04-06T11:25:45.999Z</time></trkpt><trkpt lat="37.77609311415196" lon="14.826162388071664"><ele>744.0</ele><time>2026-04-06T11:25:46.999Z</time></trkpt><trkpt lat="37.775926022339036" lon="14.826183426888372"><ele>744.0</ele><time>2026-04-06T11:25:47.999Z</time></trkpt><trkpt lat="37.77575280798171" lon="14.826189662477677"><ele>740.6666666666666</ele><time>2026-04-06T11:25:48.999Z</time></trkpt><trkpt lat="37.77558313645963" lon="14.82617868104188"><ele>737.3333333333333</ele><time>2026-04-06T11:25:49.998Z</time></trkpt><trkpt lat="37.77541516764871" lon="14.826150159964016"><ele>734.0</ele><time>2026-04-06T11:25:50.998Z</time></trkpt><trkpt lat="37.77523945114485" lon="14.826116348101962"><ele>735.0</ele><time>2026-04-06T11:25:51.998Z</time></trkpt><trkpt lat="37.77506274405972" lon="14.82607610557172"><ele>736.0</ele><time>2026-04-06T11:25:52.998Z</time></trkpt><trkpt lat="37.77488329305577" lon="14.826032109693884"><ele>737.0</ele><time>2026-04-06T11:25:53.998Z</time></trkpt><trkpt lat="37.77470347054355" lon="14.825982115703894"><ele>733.3333333333333</ele><time>2026-04-06T11:25:54.998Z</time></trkpt><trkpt lat="37.77451060298771" lon="14.825939846299026"><ele>729.6666666666666</ele><time>2026-04-06T11:25:55.998Z</time></trkpt><trkpt lat="37.77427167945481" lon="14.82589110746915"><ele>726.0</ele><time>2026-04-06T11:25:56.998Z</time></trkpt><trkpt lat="37.774147762148715" lon="14.825837011887923"><ele>726.0</ele><time>2026-04-06T11:25:57.998Z</time></trkpt><trkpt lat="37.77396059461536" lon="14.825786879608224"><ele>726.0</ele><time>2026-04-06T11:25:58.998Z</time></trkpt><trkpt lat="37.773766884670266" lon="14.82573630119926"><ele>726.0</ele><time>2026-04-06T11:25:59.998Z</time></trkpt><trkpt lat="37.77357754451737" lon="14.825683403301564"><ele>725.0</ele><time>2026-04-06T11:26:00.998Z</time></trkpt><trkpt lat="37.77339063139103" lon="14.825637039078668"><ele>724.0</ele><time>2026-04-06T11:26:01.998Z</time></trkpt><trkpt lat="37.77320750052003" lon="14.825590343256877"><ele>723.0</ele><time>2026-04-06T11:26:02.998Z</time></trkpt><trkpt lat="37.77302927451304" lon="14.825544870328189"><ele>723.0</ele><time>2026-04-06T11:26:03.998Z</time></trkpt><trkpt lat="37.772853769391475" lon="14.82550232200627"><ele>723.0</ele><time>2026-04-06T11:26:04.998Z</time></trkpt><trkpt lat="37.77267429151467" lon="14.825455472268507"><ele>723.0</ele><time>2026-04-06T11:26:05.998Z</time></trkpt><trkpt lat="37.77250056978184" lon="14.825413165282733"><ele>724.0</ele><time>2026-04-06T11:26:06.998Z</time></trkpt><trkpt lat="37.772329984319995" lon="14.825371453541106"><ele>725.0</ele><time>2026-04-06T11:26:07.998Z</time></trkpt><trkpt lat="37.772160833404946" lon="14.825326722819753"><ele>726.0</ele><time>2026-04-06T11:26:08.998Z</time></trkpt><trkpt lat="37.771991254346325" lon="14.825285722401523"><ele>725.0</ele><time>2026-04-06T11:26:09.998Z</time></trkpt><trkpt lat="37.771823633943896" lon="14.82523614075264"><ele>724.0</ele><time>2026-04-06T11:26:10.998Z</time></trkpt><trkpt lat="37.771657436110154" lon="14.825184963673088"><ele>723.0</ele><time>2026-04-06T11:26:11.998Z</time></trkpt><trkpt lat="37.77149669067007" lon="14.825123600659733"><ele>720.6666666666666</ele><time>2026-04-06T11:26:12.998Z</time></trkpt><trkpt lat="37.77134322267662" lon="14.82504494068588"><ele>718.3333333333333</ele><time>2026-04-06T11:26:13.998Z</time></trkpt><trkpt lat="37.77119257289816" lon="14.824948921058569"><ele>716.0</ele><time>2026-04-06T11:26:14.998Z</time></trkpt><trkpt lat="37.77104528734729" lon="14.82483943569999"><ele>716.6666666666666</ele><time>2026-04-06T11:26:15.998Z</time></trkpt><trkpt lat="37.770906867729245" lon="14.824718542390675"><ele>717.3333333333334</ele><time>2026-04-06T11:26:16.998Z</time></trkpt><trkpt lat="37.770777825505355" lon="14.824582306528853"><ele>718.0</ele><time>2026-04-06T11:26:17.998Z</time></trkpt><trkpt lat="37.77064845992158" lon="14.82442847579542"><ele>716.3333333333334</ele><time>2026-04-06T11:26:18.998Z</time></trkpt><trkpt lat="37.77052888133193" lon="14.824272991519141"><ele>714.6666666666666</ele><time>2026-04-06T11:26:19.998Z</time></trkpt><trkpt lat="37.7704095101222" lon="14.824103443366711"><ele>713.0</ele><time>2026-04-06T11:26:20.998Z</time></trkpt><trkpt lat="37.77028302353096" lon="14.823947960059622"><ele>715.0</ele><time>2026-04-06T11:26:21.998Z</time></trkpt><trkpt lat="37.77015203186178" lon="14.823795748751385"><ele>717.0</ele><time>2026-04-06T11:26:22.998Z</time></trkpt><trkpt lat="37.7700159382433" lon="14.823649068244626"><ele>719.0</ele><time>2026-04-06T11:26:23.998Z</time></trkpt><trkpt lat="37.76987289060642" lon="14.823511055020289"><ele>716.6666666666666</ele><time>2026-04-06T11:26:24.998Z</time></trkpt><trkpt lat="37.76972447657802" lon="14.823385866220935"><ele>714.3333333333334</ele><time>2026-04-06T11:26:25.998Z</time></trkpt><trkpt lat="37.76956086627861" lon="14.82328703122274"><ele>712.0</ele><time>2026-04-06T11:26:26.998Z</time></trkpt><trkpt lat="37.769394339707404" lon="14.823194824869567"><ele>712.6666666666667</ele><time>2026-04-06T11:26:27.998Z</time></trkpt><trkpt lat="37.76922177948053" lon="14.823111914819815"><ele>713.3333333333334</ele><time>2026-04-06T11:26:28.998Z</time></trkpt><trkpt lat="37.769048205421726" lon="14.823045970333599"><ele>714.0</ele><time>2026-04-06T11:26:29.998Z</time></trkpt><trkpt lat="37.76886988116841" lon="14.822988461899014"><ele>714.0</ele><time>2026-04-06T11:26:30.998Z</time></trkpt><trkpt lat="37.768693242190274" lon="14.82293623559499"><ele>714.0</ele><time>2026-04-06T11:26:31.998Z</time></trkpt><trkpt lat="37.768516206596516" lon="14.822880809951075"><ele>714.0</ele><time>2026-04-06T11:26:32.998Z</time></trkpt><trkpt lat="37.768339014994645" lon="14.822825334383467"><ele>713.0</ele><time>2026-04-06T11:26:33.998Z</time></trkpt><trkpt lat="37.768162279740814" lon="14.822771032725646"><ele>712.0</ele><time>2026-04-06T11:26:34.998Z</time></trkpt><trkpt lat="37.76798427750352" lon="14.82272052237744"><ele>711.0</ele><time>2026-04-06T11:26:35.998Z</time></trkpt><trkpt lat="37.767805126944694" lon="14.822674726045205"><ele>707.6666666666666</ele><time>2026-04-06T11:26:36.998Z</time></trkpt><trkpt lat="37.767625833997144" lon="14.822639609583005"><ele>704.3333333333333</ele><time>2026-04-06T11:26:37.998Z</time></trkpt><trkpt lat="37.76744792723471" lon="14.822622496935228"><ele>701.0</ele><time>2026-04-06T11:26:38.998Z</time></trkpt><trkpt lat="37.76726767754876" lon="14.822623174367521"><ele>701.0</ele><time>2026-04-06T11:26:39.998Z</time></trkpt><trkpt lat="37.76708937750752" lon="14.822637847232373"><ele>701.0</ele><time>2026-04-06T11:26:40.998Z</time></trkpt><trkpt lat="37.766912825480276" lon="14.82266942151897"><ele>701.0</ele><time>2026-04-06T11:26:41.998Z</time></trkpt><trkpt lat="37.76673815227291" lon="14.822717240272938"><ele>707.0</ele><time>2026-04-06T11:26:42.997Z</time></trkpt><trkpt lat="37.76656128510249" lon="14.82276719642545"><ele>713.0</ele><time>2026-04-06T11:26:43.997Z</time></trkpt><trkpt lat="37.766384744438774" lon="14.822815560073854"><ele>719.0</ele><time>2026-04-06T11:26:44.997Z</time></trkpt><trkpt lat="37.766205804664395" lon="14.822868210610874"><ele>718.0</ele><time>2026-04-06T11:26:46Z</time></trkpt><trkpt lat="37.766027165517556" lon="14.822919510222073"><ele>717.0</ele><time>2026-04-06T11:26:47Z</time></trkpt><trkpt lat="37.76585154430843" lon="14.822974544576518"><ele>716.0</ele><time>2026-04-06T11:26:48Z</time></trkpt><trkpt lat="37.765673408895935" lon="14.823029135671298"><ele>716.0</ele><time>2026-04-06T11:26:49Z</time></trkpt><trkpt lat="37.76549488832907" lon="14.823082183135227"><ele>716.0</ele><time>2026-04-06T11:26:50Z</time></trkpt><trkpt lat="37.765316730002965" lon="14.823137754758257"><ele>716.0</ele><time>2026-04-06T11:26:51Z</time></trkpt><trkpt lat="37.76513773711478" lon="14.823194550362482"><ele>716.6666666666666</ele><time>2026-04-06T11:26:52Z</time></trkpt><trkpt lat="37.764961556148286" lon="14.823255495636229"><ele>717.3333333333334</ele><time>2026-04-06T11:26:53Z</time></trkpt><trkpt lat="37.76478543801432" lon="14.823317520684494"><ele>718.0</ele><time>2026-04-06T11:26:54Z</time></trkpt><trkpt lat="37.76460914344327" lon="14.823383676364205"><ele>718.0</ele><time>2026-04-06T11:26:55Z</time></trkpt><trkpt lat="37.764436033296704" lon="14.823457452678053"><ele>718.0</ele><time>2026-04-06T11:26:56Z</time></trkpt><trkpt lat="37.7642673849791" lon="14.823539235221121"><ele>718.0</ele><time>2026-04-06T11:26:57Z</time></trkpt><trkpt lat="37.76410106219905" lon="14.823629518708701"><ele>723.6666666666667</ele><time>2026-04-06T11:26:58Z</time></trkpt><trkpt lat="37.76393797521598" lon="14.823723314300377"><ele>729.3333333333334</ele><time>2026-04-06T11:26:59Z</time></trkpt><trkpt lat="37.763778491438856" lon="14.823818524265183"><ele>735.0</ele><time>2026-04-06T11:27:00Z</time></trkpt><trkpt lat="37.7636188235006" lon="14.82390974179568"><ele>738.0</ele><time>2026-04-06T11:27:01Z</time></trkpt><trkpt lat="37.76345179631238" lon="14.824000870411535"><ele>741.0</ele><time>2026-04-06T11:27:02Z</time></trkpt><trkpt lat="37.76328453286067" lon="14.824092516307864"><ele>744.0</ele><time>2026-04-06T11:27:03Z</time></trkpt><trkpt lat="37.763117465646225" lon="14.824181650126091"><ele>744.0</ele><time>2026-04-06T11:27:04Z</time></trkpt><trkpt lat="37.76295557110447" lon="14.824268309170225"><ele>744.0</ele><time>2026-04-06T11:27:05Z</time></trkpt><trkpt lat="37.762799873515284" lon="14.82435152222058"><ele>744.0</ele><time>2026-04-06T11:27:06Z</time></trkpt><trkpt lat="37.76262834784613" lon="14.824451078681795"><ele>743.0</ele><time>2026-04-06T11:27:07.068Z</time></trkpt><trkpt lat="37.76246357794141" lon="14.824540693446869"><ele>742.0</ele><time>2026-04-06T11:27:08.067Z</time></trkpt><trkpt lat="37.762000040891614" lon="14.824865288722755"><ele>741.0</ele><time>2026-04-06T11:27:10.999Z</time></trkpt><trkpt lat="37.76183166067488" lon="14.824938092099007"><ele>740.0</ele><time>2026-04-06T11:27:11.999Z</time></trkpt><trkpt lat="37.76166628047808" lon="14.82499081995308"><ele>739.0</ele><time>2026-04-06T11:27:12.999Z</time></trkpt><trkpt lat="37.76149642849758" lon="14.825042800179409"><ele>739.0</ele><time>2026-04-06T11:27:13.999Z</time></trkpt><trkpt lat="37.76132896391513" lon="14.825082238345715"><ele>739.0</ele><time>2026-04-06T11:27:14.999Z</time></trkpt><trkpt lat="37.76098612024813" lon="14.825118356678795"><ele>742.6666666666667</ele><time>2026-04-06T11:27:16.999Z</time></trkpt><trkpt lat="37.76082141816869" lon="14.825154022005608"><ele>746.3333333333334</ele><time>2026-04-06T11:27:17.999Z</time></trkpt><trkpt lat="37.760656953200815" lon="14.825193904008147"><ele>750.0</ele><time>2026-04-06T11:27:18.999Z</time></trkpt><trkpt lat="37.76049506019733" lon="14.825238677728109"><ele>750.0</ele><time>2026-04-06T11:27:19.999Z</time></trkpt><trkpt lat="37.76033547506854" lon="14.825286246263058"><ele>750.0</ele><time>2026-04-06T11:27:20.999Z</time></trkpt><trkpt lat="37.760172938116824" lon="14.825341088575751"><ele>750.0</ele><time>2026-04-06T11:27:21.999Z</time></trkpt><trkpt lat="37.76001122312199" lon="14.825400457893283"><ele>751.0</ele><time>2026-04-06T11:27:22.999Z</time></trkpt><trkpt lat="37.7598487540346" lon="14.825463801749017"><ele>752.0</ele><time>2026-04-06T11:27:23.999Z</time></trkpt><trkpt lat="37.75968690121298" lon="14.825531270276473"><ele>753.0</ele><time>2026-04-06T11:27:24.999Z</time></trkpt><trkpt lat="37.75952593934902" lon="14.825600221581926"><ele>754.3333333333334</ele><time>2026-04-06T11:27:25.999Z</time></trkpt><trkpt lat="37.75936253811556" lon="14.825675526955814"><ele>755.6666666666667</ele><time>2026-04-06T11:27:26.999Z</time></trkpt><trkpt lat="37.759196039491506" lon="14.825752572370725"><ele>757.0</ele><time>2026-04-06T11:27:27.999Z</time></trkpt><trkpt lat="37.759031906466014" lon="14.82583193880626"><ele>757.0</ele><time>2026-04-06T11:27:28.999Z</time></trkpt><trkpt lat="37.75886832176922" lon="14.825918050594467"><ele>757.0</ele><time>2026-04-06T11:27:29.999Z</time></trkpt><trkpt lat="37.75870045956524" lon="14.82600496157831"><ele>757.0</ele><time>2026-04-06T11:27:30.999Z</time></trkpt><trkpt lat="37.75853268492793" lon="14.826090843975459"><ele>755.3333333333334</ele><time>2026-04-06T11:27:31.999Z</time></trkpt><trkpt lat="37.75836201159986" lon="14.826175483191015"><ele>753.6666666666666</ele><time>2026-04-06T11:27:32.999Z</time></trkpt><trkpt lat="37.758190632944604" lon="14.826252158705673"><ele>752.0</ele><time>2026-04-06T11:27:33.999Z</time></trkpt><trkpt lat="37.75801276479937" lon="14.82632402863332"><ele>752.0</ele><time>2026-04-06T11:27:34.999Z</time></trkpt><trkpt lat="37.757833237010345" lon="14.826383801081125"><ele>752.0</ele><time>2026-04-06T11:27:35.999Z</time></trkpt><trkpt lat="37.75764917577349" lon="14.82643499616361"><ele>752.0</ele><time>2026-04-06T11:27:36.999Z</time></trkpt><trkpt lat="37.75746451481058" lon="14.826472987809883"><ele>750.6666666666666</ele><time>2026-04-06T11:27:37.999Z</time></trkpt><trkpt lat="37.7572785025426" lon="14.826502677552083"><ele>749.3333333333334</ele><time>2026-04-06T11:27:38.999Z</time></trkpt><trkpt lat="37.75708994132841" lon="14.826513268669686"><ele>748.0</ele><time>2026-04-06T11:27:39.999Z</time></trkpt><trkpt lat="37.75690312532244" lon="14.826519955693165"><ele>748.0</ele><time>2026-04-06T11:27:40.999Z</time></trkpt><trkpt lat="37.75671088371672" lon="14.826491586233377"><ele>748.0</ele><time>2026-04-06T11:27:41.999Z</time></trkpt><trkpt lat="37.75651936464496" lon="14.826450875322456"><ele>748.0</ele><time>2026-04-06T11:27:42.999Z</time></trkpt><trkpt lat="37.756323494976115" lon="14.82639603901145"><ele>748.0</ele><time>2026-04-06T11:27:43.999Z</time></trkpt><trkpt lat="37.75613832769639" lon="14.826328646689575"><ele>748.0</ele><time>2026-04-06T11:27:44.999Z</time></trkpt><trkpt lat="37.75595741126264" lon="14.826238624213413"><ele>748.0</ele><time>2026-04-06T11:27:45.999Z</time></trkpt><trkpt lat="37.755777398834056" lon="14.826135305996084"><ele>747.3333333333334</ele><time>2026-04-06T11:27:46.999Z</time></trkpt><trkpt lat="37.75560013917998" lon="14.826017393801099"><ele>746.6666666666666</ele><time>2026-04-06T11:27:47.999Z</time></trkpt><trkpt lat="37.75543146982025" lon="14.82589344862367"><ele>746.0</ele><time>2026-04-06T11:27:48.999Z</time></trkpt><trkpt lat="37.755263336486614" lon="14.825761912332048"><ele>744.6666666666666</ele><time>2026-04-06T11:27:49.999Z</time></trkpt><trkpt lat="37.75509270292733" lon="14.825625769135701"><ele>743.3333333333334</ele><time>2026-04-06T11:27:50.999Z</time></trkpt><trkpt lat="37.75492051021388" lon="14.825484524423668"><ele>742.0</ele><time>2026-04-06T11:27:51.999Z</time></trkpt><trkpt lat="37.75474929319244" lon="14.825343946824827"><ele>742.0</ele><time>2026-04-06T11:27:52.999Z</time></trkpt><trkpt lat="37.754580867061044" lon="14.825212176201392"><ele>742.0</ele><time>2026-04-06T11:27:53.999Z</time></trkpt><trkpt lat="37.75441957553378" lon="14.825093763520565"><ele>742.0</ele><time>2026-04-06T11:27:54.999Z</time></trkpt><trkpt lat="37.75425735072169" lon="14.824980507890292"><ele>738.3333333333334</ele><time>2026-04-06T11:27:55.999Z</time></trkpt><trkpt lat="37.75409103139169" lon="14.824881863344123"><ele>734.6666666666666</ele><time>2026-04-06T11:27:56.999Z</time></trkpt><trkpt lat="37.75392217216663" lon="14.82480825877598"><ele>731.0</ele><time>2026-04-06T11:27:57.999Z</time></trkpt><trkpt lat="37.75374580843922" lon="14.824754187061735"><ele>731.0</ele><time>2026-04-06T11:27:58.999Z</time></trkpt><trkpt lat="37.75356301196931" lon="14.824713624623302"><ele>731.0</ele><time>2026-04-06T11:27:59.998Z</time></trkpt><trkpt lat="37.75337648707149" lon="14.82468233563773"><ele>731.0</ele><time>2026-04-06T11:28:00.998Z</time></trkpt><trkpt lat="37.75319474524028" lon="14.82465805014354"><ele>730.0</ele><time>2026-04-06T11:28:01.998Z</time></trkpt><trkpt lat="37.75301083966022" lon="14.824637677485839"><ele>729.0</ele><time>2026-04-06T11:28:02.998Z</time></trkpt><trkpt lat="37.75282583614941" lon="14.824621944260684"><ele>728.0</ele><time>2026-04-06T11:28:03.998Z</time></trkpt><trkpt lat="37.752639459092826" lon="14.824604851372861"><ele>726.3333333333333</ele><time>2026-04-06T11:28:04.998Z</time></trkpt><trkpt lat="37.75245269538531" lon="14.824583519560687"><ele>724.6666666666666</ele><time>2026-04-06T11:28:05.998Z</time></trkpt><trkpt lat="37.752265853632835" lon="14.824560590611215"><ele>723.0</ele><time>2026-04-06T11:28:06.998Z</time></trkpt><trkpt lat="37.7520769541445" lon="14.8245371455592"><ele>723.0</ele><time>2026-04-06T11:28:07.998Z</time></trkpt><trkpt lat="37.751886397784915" lon="14.824517601836785"><ele>723.0</ele><time>2026-04-06T11:28:08.998Z</time></trkpt><trkpt lat="37.751701179026156" lon="14.824504170502843"><ele>723.0</ele><time>2026-04-06T11:28:09.998Z</time></trkpt><trkpt lat="37.75152018490711" lon="14.824506089508944"><ele>722.0</ele><time>2026-04-06T11:28:10.998Z</time></trkpt><trkpt lat="37.751346790671136" lon="14.824526332750496"><ele>721.0</ele><time>2026-04-06T11:28:11.998Z</time></trkpt><trkpt lat="37.751175748123124" lon="14.824574139611823"><ele>720.0</ele><time>2026-04-06T11:28:12.998Z</time></trkpt><trkpt lat="37.75100886452674" lon="14.824648022136255"><ele>723.0</ele><time>2026-04-06T11:28:13.998Z</time></trkpt><trkpt lat="37.75084837168403" lon="14.824748712089066"><ele>726.0</ele><time>2026-04-06T11:28:14.998Z</time></trkpt><trkpt lat="37.750700030075286" lon="14.824869445777392"><ele>729.0</ele><time>2026-04-06T11:28:15.998Z</time></trkpt><trkpt lat="37.75056513664955" lon="14.825001448344462"><ele>729.0</ele><time>2026-04-06T11:28:16.998Z</time></trkpt><trkpt lat="37.7504433458204" lon="14.825143669420646"><ele>729.0</ele><time>2026-04-06T11:28:17.998Z</time></trkpt><trkpt lat="37.75034043579821" lon="14.825292317652137"><ele>729.0</ele><time>2026-04-06T11:28:18.998Z</time></trkpt><trkpt lat="37.75024773017413" lon="14.825448369867955"><ele>731.0</ele><time>2026-04-06T11:28:19.998Z</time></trkpt><trkpt lat="37.75014279195835" lon="14.82559711385797"><ele>733.0</ele><time>2026-04-06T11:28:20.998Z</time></trkpt><trkpt lat="37.750017192837944" lon="14.825718566199885"><ele>735.0</ele><time>2026-04-06T11:28:21.998Z</time></trkpt><trkpt lat="37.74987714281258" lon="14.825820391302553"><ele>735.0</ele><time>2026-04-06T11:28:22.998Z</time></trkpt><trkpt lat="37.749736938998055" lon="14.825922423261344"><ele>735.0</ele><time>2026-04-06T11:28:23.998Z</time></trkpt><trkpt lat="37.74959264628682" lon="14.826017645339876"><ele>735.0</ele><time>2026-04-06T11:28:24.998Z</time></trkpt><trkpt lat="37.74944675836943" lon="14.826114038192447"><ele>737.3333333333334</ele><time>2026-04-06T11:28:25.998Z</time></trkpt><trkpt lat="37.74930331950861" lon="14.826213889284618"><ele>739.6666666666667</ele><time>2026-04-06T11:28:26.998Z</time></trkpt><trkpt lat="37.749164183748945" lon="14.82631354142093"><ele>742.0</ele><time>2026-04-06T11:28:27.998Z</time></trkpt><trkpt lat="37.74902268073863" lon="14.82641786292841"><ele>742.0</ele><time>2026-04-06T11:28:28.998Z</time></trkpt><trkpt lat="37.74888503942226" lon="14.826523093792042"><ele>742.0</ele><time>2026-04-06T11:28:29.998Z</time></trkpt><trkpt lat="37.748748443503295" lon="14.826633697118334"><ele>742.0</ele><time>2026-04-06T11:28:30.998Z</time></trkpt><trkpt lat="37.74860753523342" lon="14.826745691162492"><ele>743.6666666666667</ele><time>2026-04-06T11:28:31.998Z</time></trkpt><trkpt lat="37.748470051633625" lon="14.826852393231878"><ele>745.3333333333334</ele><time>2026-04-06T11:28:32.998Z</time></trkpt><trkpt lat="37.748327663521025" lon="14.826968326387957"><ele>747.0</ele><time>2026-04-06T11:28:33.998Z</time></trkpt><trkpt lat="37.74818457367412" lon="14.827082433985867"><ele>747.0</ele><time>2026-04-06T11:28:34.998Z</time></trkpt><trkpt lat="37.74804221252947" lon="14.827193408510743"><ele>747.0</ele><time>2026-04-06T11:28:35.998Z</time></trkpt><trkpt lat="37.747899362161405" lon="14.827305792139924"><ele>747.0</ele><time>2026-04-06T11:28:36.998Z</time></trkpt><trkpt lat="37.747756949528444" lon="14.827421767183758"><ele>746.6666666666666</ele><time>2026-04-06T11:28:37.998Z</time></trkpt><trkpt lat="37.74762112321755" lon="14.82754666292474"><ele>746.3333333333333</ele><time>2026-04-06T11:28:38.998Z</time></trkpt><trkpt lat="37.74747590918844" lon="14.827650703202366"><ele>746.0</ele><time>2026-04-06T11:28:39.998Z</time></trkpt><trkpt lat="37.74736358863799" lon="14.82780907447885"><ele>747.3333333333333</ele><time>2026-04-06T11:28:40.998Z</time></trkpt><trkpt lat="37.747238022357585" lon="14.827939119049793"><ele>748.6666666666666</ele><time>2026-04-06T11:28:41.998Z</time></trkpt><trkpt lat="37.747112615082706" lon="14.828069866616126"><ele>750.0</ele><time>2026-04-06T11:28:42.998Z</time></trkpt><trkpt lat="37.7469882964691" lon="14.828202803798652"><ele>750.3333333333334</ele><time>2026-04-06T11:28:43.998Z</time></trkpt><trkpt lat="37.74686120666539" lon="14.82833670722336"><ele>750.6666666666667</ele><time>2026-04-06T11:28:44.998Z</time></trkpt><trkpt lat="37.7467280825312" lon="14.828467323311544"><ele>751.0</ele><time>2026-04-06T11:28:45.999Z</time></trkpt><trkpt lat="37.746591748266965" lon="14.828592145283478"><ele>751.0</ele><time>2026-04-06T11:28:46.999Z</time></trkpt><trkpt lat="37.746452620702264" lon="14.82871387443062"><ele>751.0</ele><time>2026-04-06T11:28:47.999Z</time></trkpt><trkpt lat="37.74631238889672" lon="14.828833670704272"><ele>751.0</ele><time>2026-04-06T11:28:48.999Z</time></trkpt><trkpt lat="37.74617035199465" lon="14.82895442963261"><ele>749.0</ele><time>2026-04-06T11:28:49.999Z</time></trkpt><trkpt lat="37.74602587570199" lon="14.82907266653812"><ele>747.0</ele><time>2026-04-06T11:28:50.999Z</time></trkpt><trkpt lat="37.74588049743245" lon="14.829188614010869"><ele>745.0</ele><time>2026-04-06T11:28:52.001Z</time></trkpt><trkpt lat="37.74573582433567" lon="14.829306583646146"><ele>747.6666666666667</ele><time>2026-04-06T11:28:53.001Z</time></trkpt><trkpt lat="37.74559309096866" lon="14.829425132050078"><ele>750.3333333333334</ele><time>2026-04-06T11:28:54.001Z</time></trkpt><trkpt lat="37.74544869448798" lon="14.829545937917256"><ele>753.0</ele><time>2026-04-06T11:28:55.001Z</time></trkpt><trkpt lat="37.74530471173721" lon="14.829664110688281"><ele>750.3333333333334</ele><time>2026-04-06T11:28:56.001Z</time></trkpt><trkpt lat="37.74516339814049" lon="14.829783349324536"><ele>747.6666666666667</ele><time>2026-04-06T11:28:57.001Z</time></trkpt><trkpt lat="37.74502233646073" lon="14.829899729238933"><ele>745.0</ele><time>2026-04-06T11:28:58.001Z</time></trkpt><trkpt lat="37.74487946291425" lon="14.830010658997738"><ele>745.0</ele><time>2026-04-06T11:28:59.001Z</time></trkpt><trkpt lat="37.74473723092717" lon="14.830108834090499"><ele>745.0</ele><time>2026-04-06T11:29:00.001Z</time></trkpt><trkpt lat="37.74459017219745" lon="14.83019934428002"><ele>745.0</ele><time>2026-04-06T11:29:01.001Z</time></trkpt><trkpt lat="37.744439686532566" lon="14.830282579513705"><ele>747.0</ele><time>2026-04-06T11:29:02.001Z</time></trkpt><trkpt lat="37.74428485679051" lon="14.830355033936026"><ele>749.0</ele><time>2026-04-06T11:29:03.001Z</time></trkpt><trkpt lat="37.744130194839315" lon="14.830413208000572"><ele>751.0</ele><time>2026-04-06T11:29:04.001Z</time></trkpt><trkpt lat="37.743977075180005" lon="14.830461939034862"><ele>751.0</ele><time>2026-04-06T11:29:05.001Z</time></trkpt><trkpt lat="37.74382479455964" lon="14.830504095681347"><ele>751.0</ele><time>2026-04-06T11:29:06.001Z</time></trkpt><trkpt lat="37.74367331981239" lon="14.830540306470645"><ele>751.0</ele><time>2026-04-06T11:29:07.001Z</time></trkpt><trkpt lat="37.74352386981999" lon="14.83057058695213"><ele>750.75</ele><time>2026-04-06T11:29:08.001Z</time></trkpt><trkpt lat="37.7433792718412" lon="14.830596909614979"><ele>750.5</ele><time>2026-04-06T11:29:09.001Z</time></trkpt><trkpt lat="37.74324287902457" lon="14.830614181368965"><ele>750.25</ele><time>2026-04-06T11:29:10.001Z</time></trkpt><trkpt lat="37.74310695744022" lon="14.830615124653628"><ele>750.0</ele><time>2026-04-06T11:29:11.001Z</time></trkpt><trkpt lat="37.742965951987955" lon="14.830601289030662"><ele>750.0</ele><time>2026-04-06T11:29:12.001Z</time></trkpt><trkpt lat="37.742834683345556" lon="14.830557439226315"><ele>750.0</ele><time>2026-04-06T11:29:13.001Z</time></trkpt><trkpt lat="37.742713261004354" lon="14.830506441112407"><ele>750.0</ele><time>2026-04-06T11:29:14.001Z</time></trkpt><trkpt lat="37.74261251081593" lon="14.830473121627731"><ele>750.0</ele><time>2026-04-06T11:29:15.001Z</time></trkpt><trkpt lat="37.74250553686123" lon="14.830446049764172"><ele>749.0</ele><time>2026-04-06T11:29:16.001Z</time></trkpt><trkpt lat="37.74240464986512" lon="14.830392356071007"><ele>748.0</ele><time>2026-04-06T11:29:17.001Z</time></trkpt><trkpt lat="37.74231993567081" lon="14.830322228185343"><ele>747.0</ele><time>2026-04-06T11:29:18.001Z</time></trkpt><trkpt lat="37.74225536864455" lon="14.830255969716124"><ele>746.0</ele><time>2026-04-06T11:29:19.001Z</time></trkpt><trkpt lat="37.74220310156353" lon="14.83019786624461"><ele>745.0</ele><time>2026-04-06T11:29:20.001Z</time></trkpt><trkpt lat="37.74211237649396" lon="14.830106141600416"><ele>745.0</ele><time>2026-04-06T11:29:22Z</time></trkpt><trkpt lat="37.74203445801055" lon="14.830080777775606"><ele>745.0</ele><time>2026-04-06T11:29:24Z</time></trkpt><trkpt lat="37.741917204510386" lon="14.830169725113649"><ele>745.0</ele><time>2026-04-06T11:29:29Z</time></trkpt><trkpt lat="37.741852896580184" lon="14.830221558053733"><ele>745.0</ele><time>2026-04-06T11:29:31Z</time></trkpt><trkpt lat="37.74176564336618" lon="14.830241198228938"><ele>745.0</ele><time>2026-04-06T11:29:33Z</time></trkpt><trkpt lat="37.74167805501503" lon="14.830297556221247"><ele>744.8</ele><time>2026-04-06T11:29:35Z</time></trkpt><trkpt lat="37.74162816834061" lon="14.830393083078647"><ele>744.6</ele><time>2026-04-06T11:29:37Z</time></trkpt><trkpt lat="37.741601051125" lon="14.830499983692167"><ele>744.4000000000001</ele><time>2026-04-06T11:29:39Z</time></trkpt><trkpt lat="37.741605818930395" lon="14.830589472599753"><ele>744.2</ele><time>2026-04-06T11:29:40Z</time></trkpt><trkpt lat="37.74157958863927" lon="14.830734694123002"><ele>744.0</ele><time>2026-04-06T11:29:42Z</time></trkpt><trkpt lat="37.74157347458083" lon="14.830876478091938"><ele>744.0</ele><time>2026-04-06T11:29:44Z</time></trkpt><trkpt lat="37.7415889827861" lon="14.830954967452401"><ele>744.0</ele><time>2026-04-06T11:29:45Z</time></trkpt><trkpt lat="37.741574704696184" lon="14.831034026372778"><ele>744.0</ele><time>2026-04-06T11:29:46Z</time></trkpt><trkpt lat="37.741578523259015" lon="14.831113970575402"><ele>744.0</ele><time>2026-04-06T11:29:47Z</time></trkpt><trkpt lat="37.74159780101017" lon="14.831267144806112"><ele>744.0</ele><time>2026-04-06T11:29:49Z</time></trkpt><trkpt lat="37.741625449345" lon="14.831413501950447"><ele>744.0</ele><time>2026-04-06T11:29:51Z</time></trkpt><trkpt lat="37.741642344832655" lon="14.83149133079876"><ele>746.0</ele><time>2026-04-06T11:29:52Z</time></trkpt><trkpt lat="37.74169299199177" lon="14.831625542653256"><ele>748.0</ele><time>2026-04-06T11:29:54Z</time></trkpt><trkpt lat="37.741718213523804" lon="14.831754593446522"><ele>750.0</ele><time>2026-04-06T11:29:56Z</time></trkpt><trkpt lat="37.741672288307655" lon="14.83190325601311"><ele>752.0</ele><time>2026-04-06T11:29:58Z</time></trkpt><trkpt lat="37.74165325173446" lon="14.831984060055019"><ele>754.0</ele><time>2026-04-06T11:29:59Z</time></trkpt><trkpt lat="37.74164996244222" lon="14.832071231886461"><ele>755.5</ele><time>2026-04-06T11:30:00Z</time></trkpt><trkpt lat="37.74163578298862" lon="14.832160898205641"><ele>757.0</ele><time>2026-04-06T11:30:01Z</time></trkpt><trkpt lat="37.741649006647" lon="14.832247402276817"><ele>758.5</ele><time>2026-04-06T11:30:02Z</time></trkpt><trkpt lat="37.74167215942079" lon="14.832326071031659"><ele>760.0</ele><time>2026-04-06T11:30:03Z</time></trkpt><trkpt lat="37.741697652433736" lon="14.832405204669705"><ele>761.5</ele><time>2026-04-06T11:30:04Z</time></trkpt><trkpt lat="37.74172155626976" lon="14.832479405167332"><ele>763.0</ele><time>2026-04-06T11:30:05Z</time></trkpt><trkpt lat="37.74176365874545" lon="14.8326267334499"><ele>765.4</ele><time>2026-04-06T11:30:07Z</time></trkpt><trkpt lat="37.741785712799874" lon="14.832703130778041"><ele>767.8</ele><time>2026-04-06T11:30:08Z</time></trkpt><trkpt lat="37.74181966362827" lon="14.832843963885145"><ele>770.2</ele><time>2026-04-06T11:30:09.999Z</time></trkpt><trkpt lat="37.7418272804265" lon="14.832991875957438"><ele>772.6</ele><time>2026-04-06T11:30:11.999Z</time></trkpt><trkpt lat="37.74188933805667" lon="14.833112120110526"><ele>775.0</ele><time>2026-04-06T11:30:13.999Z</time></trkpt><trkpt lat="37.74194489503149" lon="14.83316122683964"><ele>775.2</ele><time>2026-04-06T11:30:14.999Z</time></trkpt><trkpt lat="37.74199505291768" lon="14.833209711451383"><ele>775.4</ele><time>2026-04-06T11:30:15.999Z</time></trkpt><trkpt lat="37.74208898625204" lon="14.833296090478862"><ele>775.5999999999999</ele><time>2026-04-06T11:30:17.999Z</time></trkpt><trkpt lat="37.742176149503976" lon="14.833380402273322"><ele>775.8</ele><time>2026-04-06T11:30:19.999Z</time></trkpt><trkpt lat="37.742232938599216" lon="14.833475436403926"><ele>776.0</ele><time>2026-04-06T11:30:21.999Z</time></trkpt><trkpt lat="37.742231586161296" lon="14.833608080254429"><ele>776.5999999999999</ele><time>2026-04-06T11:30:23.999Z</time></trkpt><trkpt lat="37.74215045906013" lon="14.833710791016907"><ele>777.2</ele><time>2026-04-06T11:30:25.999Z</time></trkpt><trkpt lat="37.74208286318276" lon="14.83375573232888"><ele>777.8</ele><time>2026-04-06T11:30:27.999Z</time></trkpt><trkpt lat="37.74202166031491" lon="14.833798932099159"><ele>778.4000000000001</ele><time>2026-04-06T11:30:30.999Z</time></trkpt><trkpt lat="37.741944008804865" lon="14.833886733237655"><ele>779.0</ele><time>2026-04-06T11:30:33.999Z</time></trkpt><trkpt lat="37.74188296690879" lon="14.833960411953193"><ele>779.2</ele><time>2026-04-06T11:30:35.999Z</time></trkpt><trkpt lat="37.74182365304165" lon="14.834058540034718"><ele>779.4000000000001</ele><time>2026-04-06T11:30:37.999Z</time></trkpt><trkpt lat="37.74181000567268" lon="14.834199174319368"><ele>779.6</ele><time>2026-04-06T11:30:39.999Z</time></trkpt><trkpt lat="37.74178244882927" lon="14.834316348309788"><ele>779.8</ele><time>2026-04-06T11:30:41.999Z</time></trkpt><trkpt lat="37.74171331927854" lon="14.834415886181281"><ele>780.0</ele><time>2026-04-06T11:30:43.999Z</time></trkpt><trkpt lat="37.741604626643756" lon="14.834439386808086"><ele>782.0</ele><time>2026-04-06T11:30:45.999Z</time></trkpt><trkpt lat="37.74149622577749" lon="14.834455097423247"><ele>784.0</ele><time>2026-04-06T11:30:47.999Z</time></trkpt><trkpt lat="37.741402483428026" lon="14.834554270568661"><ele>786.0</ele><time>2026-04-06T11:30:49.999Z</time></trkpt><trkpt lat="37.741304593961964" lon="14.834666685220874"><ele>788.0</ele><time>2026-04-06T11:30:51.999Z</time></trkpt><trkpt lat="37.74127091362211" lon="14.834739710167018"><ele>790.0</ele><time>2026-04-06T11:30:52.999Z</time></trkpt><trkpt lat="37.74123010402204" lon="14.834870921687568"><ele>789.9999999999999</ele><time>2026-04-06T11:30:54.999Z</time></trkpt><trkpt lat="37.74117987674116" lon="14.834920715272187"><ele>790.0</ele><time>2026-04-06T11:30:55.999Z</time></trkpt><trkpt lat="37.741117174082845" lon="14.83495705773399"><ele>790.0</ele><time>2026-04-06T11:30:57.001Z</time></trkpt><trkpt lat="37.741045367534255" lon="14.835000066155505"><ele>790.0</ele><time>2026-04-06T11:30:58.001Z</time></trkpt><trkpt lat="37.74097304109227" lon="14.835049603619673"><ele>789.9999999999999</ele><time>2026-04-06T11:30:59.001Z</time></trkpt><trkpt lat="37.740903958618695" lon="14.83510625863669"><ele>790.0</ele><time>2026-04-06T11:31:00.001Z</time></trkpt><trkpt lat="37.74084359953477" lon="14.835161170636338"><ele>791.9999999999999</ele><time>2026-04-06T11:31:01.001Z</time></trkpt><trkpt lat="37.74080028547961" lon="14.83523554123417"><ele>794.0</ele><time>2026-04-06T11:31:02.001Z</time></trkpt><trkpt lat="37.740764835079176" lon="14.835323560644579"><ele>796.0</ele><time>2026-04-06T11:31:03.001Z</time></trkpt><trkpt lat="37.74074466968499" lon="14.83541565461072"><ele>798.0</ele><time>2026-04-06T11:31:04.001Z</time></trkpt><trkpt lat="37.740735751880095" lon="14.835514426964053"><ele>799.9999999999999</ele><time>2026-04-06T11:31:05.001Z</time></trkpt><trkpt lat="37.740729048634805" lon="14.835595249865602"><ele>802.0</ele><time>2026-04-06T11:31:06.001Z</time></trkpt><trkpt lat="37.740680433226316" lon="14.835715212105418"><ele>802.0</ele><time>2026-04-06T11:31:08.001Z</time></trkpt><trkpt lat="37.74058237851077" lon="14.835808067275192"><ele>802.0</ele><time>2026-04-06T11:31:10.001Z</time></trkpt><trkpt lat="37.740526355705015" lon="14.835883276403566"><ele>802.0</ele><time>2026-04-06T11:31:11.001Z</time></trkpt><trkpt lat="37.74047355304756" lon="14.835978645830291"><ele>802.0</ele><time>2026-04-06T11:31:12.001Z</time></trkpt><trkpt lat="37.740428376323806" lon="14.83606180619203"><ele>802.0</ele><time>2026-04-06T11:31:13.001Z</time></trkpt><trkpt lat="37.74038116677992" lon="14.836139706204502"><ele>803.9999999999999</ele><time>2026-04-06T11:31:14.001Z</time></trkpt><trkpt lat="37.74033038092793" lon="14.836214379066575"><ele>806.0</ele><time>2026-04-06T11:31:15.001Z</time></trkpt><trkpt lat="37.74027284838149" lon="14.83628420855792"><ele>808.0</ele><time>2026-04-06T11:31:16.001Z</time></trkpt><trkpt lat="37.74021839879096" lon="14.836353648429766"><ele>810.0</ele><time>2026-04-06T11:31:17.001Z</time></trkpt><trkpt lat="37.74016932710683" lon="14.836428019857024"><ele>811.9999999999999</ele><time>2026-04-06T11:31:18.001Z</time></trkpt><trkpt lat="37.74011960229691" lon="14.836489540819539"><ele>814.0</ele><time>2026-04-06T11:31:19.001Z</time></trkpt><trkpt lat="37.74005131229832" lon="14.836600767633264"><ele>813.9999999999999</ele><time>2026-04-06T11:31:21.001Z</time></trkpt><trkpt lat="37.74002111946598" lon="14.836683381908307"><ele>814.0</ele><time>2026-04-06T11:31:22.001Z</time></trkpt><trkpt lat="37.73998116740007" lon="14.83677203792086"><ele>814.0</ele><time>2026-04-06T11:31:23.001Z</time></trkpt><trkpt lat="37.739931038296575" lon="14.83685948603549"><ele>814.0</ele><time>2026-04-06T11:31:24.001Z</time></trkpt><trkpt lat="37.73987242628337" lon="14.836933909277544"><ele>813.9999999999999</ele><time>2026-04-06T11:31:25.001Z</time></trkpt><trkpt lat="37.73981241864714" lon="14.836996239494239"><ele>814.0</ele><time>2026-04-06T11:31:26.001Z</time></trkpt><trkpt lat="37.739763084436305" lon="14.83706039270724"><ele>815.5714285714287</ele><time>2026-04-06T11:31:27Z</time></trkpt><trkpt lat="37.73972250921885" lon="14.837138118208246"><ele>817.1428571428571</ele><time>2026-04-06T11:31:28Z</time></trkpt><trkpt lat="37.739688501511125" lon="14.83723152824582"><ele>818.7142857142858</ele><time>2026-04-06T11:31:29Z</time></trkpt><trkpt lat="37.73966829402113" lon="14.837328595681432"><ele>820.2857142857143</ele><time>2026-04-06T11:31:30Z</time></trkpt><trkpt lat="37.73964440032211" lon="14.837417200497065"><ele>821.8571428571429</ele><time>2026-04-06T11:31:31Z</time></trkpt><trkpt lat="37.73960312767445" lon="14.837490778749439"><ele>823.4285714285714</ele><time>2026-04-06T11:31:32Z</time></trkpt><trkpt lat="37.73955698766845" lon="14.83755675605413"><ele>825.0</ele><time>2026-04-06T11:31:33Z</time></trkpt><trkpt lat="37.73951750203279" lon="14.837627117861432"><ele>825.5714285714286</ele><time>2026-04-06T11:31:34Z</time></trkpt><trkpt lat="37.739487471968644" lon="14.837704587676452"><ele>826.1428571428572</ele><time>2026-04-06T11:31:35Z</time></trkpt><trkpt lat="37.739461653007616" lon="14.837787562553249"><ele>826.7142857142858</ele><time>2026-04-06T11:31:36Z</time></trkpt><trkpt lat="37.739440066699125" lon="14.837868285406287"><ele>827.2857142857142</ele><time>2026-04-06T11:31:37Z</time></trkpt><trkpt lat="37.73941426960169" lon="14.837949737289028"><ele>827.8571428571429</ele><time>2026-04-06T11:31:38Z</time></trkpt><trkpt lat="37.739388258609324" lon="14.838032381322208"><ele>828.4285714285714</ele><time>2026-04-06T11:31:39Z</time></trkpt><trkpt lat="37.739366638436955" lon="14.838111327709194"><ele>829.0</ele><time>2026-04-06T11:31:40Z</time></trkpt><trkpt lat="37.739322418104535" lon="14.838234501916611"><ele>829.0</ele><time>2026-04-06T11:31:42Z</time></trkpt><trkpt lat="37.73923168680648" lon="14.838281462779578"><ele>829.0</ele><time>2026-04-06T11:31:44Z</time></trkpt><trkpt lat="37.73912719680092" lon="14.838296070212097"><ele>829.0</ele><time>2026-04-06T11:31:46Z</time></trkpt><trkpt lat="37.739018153043105" lon="14.838416337786715"><ele>829.0</ele><time>2026-04-06T11:31:48Z</time></trkpt><trkpt lat="37.738968313199244" lon="14.83850265091497"><ele>829.0</ele><time>2026-04-06T11:31:49Z</time></trkpt><trkpt lat="37.738924653545894" lon="14.838585080628704"><ele>832.2</ele><time>2026-04-06T11:31:50Z</time></trkpt><trkpt lat="37.738894526596695" lon="14.838661453318002"><ele>835.4000000000001</ele><time>2026-04-06T11:31:51Z</time></trkpt><trkpt lat="37.738875682513374" lon="14.838741407734403"><ele>838.6</ele><time>2026-04-06T11:31:52Z</time></trkpt><trkpt lat="37.73882566925578" lon="14.838876541623648"><ele>841.8</ele><time>2026-04-06T11:31:54Z</time></trkpt><trkpt lat="37.73871378574477" lon="14.838958021125354"><ele>845.0</ele><time>2026-04-06T11:31:56Z</time></trkpt><trkpt lat="37.738650286451104" lon="14.838998822957128"><ele>845.0000000000001</ele><time>2026-04-06T11:31:57Z</time></trkpt><trkpt lat="37.738579262428075" lon="14.839096848617748"><ele>845.0</ele><time>2026-04-06T11:31:59Z</time></trkpt><trkpt lat="37.73852683867414" lon="14.839212207972562"><ele>845.0</ele><time>2026-04-06T11:32:01Z</time></trkpt><trkpt lat="37.73847522831793" lon="14.839274823648507"><ele>845.0</ele><time>2026-04-06T11:32:02Z</time></trkpt><trkpt lat="37.73842324934703" lon="14.839339375680952"><ele>845.0000000000001</ele><time>2026-04-06T11:32:03Z</time></trkpt><trkpt lat="37.73838086440433" lon="14.839418673472506"><ele>845.0</ele><time>2026-04-06T11:32:04Z</time></trkpt><trkpt lat="37.73833842031002" lon="14.839505848951745"><ele>845.8333333333334</ele><time>2026-04-06T11:32:05Z</time></trkpt><trkpt lat="37.73830554707291" lon="14.839590121685644"><ele>846.6666666666667</ele><time>2026-04-06T11:32:06Z</time></trkpt><trkpt lat="37.73827639888343" lon="14.839677432799755"><ele>847.5</ele><time>2026-04-06T11:32:07Z</time></trkpt><trkpt lat="37.73825003196881" lon="14.839761496820708"><ele>848.3333333333333</ele><time>2026-04-06T11:32:08Z</time></trkpt><trkpt lat="37.73822525394064" lon="14.839839656829737"><ele>849.1666666666666</ele><time>2026-04-06T11:32:09Z</time></trkpt><trkpt lat="37.738180962113134" lon="14.839916984848621"><ele>850.0</ele><time>2026-04-06T11:32:11Z</time></trkpt><trkpt lat="37.738105718456644" lon="14.839995766205377"><ele>850.0</ele><time>2026-04-06T11:32:12Z</time></trkpt><trkpt lat="37.73798681460216" lon="14.840024849515096"><ele>850.0</ele><time>2026-04-06T11:32:13.999Z</time></trkpt><trkpt lat="37.737901857485625" lon="14.840030997862659"><ele>850.0</ele><time>2026-04-06T11:32:15.999Z</time></trkpt><trkpt lat="37.73783615332709" lon="14.840047257890504"><ele>850.0</ele><time>2026-04-06T11:32:19.999Z</time></trkpt><trkpt lat="37.737776039902336" lon="14.840071278987844"><ele>850.0</ele><time>2026-04-06T11:32:25.999Z</time></trkpt><trkpt lat="37.73777733470461" lon="14.840223963400126"><ele>851.3333333333333</ele><time>2026-04-06T11:32:27.999Z</time></trkpt><trkpt lat="37.73779557071949" lon="14.840317078372799"><ele>852.6666666666666</ele><time>2026-04-06T11:32:29.999Z</time></trkpt><trkpt lat="37.73781969834549" lon="14.84042507392789"><ele>854.0</ele><time>2026-04-06T11:32:31.999Z</time></trkpt><trkpt lat="37.73784352317694" lon="14.840528434278102"><ele>855.3333333333333</ele><time>2026-04-06T11:32:33.999Z</time></trkpt><trkpt lat="37.7378719166961" lon="14.84063963919082"><ele>856.6666666666666</ele><time>2026-04-06T11:32:35.999Z</time></trkpt><trkpt lat="37.737897027303596" lon="14.840740729054213"><ele>858.0</ele><time>2026-04-06T11:32:37.999Z</time></trkpt><trkpt lat="37.73792073131947" lon="14.840838822819727"><ele>858.0</ele><time>2026-04-06T11:32:39.999Z</time></trkpt><trkpt lat="37.737939799399" lon="14.84092129719219"><ele>858.0</ele><time>2026-04-06T11:32:41.999Z</time></trkpt><trkpt lat="37.73795720450446" lon="14.841003291147713"><ele>858.0</ele><time>2026-04-06T11:32:47.999Z</time></trkpt><trkpt lat="37.738059948349154" lon="14.841085104381486"><ele>858.0</ele><time>2026-04-06T11:32:58.999Z</time></trkpt><trkpt lat="37.73797237576548" lon="14.84107476141867"><ele>858.0</ele><time>2026-04-06T11:32:59.999Z</time></trkpt><trkpt lat="37.738083492914" lon="14.841040376482766"><ele>858.5</ele><time>2026-04-06T11:33:05.001Z</time></trkpt><trkpt lat="37.73797340930534" lon="14.841079630309768"><ele>859.0</ele><time>2026-04-06T11:33:09.001Z</time></trkpt><trkpt lat="37.738083012561766" lon="14.841105325593883"><ele>859.5</ele><time>2026-04-06T11:33:12.001Z</time></trkpt><trkpt lat="37.73813747441616" lon="14.841167138359836"><ele>860.0</ele><time>2026-04-06T11:33:17.001Z</time></trkpt><trkpt lat="37.73819720498608" lon="14.841237096353824"><ele>860.5</ele><time>2026-04-06T11:38:19.999Z</time></trkpt><trkpt lat="37.738254202615394" lon="14.841285665375885"><ele>861.0</ele><time>2026-04-06T11:38:32.999Z</time></trkpt><trkpt lat="37.73823154606145" lon="14.841208339900229"><ele>861.0</ele><time>2026-04-06T11:38:46.999Z</time></trkpt><trkpt lat="37.73819416153734" lon="14.841135088574516"><ele>861.0</ele><time>2026-04-06T11:38:55.999Z</time></trkpt><trkpt lat="37.73822305176324" lon="14.84120622157453"><ele>861.0</ele><time>2026-04-06T11:39:11.998Z</time></trkpt></trkseg></trk></gpx>